     2              OBSERVATION DATA    GPS                 RINEX VERSION / TYPE
teqc 2002Apr3 20050208 23:01:56UTC                          PGM / RUN BY / DATE
                                                            COMMENT
L2: 1 -> 1; 150 -> 5; 250 -> 9                              COMMENT
L2: 1 -> 1; 150 -> 5; 250 -> 9                              COMMENT
L2: 1 -> 1; 150 -> 5; 250 -> 9                              COMMENT
L2: 1 -> 1; 150 -> 5; 250 -> 9                              COMMENT
L2: 1 -> 1; 150 -> 5; 250 -> 9                              COMMENT
Original Marker Name: HIGH                                  COMMENT
Campaign Name: CSUSB June 2004                              COMMENT
4-Character Station Name: HIGH                              COMMENT
6-Character Antenna Code: DMRCHT                            COMMENT
Vertical Measurement Point: BCR                             COMMENT
Vertical Offset to Rinex Ref. Point: 0.0348                 COMMENT
Radial Measurement Point: ECF                               COMMENT
Radial Offset to Rinex Ref. Point: 0.1897                   COMMENT
Antenna Height from Field Measurement: 1.0780 m             COMMENT
Additional Antenna Identification Info.:                    COMMENT
Turborogue and Ashtech Choke Ring                           COMMENT
Original XYZ: -2413434.6700 -4702237.4200 3559083.4400      COMMENT
New XYZ position is based on association with SCEC monument COMMENT
E1D0S5P0+0011. Position of that monument is believed to be  COMMENT
valid to within 1 m horizontally; vertical accuracy         COMMENT
should be no worse than 3-times this value.                 COMMENT
                                                            COMMENT
Revised Rinex header created by UCSD GPS archive for        COMMENT
GSAC on 20-Apr-2005 (2005:110) 16:26:13 GMT                 COMMENT
For assistance contact dagnew@ucsd.edu                      COMMENT
or anderson@python.ucsd.edu                                 COMMENT
                                                            COMMENT
HIGHLANDS                                                   MARKER NAME
___ CSUSB                                                   OBSERVER / AGENCY
1224 ASHTECH Z-X ZB00                                       REC # / TYPE / VERS
1401 DORNE-MARGOL. TYPE T                                   ANT # / TYPE
 -2413428.0000 -4702229.0000  3559075.0000                  APPROX POSITION XYZ
        1.0264        0.0000        0.0000                  ANTENNA: DELTA H/E/N
     1     1     0                                          WAVELENGTH FACT L1/2
     7    C1    L1    L2    P1    P2    S1    S2            # / TYPES OF OBSERV
     0                                                      INTERVAL
  2004     6    23    14    51   40.000000                  TIME OF FIRST OBS
  2004     6    24     0     3   20.000000                  TIME OF LAST OBS
                                                            END OF HEADER
 04  6 23 14 51 40.0000000  0 11G22G21G18G17G 6G16G15G30G10G29G26
  24135076.1204     350958.07753    278922.67252  24135076.6324   24135071.4534
        48.0004         40.0004
  21224555.7414     488393.61154    382219.17752  21224556.8614   21224550.5684
        57.0004         49.0004
  21603697.4574     401544.59153    352965.08552  21603698.9004   21603692.7484
        56.0004         48.0004
  23698704.5164     689764.05653    526015.35852  23698704.4234   23698701.4064
        47.0004         40.0004
  20265757.2954     578552.33854    450213.63752  20265759.0434   20265753.3924
        58.0004         51.0004
  24060775.3974     462093.96153    367237.13252  24060776.7414   24060772.0444
        44.0004         37.0004
  24419770.6344     400962.95553    344103.91252  24419773.0584   24419771.4314
        44.0004         38.0004
  23444891.4334     748694.59053    576449.54052  23444892.6484   23444888.9894
        48.0004         41.0004
  23881791.7944     735493.37053    566456.05652  23881789.8344   23881790.7634
        47.0004         41.0004
  22548959.1604     534467.85553    417234.98252  22548960.0404   22548955.5544
        52.0004         45.0004
  22020095.5674     458875.12053    361325.43152  22020096.8714   22020092.4754
        52.0004         45.0004
 04  6 23 14 52  0.0000000  0 11G22G21G18G17G 6G16G15G30G10G29G26
  24122131.7424     282937.77343    225919.86942  24122132.7964   24122128.3414
        46.0004         40.0004
  21220025.6824     464587.93944    363669.30342  21220027.1264   21220020.1164
        57.0004         49.0004
  21594666.1584     354084.63443    315983.30842  21594667.8324   21594661.8194
        56.0004         48.0004
  23707097.4994     733875.54843    560387.89442  23707098.9534   23707095.2834
        46.0004         40.0004
  20267528.8124     587862.25144    457468.10342  20267530.6264   20267525.0874
        58.0004         51.0004
  24053995.3284     426462.78743    339472.62042  24053998.1804   24053991.7314
        44.0004         37.0004
  24410104.6674     350167.83343    304523.35542  24410107.4094   24410105.6944
        44.0004         38.0004
  23457645.0454     815716.52643    628674.38042  23457647.6674   23457642.3764
        49.0004         41.0004
  23895067.8784     805258.11743    620818.11542  23895069.8554   23895064.6134
        48.0004         41.0004
  22548161.9064     530279.67343    413971.47642  22548163.3914   22548158.2154
        51.0004         45.0004
  22014927.3664     431713.23343    340160.33442  22014928.5594   22014923.0364
        52.0004         45.0004
 04  6 23 14 52 20.0000000  0 11G22G21G18G17G 6G16G15G30G10G29G26
  24109203.5024     214996.35543    172978.53142  24109203.7594   24109199.2914
        47.0004         40.0004
  21215509.3444     440855.12544    345176.20342  21215510.6594   21215504.4944
        57.0004         49.0004
  21585667.0544     306794.64543    279133.97042  21585668.5324   21585662.9084
        56.0004         48.0004
  23715497.3084     778012.68443    594780.41942  23715498.8244   23715494.9184
        47.0004         41.0004
  20269340.4674     597383.10244    464886.93742  20269342.2644   20269336.6194
        58.0004         51.0004
  24047254.6834     391042.50443    311872.39842  24047256.6004   24047251.0374
        44.0004         37.0004
  24400444.7184     299395.35543    264960.39942  24400445.4544   24400442.8764
        45.0004         38.0004
  23470404.1974     882764.18543    680919.27142  23470406.7944   23470401.8934
        49.0004         41.0004
  23908350.2694     875065.13243    675213.15442  23908350.5764   23908346.4604
        46.0004         41.0004
  22547409.2474     526334.22143    410897.10142  22547412.2844   22547407.3074
        51.0004         45.0004
  22009803.9894     404804.77043    319192.70842  22009807.8654   22009802.3734
        52.0004         45.0004
 04  6 23 14 52 40.0000000  0 11G22G21G18G17G 6G16G15G30G10G29G26
  24096289.5654     147132.37643    120097.53842  24096289.2674   24096283.8564
        46.0004         40.0004
  21211006.6374     417193.67344    326738.70442  21211008.0374   21211001.6074
        57.0004         49.0004
  21576700.0624     259673.26543    242416.01742  21576701.5824   21576695.8894
        56.0004         48.0004
  23723900.0694     822173.58343    629191.47042  23723900.8744   23723899.2454
        46.0004         40.0004
  20271192.0444     607113.00044    472468.66142  20271193.6614   20271188.3544
        58.0004         51.0004
  24040554.0724     355831.75843    284435.46042  24040555.7914   24040551.5364
        43.0004         38.0004
  24390786.7444     248643.43043    225413.46442  24390788.8874   24390785.9594
        45.0004         38.0004
  23483167.0074     949834.85143    733182.06242  23483169.1114   23483165.5174
        49.0004         41.0004
  23921643.0724     944911.77143    729639.03442  23921643.3084   23921639.0904
        47.0004         41.0004
  22546705.5244     522629.58243    408010.36142  22546707.3944   22546702.6234
        52.0004         45.0004
  22004733.6004     378148.75743    298421.79142  22004734.3104   22004730.5764
        52.0004         45.0004
 04  6 23 14 53  0.0000000  0 11G22G21G18G17G 6G16G15G30G10G29G26
  24083389.3194      79346.54543     67277.44142  24083391.9844   24083385.7724
        46.0004         40.0004
  21206517.8494     393603.63144    308356.85542  21206518.8044   21206512.7204
        57.0004         49.0004
  21567765.4714     212721.02343    205829.85842  21567766.9884   21567760.8704
        56.0004         48.0004
  23732308.3984     866358.39143    663621.14542  23732309.6914   23732305.6634
        45.0004         40.0004
  20273083.4644     617052.78844    480213.93442  20273085.3744   20273079.7104
        58.0004         51.0004
  24033894.2454     320831.15943    257162.28142  24033897.2884   24033890.2264
        46.0004         39.0004
  24381132.2054     197912.45943    185882.85342  24381135.6044   24381131.5314
        45.0004         38.0004
  23495934.5984    1016927.90843    785462.31742  23495937.7384   23495933.4734
        48.0004         41.0004
  23934939.8544    1014797.59743    784095.44742  23934942.7104   23934939.8794
        47.0004         41.0004
  22546046.8974     519166.49943    405311.85542  22546048.7854   22546043.6234
        52.0004         45.0004
  21999708.0784     351745.90343    277848.15742  21999711.2064   21999706.5074
        52.0004         45.0004
 04  6 23 14 53 20.0000000  0 11G22G21G18G17G 6G16G15G30G10G29G26
  24070506.9164      11639.64543     14518.83742  24070505.6184   24070501.6834
        46.0004         39.0004
  21202042.3524     370085.38944    290030.95142  21202043.7414   21202036.9424
        57.0004         49.0004
  21558863.0254     165938.65243    169376.06742  21558864.4424   21558858.7724
        56.0004         48.0004
  23740723.3134     910567.52943    698069.77742  23740722.1504   23740719.4204
        47.0004         40.0004
  20275014.8894     627202.94844    488123.13342  20275016.6744   20275011.2484
        58.0004         51.0004
  24027271.8904     286041.51743    230053.45842  24027273.4514   24027270.6654
        45.0004         39.0004
  24371481.4784     147202.52343    146368.63042  24371483.2434   24371481.6984
        45.0004         38.0004
  23508705.8564    1084042.77043    837759.54042  23508709.5274   23508704.2744
        48.0004         41.0004
  23948248.8354    1084722.26043    838582.17942  23948246.7774   23948244.8274
        47.0004         41.0004
  22545432.7074     515945.40643    402801.91542  22545435.5754   22545430.3704
        52.0004         45.0004
  21994733.4054     325597.29043    257472.62042  21994735.3524   21994729.9594
        52.0004         45.0004
 04  6 23 14 53 40.0000000  0 11G22G21G18G17G 6G16G15G30G10G29G26
  24057636.2174     -55989.33843    -38179.03442  24057637.8004   24057632.1334
        47.0004         39.0004
  21197580.3134     346637.11044    271759.56342  21197581.4164   21197575.2374
        57.0004         49.0004
  21549992.6904     119324.78643    133053.57942  21549994.2144   21549988.4824
        56.0004         49.0004
  23749138.3114     954799.35343    732536.06942  23749138.6484   23749136.1914
        46.0004         40.0004
  20276986.4324     637561.41844    496194.65342  20276987.8934   20276982.5594
        58.0004         51.0004
  24020692.2754     251461.65643    203108.12242  24020692.8034   24020688.6264
        47.0004         40.0004
  24361837.3404      96511.95243    106869.50042  24361839.0184   24361834.6344
        46.0004         38.0004
  23521481.1954    1151176.88743    890071.77942  23521483.3574   23521478.7524
        48.0004         41.0004
  23961562.8914    1154683.39943    893097.28542  23961562.6804   23961557.5024
        47.0004         41.0004
  22544866.7834     512964.89443    400479.42942  22544868.1374   22544863.3134
        52.0004         45.0004
  21989805.1164     299701.97943    237294.47042  21989807.6674   21989802.5694
        52.0004         45.0004
 04  6 23 14 54  0.0000000  0 11G22G21G18G17G 6G16G15G30G10G29G26
  24044782.4944    -123535.87643    -90812.69842  24044782.0204   24044777.2964
        47.0004         40.0004
  21193132.2824     323262.67344    253545.71542  21193133.5074   21193127.3574
        57.0004         49.0004
  21541155.4254      72883.72543     96865.74242  21541156.8464   21541151.1254
        56.0004         49.0004
  23757560.2204     999057.76943    767023.11542  23757560.6344   23757558.5504
        46.0004         40.0004
  20278997.8914     648132.96544    504432.20642  20278999.5444   20278994.3564
        58.0004         51.0004
  24014153.1744     217095.87243    176329.58442  24014155.3704   24014151.7254
        46.0004         40.0004
  24352194.4894      45844.62943     67388.46842  24352196.1244   24352194.4824
        45.0004         38.0004
  23534260.7144    1218333.41143    942401.47742  23534263.4514   23534258.7314
        48.0004         41.0004
  23974880.8194    1224684.23343    947643.32342  23974880.6274   23974878.6894
        46.0004         40.0004
  22544346.5964     510228.98143    398347.55742  22544347.3814   22544342.5804
        51.0004         45.0004
  21984926.8674     274064.71143    217317.39142  21984928.9284   21984924.1124
        52.0004         45.0004
 04  6 23 14 54 20.0000000  0 11G22G21G18G17G 6G16G15G30G10G29G26
  24031944.2164    -191002.18643   -143383.83542  24031944.6184   24031938.3694
        47.0004         40.0004
  21188697.9064     299959.64344    235387.50542  21188699.0554   21188692.7394
        57.0004         49.0004
  21532350.2444      26613.15143     60810.75342  21532351.7784   21532345.5704
        56.0004         49.0004
  23765987.5944    1043340.14543    801528.78542  23765987.1014   23765985.7044
        45.0004         39.0004
  20281049.6604     658914.65144    512833.50342  20281051.4104   20281046.0164
        58.0004         51.0004
  24007654.0534     182941.95443    149716.14542  24007655.2874   24007650.9984
        46.0004         40.0004
  24342557.4504      -4801.89143     27923.63942  24342559.8404   24342555.8684
        46.0004         38.0004
  23547044.1894    1285508.76543    994745.82842  23547046.5424   23547041.1324
        49.0004         41.0004
  23988209.9834    1294721.36743   1002217.65042  23988210.5184   23988208.2674
        46.0004         41.0004
  22543871.0694     507735.35543    396404.48542  22543872.8884   22543868.3524
        51.0004         44.0004
  21980096.6434     248683.31443    197539.69142  21980099.0814   21980094.2684
        52.0004         45.0004
 04  6 23 14 54 40.0000000  0 11G22G21G18G17G 6G16G15G30G10G29G26
  24019121.1484    -258389.83143   -195893.70842  24019120.3104   24019115.4584
        47.0004         39.0004
  21184276.6734     276725.96044    217283.33942  21184277.9384   21184271.5584
        57.0004         49.0004
  21523577.3414     -19488.77243     24887.17842  21523578.5394   21523573.1384
        56.0004         49.0004
  23774419.2514    1087644.48643    836051.61042  23774420.6404   23774416.7634
        47.0004         40.0004
  20283140.9324     669904.78144    521397.22142  20283142.6714   20283137.5984
        58.0004         51.0004
  24001195.8804     148998.35243    123266.60642  24001197.0034   24001191.6554
        47.0004         40.0004
  24332922.2334     -55429.73443    -11526.63142  24332924.9354   24332923.9474
        44.0004         38.0004
  23559830.0154    1352700.06443   1047102.63142  23559831.3314   23559827.9024
        49.0004         39.0004
  24001543.7074    1364792.13643   1056818.19742  24001545.0144   24001542.0934
        47.0004         40.0004
  22543442.1344     505482.06643    394648.66842  22543444.5904   22543439.2944
        51.0004         45.0004
  21975315.5554     223556.50343    177960.37242  21975316.7934   21975313.1444
        52.0004         45.0004
 04  6 23 14 55  0.0000000  0 11G22G21G18G17G 6G16G15G30G10G29G26
  24006312.7004    -325695.85443   -248339.92242  24006313.0164   24006308.4494
        47.0004         40.0004
  21179869.0824     253564.21844    199235.22542  21179870.4464   21179864.3394
        57.0004         49.0004
  21514837.1444     -65418.95143    -10902.56842  21514838.9944   21514833.1544
        56.0004         49.0004
  23782852.7464    1131973.10443    870593.31342  23782854.5224   23782851.1864
        45.0004         39.0004
  20285272.5944     681105.77444    530125.25442  20285274.2784   20285268.7504
        58.0004         51.0004
  23994776.7694     115267.90043     96983.11942  23994778.1754   23994773.4124
        47.0004         40.0004
  24323293.7784    -106036.49143    -50960.43842  24323294.5614   24323292.3884
        45.0004         38.0004
  23572619.5994    1419909.01243   1099473.21042  23572621.6444   23572618.2584
        49.0004         41.0004
  24014883.9414    1434898.13843   1111446.20442  24014883.1404   24014883.0714
        46.0004         40.0004
  22543060.0584     503471.88343    393082.28842  22543061.4224   22543056.8344
        52.0004         45.0004
  21970581.4074     198687.37043    158581.82242  21970585.0454   21970580.1364
        51.0004         45.0004
 04  6 23 14 55 20.0000000  0 11G22G21G18G17G 6G16G15G30G10G29G26
  23993520.4904    -392919.86343   -300722.26342  23993521.9394   23993517.1444
        48.0004         40.0004
  21175475.2104     230474.02844    181242.86642  21175476.3864   21175469.8304
        57.0004         49.0004
  21506129.6024    -111177.50743    -46558.57942  21506131.0794   21506125.2134
        56.0004         49.0004
  23791294.7984    1176326.00843    905153.98442  23791294.9764   23791291.4804
        46.0004         40.0004
  20287444.2094     692517.84144    539017.75842  20287445.7434   20287440.6554
        58.0004         51.0004
  23988399.0394      81750.90843     70865.99142  23988399.9894   23988394.1294
        46.0004         40.0004
  24313667.7354    -156622.48243    -90378.08742  24313668.4284   24313666.1494
        45.0004         38.0004
  23585411.8404    1487134.39243   1151856.57442  23585413.5254   23585410.9544
        48.0004         41.0004
  24028230.4054    1505038.69643   1166101.10042  24028231.9824   24028228.6654
        46.0004         40.0004
  22542723.1554     501704.80943    391705.34942  22542725.9114   22542720.7874
        51.0004         45.0004
  21965899.4514     174076.50943    139404.54942  21965901.8814   21965897.3684
        52.0004         45.0004
 04  6 23 14 55 40.0000000  0 11G22G21G18G17G 6G16G15G30G10G29G26
  23980744.4674    -460059.51743   -353038.87442  23980744.4394   23980740.5734
        48.0004         40.0004
  21171095.2874     207457.24744    163307.71342  21171096.7624   21171090.0544
        57.0004         49.0004
  21497455.1104    -156762.25643    -82079.15142  21497456.7484   21497451.0564
        56.0004         49.0004
  23799738.6374    1220704.91043    939734.90442  23799739.9184   23799736.8034
        46.0004         39.0004
  20289656.1464     704142.49644    548075.91842  20289658.0664   20289652.7444
        58.0004         51.0004
  23982061.9494      48449.42843     44916.78442  23982063.3764   23982059.1534
        47.0004         41.0004
  24304045.5074    -207185.94343   -129778.15742  24304046.2954   24304043.5514
        44.0004         37.0004
  23598207.9384    1554377.32943   1204253.61742  23598209.1824   23598205.8584
        49.0004         41.0004
  24041584.8774    1575214.83543   1220783.74642  24041586.8774   24041583.3824
        46.0004         40.0004
  22542434.0834     500182.89443    390519.43342  22542435.8054   22542431.5064
        51.0004         45.0004
  21961266.5684     149726.25143    120430.32242  21961268.5414   21961263.6414
        52.0004         45.0004
 04  6 23 14 56  0.0000000  0 11G22G21G18G17G 6G16G15G30G10G29G26
  23967983.8814    -527119.06043   -405293.06542  23967984.4504   23967978.5774
        48.0004         41.0004
  21166728.4774     184509.28244    145426.17842  21166729.7154   21166723.2044
        57.0004         49.0004
  21488813.0044    -202177.57843   -117467.70542  21488814.5024   21488808.2894
        56.0004         49.0004
  23808188.0074    1265105.02743    974332.34542  23808188.7114   23808185.0494
        46.0004         40.0004
  20291908.1104     715975.57244    557296.48042  20291909.9264   20291904.6954
        58.0004         51.0004
  23975765.1284      15359.20743     19132.20042  23975767.3574   23975761.1184
        47.0004         40.0004
  24294426.4544    -257731.56843   -169164.33842  24294428.8324   24294426.1074
        45.0004         38.0004
  23611006.2694    1621632.23943   1256659.98642  23611008.6504   23611005.7604
        48.0004         40.0004
  24054943.8534    1645421.15243   1275489.92042  24054945.1464   24054945.4194
        46.0004         40.0004
  22542189.1934     498901.48743    389520.94742  22542191.7084   22542187.0274
        51.0004         45.0004
  21956682.0494     125632.57943    101656.04942  21956682.8864   21956678.3524
        52.0004         45.0004
 04  6 23 14 56 20.0000000  0 11G22G21G18G17G 6G16G15G30G10G29G26
  23955238.7394    -594093.42243   -457480.87442  23955239.6224   23955234.5994
        48.0004         41.0004
  21162375.3574     161634.48344    127601.65842  21162376.8154   21162370.4054
        57.0004         49.0004
  21480203.8054    -247418.78143   -152720.58042  21480205.2574   21480199.8474
        56.0004         49.0004
  23816641.0074    1309530.94443   1008949.88842  23816643.0624   23816640.1054
        45.0004         39.0004
  20294200.6054     728021.90844    566683.22642  20294202.2944   20294196.8844
        58.0004         51.0004
  23969509.5404     -17514.75343     -6483.87942  23969509.4484   23969504.8534
        47.0004         41.0004
  24284813.4864    -308254.84243   -208533.10642  24284815.4284   24284812.8234
        45.0004         38.0004
  23623807.2604    1688902.58143   1309078.37942  23623809.8224   23623805.2644
        47.0004         41.0004
  24068310.7604    1715661.41743   1330222.53542  24068312.7674   24068311.1634
        47.0004         39.0004
  22541992.6994     497865.42443    388713.61342  22541994.8524   22541989.6314
        51.0004         45.0004
  21952145.6334     101800.60543     83085.69342  21952147.5694   21952143.0214
        52.0004         45.0004
 04  6 23 14 56 40.0000000  0 11G22G21G18G17G 6G16G15G30G10G29G26
  23942510.0684    -660983.82343   -509603.28242  23942509.7914   23942504.5244
        48.0004         40.0004
  21158036.1974     138831.20144    109832.86742  21158037.3474   21158030.9774
        57.0004         49.0004
  21471627.4974    -292487.00043   -187838.67142  21471628.8144   21471623.4104
        56.0004         49.0004
  23825100.6374    1353981.00943   1043586.25542  23825101.3524   23825097.6284
        45.0004         39.0004
  20296532.8714     740279.54344    576234.61642  20296534.8194   20296529.4914
        58.0004         51.0004
  23963294.4444     -50173.70943    -31932.39642  23963295.9634   23963292.5434
        48.0004         40.0004
  24275203.7224    -358757.41043   -247885.71842  24275205.4534   24275200.3964
        44.0004         37.0004
  23636610.8484    1756186.00143   1361506.96742  23636613.4864   23636609.8154
        48.0004         41.0004
  24081682.2824    1785933.39643   1384979.88642  24081682.3824   24081682.3064
        45.0004         39.0004
  22541842.4794     497073.12243    388096.24042  22541844.0314   22541839.8304
        52.0004         45.0004
  21947660.1844      78229.35843     64718.49442  21947662.9844   21947657.6114
        52.0004         45.0004
 04  6 23 14 57  0.0000000  0 11G22G21G18G17G 6G16G15G30G10G29G26
  23929797.6784    -727786.51843   -561657.31442  23929798.8964   23929792.5554
        49.0004         41.0004
  21153710.9234     116102.65243     92122.31142  21153712.3794   21153706.2454
        56.0004         49.0004
  21463085.0284    -337378.75144   -222819.25342  21463086.6814   21463080.7024
        57.0004         49.0004
  23833563.7974    1398458.43243   1078243.94242  23833564.2444   23833561.4654
        44.0004         39.0004
  20298906.6434     752752.08444    585953.46742  20298908.4634   20298902.8194
        58.0004         51.0004
  23957121.7094     -82614.08743    -57210.61442  23957122.2364   23957117.2524
        43.0004         39.0004
  24265597.3274   -1984656.02853  -1514819.67852  24265596.7024   24265595.5134
        43.0004         37.0004
  23649417.6324    1823484.84143   1413947.54542  23649419.1664   23649417.2814
        47.0004         41.0004
  24095060.9564    1856239.39043   1439763.75042  24095062.7184   24095060.1474
        45.0004         39.0004
  22541738.4494     496527.88343    387671.36342  22541740.6604   22541735.3194
        51.0004         45.0004
  21943226.3784      54922.62143     46557.42542  21943226.5954   21943223.2864
        53.0004         45.0004
 04  6 23 14 57 20.0000000  0 10G22G21G18G17G 6G16G30G10G29G26
  23917101.3994    -794505.73843   -613646.30542  23917102.1284   23917096.3334
        48.0004         41.0004
  21149399.4724      93443.97244     74466.18142  21149400.6954   21149394.0124
        57.0004         50.0004
  21454575.2554    -382098.26944   -257665.63442  21454576.3824   21454570.8664
        57.0004         49.0004
  23842032.9614    1442958.52443   1112919.28642  23842032.2334   23842029.7754
        44.0004         38.0004
  20301319.8544     765434.72944    595836.02942  20301321.6394   20301316.1894
        58.0004         51.0004
  23950987.5914   -1690259.96853  -1309921.70252  23950988.6894   23950985.0204
        46.0004         39.0004
  23662226.7704    1890793.59443   1466395.81842  23662228.5254   23662225.3604
        48.0004         41.0004
  24108446.6154    1926574.26843   1494570.08342  24108448.4534   24108444.2104
        46.0004         39.0004
  22541680.2544     496225.33743    387435.60842  22541682.4054   22541678.0114
        51.0004         45.0004
  21938839.3054      31876.52243     28599.42442  21938842.1144   21938837.1664
        52.0004         45.0004
 04  6 23 14 57 40.0000000  0 10G22G21G18G17G 6G16G30G10G29G26
  23904420.8114    -861143.15543   -665571.55342  23904421.4274   23904414.9404
        48.0004         41.0004
  21145100.3534      70853.32444     56863.07942  21145101.7354   21145095.6954
        57.0004         50.0004
  21446097.6844    -426647.78443   -292379.53142  21446098.9954   21446093.2384
        56.0004         49.0004
  23850503.7434    1487478.93643   1147610.48342  23850505.1664   23850503.1974
        45.0004         38.0004
  20303772.8754     778325.28444    605880.60842  20303774.6674   20303769.2074
        58.0004         51.0004
  23944896.0004   -1722273.45443  -1334867.28042  23944897.2924   23944894.0974
        46.0004         40.0004
  23675036.3204    1958108.95143   1518849.29342  23675039.2234   23675033.6994
        48.0004         41.0004
  24121834.8294    1996934.79543   1549396.43842  24121836.6004   24121833.7724
        46.0004         39.0004
  22541669.8194     496163.20043    387387.17442  22541670.9634   22541666.1914
        51.0004         45.0004
  21934503.2424       9089.15643     10843.06042  21934505.5354   21934501.3174
        52.0004         45.0004
 04  6 23 14 58  0.0000000  0 10G22G21G18G17G 6G16G30G10G29G26
  23891756.4274    -927693.69643   -717429.14442  23891756.9374   23891752.6674
        49.0004         41.0004
  21140815.2754      48335.35944     39316.60842  21140816.5594   21140810.2414
        57.0004         50.0004
  21437653.5174    -471022.29643   -326957.04742  21437655.0964   21437649.0304
        56.0004         49.0004
  23858981.7774    1532024.35143   1182321.11642  23858981.9424   23858979.6774
        45.0004         39.0004
  20306266.3634     791428.80144    616091.12542  20306268.2934   20306262.6264
        58.0004         51.0004
  23938846.3254   -1754069.59643  -1359643.49242  23938847.0914   23938843.3284
        46.0004         40.0004
  23687848.2574    2025434.73643   1571310.88742  23687850.8964   23687846.2134
        48.0004         42.0004
  24135231.5304    2067325.03743   1604245.91742  24135230.8394   24135229.8644
        45.0004         39.0004
  22541704.9494     496346.47443    387529.98842  22541706.2164   22541700.0244
        51.0004         45.0004
  21930218.0634     -13434.05143     -6707.47842  21930219.8704   21930214.9474
        53.0004         45.0004
 04  6 23 14 58 20.0000000  0 10G22G21G18G17G 6G16G30G10G29G26
  23879108.7894    -994157.50143   -769219.04942  23879110.2004   23879103.3434
        49.0004         41.0004
  21136544.0004      25888.98344     21825.93042  21136545.2794   21136539.0234
        57.0004         50.0004
  21429242.5254    -515222.29943   -361398.60242  21429243.9684   21429238.1344
        56.0004         49.0004
  23867463.5644    1576593.96443   1217050.62942  23867463.1314   23867459.9284
        46.0004         39.0004
  20308800.3384     804744.73244    626467.16142  20308802.2124   20308796.8654
        58.0004         51.0004
  23932837.3324   -1785648.79443  -1384250.66242  23932838.1374   23932833.2924
        45.0004         40.0004
  23700661.4684    2092769.43743   1623779.41742  23700664.5774   23700659.2684
        48.0004         41.0004
  24148633.2864    2137743.50943   1659117.42042  24148632.1044   24148630.5454
        47.0004         40.0004
  22541785.3754     496774.29243    387863.33542  22541787.4754   22541782.7884
        51.0004         45.0004
  21925980.9904     -35693.34943    -24052.37542  21925983.7984   21925979.0874
        53.0004         45.0004
 04  6 23 14 58 40.0000000  0 11G22G21G18G17G 6G16G15G30G10G29G26
  23866477.6014   -1060535.77343   -820942.38642  23866476.7834   23866472.9384
        48.0004         41.0004
  21132285.9174       3512.72244      4389.89342  21132287.2744   21132280.6754
        57.0004         49.0004
  21420864.4454    -559249.09143   -395705.19842  21420865.8344   21420859.8884
        56.0004         49.0004
  23875947.2624    1621186.25443   1251797.82442  23875948.2814   23875944.6894
        44.0004         38.0004
  20311374.2564     818271.20544    637007.24642  20311376.2314   20311371.0324
        58.0004         51.0004
  23926868.5854   -1817012.26053  -1408689.68752  23926871.0294   23926865.3304
        48.0004         40.0004
  24217629.181
        44.000
  23713476.1124    2160110.51743   1676252.88042  23713476.6194   23713474.0254
        47.0004         41.0004
  24162038.0604    2208187.98343   1714009.14542  24162038.7784   24162032.7274
        48.0004         40.0004
  22541914.2274     497445.32443    388386.22142  22541915.3304   22541910.2834
        52.0004         45.0004
  21921796.4424     -57689.84343    -41192.47142  21921798.4974   21921793.4104
        53.0004         46.0004
 04  6 23 14 59  0.0000000  0 11G22G21G18G17G 6G16G15G30G10G29G26
  23853862.4154   -1126826.79043   -872597.72042  23853862.9634   23853857.1954
        48.0004         41.0004
  21128041.3574     -18791.96544    -12990.38242  21128042.9894   21128036.3244
        57.0004         49.0004
  21412519.7784    -603100.91143   -429875.44342  21412521.0874   21412515.4224
        56.0004         49.0004
  23884439.2104    1665802.53243   1286563.67442  23884438.2894   23884437.6404
        45.0004         39.0004
  20313988.7474     832009.70644    647712.55342  20313990.7224   20313985.1434
        58.0004         51.0004
  23920940.8164   -1848158.04943  -1432959.14642  23920942.6804   23920938.4354
        47.0004         41.0004
  24208037.0504    -981015.45353   -760172.41352  24208040.9334   24208039.0734
        45.0004         39.0004
  23726291.7204    2227458.49343   1728731.76842  23726294.8254   23726289.6584
        47.0004         41.0004
  24175447.2564    2278659.13143   1768921.67242  24175448.2184   24175445.3284
        48.0004         40.0004
  22542086.9404     498360.90743    389099.64942  22542089.4514   22542084.5584
        51.0004         45.0004
  21917660.3794     -79421.42243    -58126.16542  21917662.4434   21917658.2724
        52.0004         46.0004
 04  6 23 14 59 20.0000000  0 11G22G21G18G17G 6G16G15G30G10G29G26
  23841264.7034   -1193030.78743   -924185.23642  23841264.8404   23841260.2264
        49.0004         41.0004
  21123810.4584     -41025.98044    -30315.58842  21123811.7814   21123805.3214
        57.0004         49.0004
  21404208.1664    -646778.14543   -463909.64642  21404210.0834   21404203.6574
        56.0004         49.0004
  23892932.7234    1710442.03643   1321347.65342  23892935.9304   23892933.0024
        45.0004         38.0004
  20316643.2494     845959.51044    658582.51442  20316645.0734   20316639.7144
        58.0004         51.0004
  23915055.8984   -1879086.71643  -1457059.40342  23915057.1254   23915052.3284
        47.0004         41.0004
  24198457.3734   -1031357.20943   -799399.72142  24198459.9064   24198458.9454
        45.0004         39.0004
  23739108.9764    2294811.80443   1781214.80042  23739111.4804   23739107.9954
        48.0004         41.0004
  24188862.6964    2349155.53043   1823853.87242  24188863.3494   24188862.2984
        47.0004         40.0004
  22542307.4704     499520.55843    390003.26442  22542309.7514   22542305.2844
        51.0004         44.0004
  21913575.6774    -100888.17943    -74853.50142  21913577.8564   21913572.8224
        52.0004         46.0004
 04  6 23 14 59 40.0000000  0 11G22G21G18G17G 6G16G15G30G10G29G26
  23828683.5384   -1259143.64143   -975701.75242  23828681.4254   23828677.3654
        49.0004         42.0004
  21119593.6194     -63185.59644    -47582.82642  21119595.2734   21119588.1704
        57.0004         49.0004
  21395930.6404    -690277.13643   -497804.95842  21395932.0414   21395926.5554
        56.0004         49.0004
  23901432.6034    1755108.35743   1356152.52342  23901434.8474   23901431.1914
        45.0004         39.0004
  20319338.9194     860124.69844    669620.30442  20319340.4744   20319335.2314
        58.0004         51.0004
  23909214.0004   -1909794.19443  -1480987.30142  23909214.9684   23909208.6374
        48.0004         41.0004
  24188882.7724   -1081675.86043   -838609.03342  24188884.5404   24188883.2014
        45.0004         39.0004
  23751927.2044    2362173.17543   1833704.11742  23751929.5574   23751923.3724
        47.0004         41.0004
  24202281.9044    2419680.15643   1878808.07342  24202284.0784   24202280.5204
        47.0004         40.0004
  22542575.9654     500928.09643    391100.04242  22542577.5724   22542573.3404
        52.0004         44.0004
  21909541.7844    -122086.14043    -91371.39042  21909544.0554   21909538.9224
        53.0004         46.0004
 04  6 23 15  0  0.0000000  0 11G22G21G18G17G 6G16G15G30G10G29G26
  23816120.1754   -1325166.16643  -1027147.87242  23816120.1224   23816113.9704
        48.0004         41.0004
  21115390.7534     -85272.26444    -64793.21942  21115392.2924   21115385.2134
        57.0004         49.0004
  21387686.7834    -733599.00044   -531562.24942  21387688.2664   21387682.3514
        57.0004         49.0004
  23909938.3204    1799800.21943   1390977.28442  23909939.4664   23909935.0994
        46.0004         39.0004
  20322075.1214     874503.76544    680824.76042  20322076.9134   20322071.7384
        58.0004         51.0004
  23903411.2564   -1940281.65843  -1504743.77742  23903413.1684   23903408.2094
        47.0004         41.0004
  24179311.6634   -1131972.84843   -877801.46342  24179313.8694   24179311.6504
        46.0004         39.0004
  23764746.8074    2429540.37343   1886197.96142  23764747.9814   23764745.3104
        47.0004         41.0004
  24215707.6434    2490230.77043   1933782.52142  24215708.4174   24215705.9494
        46.0004         40.0004
  22542890.9204     502582.08243    392388.84942  22542892.5134   22542887.5234
        51.0004         45.0004
  21905558.8174    -143015.90543   -107680.28042  21905561.0674   21905556.5994
        52.0004         46.0004
 04  6 23 15  0 20.0000000  0 11G22G21G18G17G 6G16G15G30G10G29G26
  23803572.4864   -1391102.47843  -1078526.80042  23803574.1584   23803566.8734
        49.0004         41.0004
  21111200.7694    -107290.55744    -81950.33342  21111201.9434   21111195.6274
        57.0004         49.0004
  21379475.9384    -776747.76243   -565184.65542  21379477.0524   21379471.0634
        56.0004         49.0004
  23918445.8224    1844512.91543   1425818.29642  23918447.5114   23918442.3114
        45.0004         39.0004
  20324851.1534     889091.85444    692192.08842  20324853.0304   20324847.6064
        58.0004         51.0004
  23897651.6284   -1970553.26143  -1528332.04842  23897653.3884   23897647.0514
        48.0004         41.0004
  24169744.9584   -1182252.81443   -916980.62242  24169746.9064   24169742.7924
        46.0004         40.0004
  23777566.4684    2496907.95143   1938692.10442  23777568.2924   23777566.2244
        47.0004         41.0004
  24229136.8304    2560802.09843   1988773.10442  24229136.3764   24229136.9874
        46.0004         40.0004
  22543251.2834     504478.09543    393866.25342  22543253.2644   22543248.3204
        51.0004         45.0004
  21901625.4204    -163681.64943   -123783.44442  21901628.3104   21901623.3524
        52.0004         46.0004
 04  6 23 15  0 40.0000000  0 11G22G21G18G17G 6G16G15G30G10G29G26
  23791043.3414   -1456947.39443  -1129834.50542  23791042.9964   23791036.9384
        48.0004         42.0004
  21107024.7314    -129235.89644    -99050.60542  21107025.9254   21107019.4644
        57.0004         49.0004
  21371298.8814    -819718.55643   -598668.38842  21371300.2004   21371294.4904
        56.0004         49.0004
  23926959.5544    1889251.27443   1460679.29442  23926960.0734   23926958.5544
        45.0004         39.0004
  20327667.8714     903894.15744    703726.33342  20327669.7704   20327664.5464
        58.0004         51.0004
  23891932.3514   -2000603.92743  -1551748.14742  23891933.3314   23891929.0624
        47.0004         41.0004
  24160180.9624   -1232511.13243   -956142.92042  24160181.9614   24160179.8774
        45.0004         39.0004
  23790387.1144    2564279.74243   1991189.53442  23790389.3954   23790386.4254
        47.0004         41.0004
  24242570.9694    2631398.32843   2043783.11042  24242572.8334   24242570.5414
        46.0004         40.0004
  22543659.6514     506620.97143    395536.02642  22543661.1164   22543656.4084
        52.0004         45.0004
  21897746.2664    -184078.04043   -139676.71942  21897746.8814   21897742.4824
        53.0004         46.0004
 04  6 23 15  1  0.0000000  0 11G22G21G18G17G 6G16G15G30G10G29G26
  23778530.6844   -1522701.58743  -1181071.53042  23778532.2104   23778525.0364
        48.0004         42.0004
  21102862.3964    -151109.05044   -116094.62842  21102863.5414   21102856.9944
        57.0004         49.0004
  21363155.4074    -862512.37043   -632014.21542  21363156.8894   21363151.0234
        56.0004         49.0004
  23935477.6914    1934014.04143   1495559.31842  23935479.7074   23935475.4984
        45.0004         39.0004
  20330525.3134     918909.61244    715426.67142  20330526.8774   20330522.0914
        58.0004         51.0004
  23886255.3364   -2030434.42143  -1574992.70142  23886256.8984   23886252.5734
        48.0004         41.0004
  24150621.0204   -1282748.82943   -995289.16242  24150623.2704   24150619.5544
        46.0004         39.0004
  23803208.4044    2631653.86443   2043688.77942  23803211.8274   23803206.9204
        48.0004         41.0004
  24256010.2084    2702017.60943   2098811.07642  24256009.8794   24256006.3154
        46.0004         40.0004
  22544113.5774     509009.75443    397397.39642  22544116.0214   22544111.0024
        51.0004         45.0004
  21893914.3414    -204205.60243   -155360.52742  21893917.4444   21893912.3514
        52.0004         46.0004
 04  6 23 15  1 20.0000000  0 11G22G21G18G17G 6G16G15G30G10G29G26
  23766035.0824   -1588365.73743  -1232238.37342  23766034.0594   23766030.8644
        48.0004         42.0004
  21098713.7254    -172911.39044   -133083.46842  21098715.0484   21098708.5084
        57.0004         49.0004
  21355045.4364    -905130.22144   -665222.92242  21355047.0314   21355041.0384
        57.0004         49.0004
  23944000.3574    1978800.08143   1530457.49142  23944000.0624   23943998.4854
        45.0004         39.0004
  20333422.9764     934136.95044    727292.11542  20333424.8764   20333419.7454
        58.0004         51.0004
  23880621.3774   -2060045.74443  -1598066.48142  23880621.5184   23880617.0124
        48.0004         41.0004
  24141065.3584   -1332967.13543  -1034420.29242  24141066.3714   24141063.1864
        47.0004         39.0004
  23816029.0734    2699028.16643   2096188.16942  23816030.7324   23816027.2304
        48.0004         41.0004
  24269452.3934    2772658.07243   2153855.51042  24269452.8234   24269449.8894
        47.0004         40.0004
  22544614.7004     511643.19543    399449.42142  22544617.1114   22544612.0154
        51.0004         45.0004
  21890137.1064    -224065.01243   -170835.37742  21890138.1834   21890133.0984
        53.0004         45.0004
 04  6 23 15  1 40.0000000  0 11G22G21G18G17G 6G16G15G30G10G29G26
  23753557.1914   -1653935.62943  -1283331.77142  23753558.5094   23753552.8304
        48.0004         42.0004
  21094579.1054    -194639.27644   -150014.29542  21094580.2264   21094574.0914
        57.0004         49.0004
  21346969.7824    -947568.16243   -698291.44442  21346971.3284   21346965.5934
        56.0004         49.0004
  23952527.9294    2023613.09143   1565376.65242  23952528.9864   23952526.9464
        46.0004         39.0004
  20336361.9074     949579.93944    739325.60042  20336363.5804   20336358.2174
        58.0004         51.0004
  23875028.5314   -2089433.80743  -1620966.26042  23875030.7224   23875025.1844
        48.0004         41.0004
  24131512.8794   -1383162.47043  -1073533.52642  24131514.3564   24131512.0734
        45.0004         39.0004
  23828850.6284    2766405.39343   2148689.83342  23828852.5124   23828848.3464
        48.0004         41.0004
  24282898.4144    2843322.64943   2208918.82242  24282899.8914   24282897.7364
        47.0004         41.0004
  22545163.6134     514525.04943    401695.00942  22545165.1914   22545160.7444
        52.0004         45.0004
  21886407.4144    -243652.05743   -186098.00842  21886410.0844   21886405.3494
        52.0004         46.0004
 04  6 23 15  2  0.0000000  0 11G22G21G18G17G 6G16G15G30G10G29G26
  23741096.4554   -1719416.35143  -1334355.69342  23741097.3904   23741092.0494
        48.0004         42.0004
  21090457.5124    -216298.16144   -166891.35142  21090458.8174   21090452.2224
        57.0004         50.0004
  21338927.3804    -989831.04344   -731223.55342  21338929.0214   21338923.0294
        57.0004         49.0004
  23961060.0284    2068447.58643   1600312.58642  23961061.4204   23961059.0554
        42.0004         37.0004
  20339340.4914     965233.29944    751523.00542  20339342.3494   20339337.1204
        58.0004         51.0004
  23869477.0874   -2118603.59943  -1643695.97442  23869479.4214   23869474.8234
        48.0004         41.0004
  24121964.6044   -1433340.21143  -1112633.05742  24121964.2804   24121961.2034
        45.0004         39.0004
  23841671.7794    2833779.44943   2201189.02542  23841674.2104   23841669.3124
        48.0004         41.0004
  24296349.5054    2914005.29043   2263996.12742  24296350.3594   24296347.0954
        48.0004         41.0004
  22545758.2884     517649.96743    404129.99942  22545760.4244   22545755.4184
        52.0004         45.0004
  21882731.6224    -262971.56843   -201152.15442  21882734.0374   21882729.2694
        53.0004         45.0004
 04  6 23 15  2 20.0000000  0 11G22G21G18G17G 6G16G15G30G10G29G26
  23728653.7264   -1784804.15343  -1385307.20842  23728654.7964   23728648.2414
        49.0004         42.0004
  21086349.4764    -237884.69544   -183712.02942  21086351.0894   21086344.2464
        57.0004         50.0004
  21330919.0134   -1031915.59444   -764016.70742  21330920.4904   21330914.6164
        57.0004         49.0004
  23969596.8254    2113306.63843   1635267.60242  23969597.3464   23969596.0164
        45.0004         39.0004
  20342359.8104     981100.11144    763886.72942  20342361.8034   20342356.1544
        58.0004         51.0004
  23863970.3974   -2147551.65643  -1666252.92342  23863972.2054   23863964.2914
        49.0004         41.0004
  24112420.4274   -1483497.37743  -1151716.55642  24112420.5424   24112417.5944
        45.0004         39.0004
  23854492.4104    2901152.53843   2253687.46742  23854493.5614   23854491.3494
        48.0004         41.0004
  24309803.8504    2984708.38343   2319089.39742  24309803.8734   24309801.5844
        45.0004         39.0004
  22546398.7524     521021.32743    406757.02442  22546401.1074   22546397.2734
        52.0004         45.0004
  21879108.4334    -282019.87843   -215994.99642  21879109.8334   21879104.8984
        53.0004         45.0004
 04  6 23 15  2 40.0000000  0 11G22G21G18G17G 6G16G15G30G10G29G26
  23716228.8074   -1850096.82743  -1436184.59842  23716228.6274   23716224.8184
        49.0004         42.0004
  21082255.9274    -259397.30944   -200475.10642  21082257.2074   21082250.3984
        57.0004         50.0004
  21322944.8494   -1073819.76343   -796669.29942  21322946.6254   21322940.5894
        56.0004         49.0004
  23978137.6634    2158192.21743   1670243.36142  23978139.9104   23978135.1594
        43.0004         37.0004
  20345420.0734     997182.33444    776418.31842  20345422.0774   20345416.7054
        58.0004         51.0004
  23858503.5764   -2176276.01743  -1688635.54642  23858505.5274   23858499.9044
        48.0004         41.0004
  24102879.7044   -1533632.12743  -1190782.57142  24102880.2824   24102876.9634
        46.0004         39.0004
  23867312.6244    2968525.60043   2306185.88742  23867314.9884   23867310.5664
        47.0004         41.0004
  24323261.8124    3055433.12943   2374199.55242  24323262.3424   24323259.8534
        46.0004         40.0004
  22547088.2664     524640.83743    409577.39742  22547090.2034   22547085.2584
        51.0004         45.0004
  21875534.6114    -300794.74643   -230624.75642  21875536.4794   21875532.1864
        53.0004         46.0004
 04  6 23 15  3  0.0000000  0 11G22G21G18G17G 6G16G15G30G10G29G26
  23703821.4754   -1915297.76043  -1486990.49342  23703822.5104   23703817.4194
        48.0004         42.0004
  21078175.4994    -280839.41744   -217183.24142  21078177.1034   21078170.2864
        57.0004         50.0004
  21315004.3794   -1115547.11144   -829184.11442  21315006.0814   21314999.8104
        57.0004         49.0004
  23986683.2054    2203100.39143   1705236.62542  23986684.2644   23986681.2444
        43.0004         38.0004
  20348520.8354    1013476.22944    789114.84542  20348522.6454   20348517.2944
        58.0004         51.0004
  23853077.6134   -2204780.15543  -1710846.56342  23853081.1134   23853075.6644
        47.0004         40.0004
  24093341.4924   -1583748.32243  -1229834.14442  24093342.4244   24093341.9914
        45.0004         39.0004
  23880132.8074    3035894.03443   2358680.67942  23880136.0254   23880131.3944
        47.0004         40.0004
  24336723.9894    3126175.13643   2429323.14142  24336724.8834   24336723.4634
        46.0004         40.0004
  22547823.7494     528504.90043    412588.34742  22547825.9304   22547820.9334
        52.0004         45.0004
  21872012.5654    -319299.35343   -245043.92742  21872015.3464   21872010.6134
        53.0004         46.0004
 04  6 23 15  3 20.0000000  0 11G22G21G18G17G 6G16G15G30G10G29G26
  23691432.6634   -1980403.36143  -1537722.11342  23691433.4814   23691427.4604
        48.0004         42.0004
  21074109.3144    -302208.20144   -233834.24542  21074110.6754   21074104.0114
        57.0004         50.0004
  21307098.3044   -1157094.47444   -861558.67642  21307099.7534   21307093.7274
        57.0004         49.0004
  23995233.5874    2248034.27843   1740250.02642  23995235.9634   23995232.4424
        45.0004         39.0004
  20351662.4954    1029984.94044    801978.75242  20351664.1994   20351659.1164
        58.0004         51.0004
  23847697.6674   -2233060.53243  -1732883.25342  23847700.2434   23847694.8624
        48.0004         41.0004
  24083809.8524   -1633842.85443  -1268868.81942  24083809.5774   24083806.4264
        45.0004         39.0004
  23892951.5084    3103260.16743   2411173.70242  23892954.7394   23892949.7194
        48.0004         40.0004
  24350190.1264    3196936.68243   2484461.93742  24350190.6644   24350188.7094
        47.0004         39.0004
  22548606.4614     532616.59743    415792.25842  22548608.0964   22548603.5234
        52.0004         45.0004
  21868544.4794    -337529.95343   -259249.58442  21868546.2244   21868541.4664
        53.0004         46.0004
 04  6 23 15  3 40.0000000  0 11G22G21G18G17G 6G16G15G30G10G29G26
  23679061.2274   -2045415.09243  -1588380.57442  23679061.2974   23679057.2084
        49.0004         41.0004
  21070056.6124    -323505.61844   -250429.63642  21070057.9244   21070051.2214
        57.0004         50.0004
  21299225.9224   -1198463.34143   -893794.15342  21299227.6094   21299221.7414
        56.0004         49.0004
  24003788.9154    2292992.06043   1775281.96642  24003789.4764   24003787.8684
        45.0004         39.0004
  20354844.2884    1046706.42544    815008.46542  20354846.2344   20354840.8374
        58.0004         51.0004
  23842358.9204   -2261118.78743  -1754746.84742  23842359.5304   23842355.7124
        47.0004         41.0004
  24074280.8074   -1683917.84343  -1307888.27242  24074281.2634   24074280.0834
        45.0004         39.0004
  23905770.4154    3170620.98143   2463662.58442  23905772.2554   23905769.1474
        48.0004         40.0004
  24363658.5354    3267714.96243   2539613.83542  24363659.5144   24363659.2024
        46.0004         39.0004
  22549434.1714     536974.13043    419187.73542  22549437.0154   22549432.4454
        51.0004         45.0004
  21865126.1594    -355488.26843   -273243.07942  21865128.7914   21865123.9984
        52.0004         46.0004
 04  6 23 15  4  0.0000000  0 11G22G21G18G17G 6G16G15G30G10G29G26
  23666707.9964   -2110332.19343  -1638965.30642  23666708.3634   23666703.0294
        48.0004         42.0004
  21066017.3954    -344731.20444   -266969.05542  21066018.8794   21066012.4704
        57.0004         50.0004
  21291387.7764   -1239653.34143   -925890.25042  21291389.2714   21291383.7724
        56.0004         49.0004
  24012349.0784    2337973.95043   1810332.75942  24012350.4724   24012348.3884
        45.0004         39.0004
  20358066.8714    1063641.22544    828204.39742  20358068.7934   20358063.5754
        58.0004         51.0004
  23837061.1214   -2288954.32543  -1776436.87142  23837063.1204   23837058.2704
        48.0004         41.0004
  24064755.9894   -1733972.92643  -1346892.22742  24064756.7314   24064754.5254
        45.0004         39.0004
  23918587.9954    3237976.14343   2516147.05042  23918589.4214   23918585.1834
        47.0004         40.0004
  24377130.2784    3338509.90243   2594778.65142  24377130.3194   24377128.3084
        46.0004         40.0004
  22550311.4834     541577.71443    422774.92542  22550313.6324   22550308.8034
        51.0004         45.0004
  21861762.5954    -373173.34543   -287023.65842  21861763.6204   21861759.2134
        53.0004         46.0004
 04  6 23 15  4 20.0000000  0 11G22G21G18G17G 6G16G15G30G10G29G26
  23654372.3054   -2175154.57343  -1689476.22742  23654372.6534   23654366.5754
        48.0004         41.0004
  21061991.8564    -365885.40744   -283452.85142  21061993.2634   21061986.6954
        57.0004         50.0004
  21283583.5424   -1280664.40143   -957846.91442  21283585.2534   21283579.7184
        56.0004         49.0004
  24020913.0624    2382979.60943   1845402.04542  24020914.6124   24020912.8404
        46.0004         39.0004
  20361330.1324    1080788.85044    841566.16342  20361331.7634   20361326.5754
        58.0004         51.0004
  23831806.5374   -2316567.22443  -1797953.41142  23831807.4714   23831801.9444
        47.0004         41.0004
  24055235.3024   -1784008.56243  -1385880.99142  24055235.1814   24055232.2714
        45.0004         40.0004
  23931403.8514    3305324.37243   2568626.13742  23931405.6744   23931401.1634
        48.0004         41.0004
  24390605.1574    3409320.52143   2649955.70242  24390606.9724   24390601.2974
        46.0004         39.0004
  22551235.8174     546427.07243    426553.62542  22551236.5274   22551231.5184
        52.0004         45.0004
  21858447.2534    -390585.06643   -300591.23242  21858449.6604   21858445.5324
        53.0004         46.0004
 04  6 23 15  4 40.0000000  0 11G22G21G18G17G 6G16G15G30G10G29G26
  23642055.5354   -2239880.82643  -1739912.24342  23642056.6594   23642051.0274
        48.0004         42.0004
  21057980.1464    -386967.36944   -299880.35642  21057981.7354   21057974.9964
        57.0004         50.0004
  21275813.5394   -1321495.39743   -989663.27242  21275815.0364   21275809.3064
        56.0004         49.0004
  24029483.3724    2428009.86443   1880490.46042  24029483.3374   24029481.9674
        46.0004         39.0004
  20364633.8624    1098150.28444    855094.53442  20364635.8344   20364630.3524
        58.0004         51.0004
  23826594.1234   -2343956.43343  -1819295.66242  23826595.8484   23826591.4934
        47.0004         41.0004
  24045717.3934   -1834023.94843  -1424853.98442  24045718.1204   24045715.7064
        47.0004         40.0004
  23944218.7974    3372665.65943   2621099.78742  23944219.3184   23944218.4994
        48.0004         40.0004
  24404082.9924    3480146.98743   2705145.10642  24404083.4684   24404080.8724
        47.0004         39.0004
  22552204.4234     551523.15543    430524.59742  22552206.3994   22552201.6744
        52.0004         45.0004
  21855186.2794    -407722.00943   -313944.69542  21855189.0894   21855183.5804
        52.0004         46.0004
 04  6 23 15  5  0.0000000  0 11G22G21G18G17G 6G16G15G30G10G29G26
  23629756.9424   -2304509.19443  -1790271.98642  23629758.6944   23629751.8314
        49.0004         42.0004
  21053982.3914    -407975.69644   -316250.48542  21053983.7454   21053977.5624
        57.0004         50.0004
  21268078.3944   -1362144.82443  -1021338.14942  21268079.9444   21268074.1464
        56.0004         49.0004
  24038055.9764    2473065.98443   1915599.09142  24038056.9734   24038055.4374
        46.0004         39.0004
  20367978.6524    1115726.90344    868790.58342  20367980.6284   20367975.1934
        58.0004         51.0004
  23821424.5024   -2371120.13843  -1840462.19442  23821426.6684   23821422.9674
        47.0004         41.0004
  24036201.8364   -1884017.61943  -1463810.06042  24036204.6304   24036201.7224
        47.0004         40.0004
  23957031.8694    3440000.49643   2673568.43942  23957032.9114   23957031.4384
        47.0004         41.0004
  24417563.7314    3550989.93443   2760347.38142  24417564.2644   24417563.4424
        45.0004         39.0004
  22553220.5464     556867.39043    434688.91842  22553222.8794   22553218.4574
        51.0004         45.0004
  21851978.6084    -424582.36343   -327082.63742  21851980.7804   21851976.3674
        53.0004         46.0004
 04  6 23 15  5 20.0000000  0 11G22G21G18G17G 6G16G15G30G10G29G26
  23617477.0094   -2369040.69843  -1840556.23742  23617477.8864   23617473.1604
        49.0004         42.0004
  21049998.3594    -428911.76544   -332564.30942  21049999.5904   21049993.2944
        57.0004         50.0004
  21260377.4724   -1402613.91944  -1052872.50742  21260378.8624   21260373.0934
        57.0004         50.0004
  24046634.0804    2518146.78243   1950726.91742  24046635.5544   24046633.2364
        45.0004         39.0004
  20371364.0064    1133517.17544    882653.11742  20371365.8304   20371360.6644
        58.0004         51.0004
  23816297.7174   -2398059.58643  -1861453.97742  23816300.2764   23816296.9724
        47.0004         41.0004
  24026693.0294   -1933991.18743  -1502750.46542  24026694.0664   24026692.5694
        47.0004         40.0004
  23969844.0374    3507326.77243   2726030.40642  23969846.2354   23969841.5354
        47.0004         40.0004
  24431047.6884    3621847.24643   2815560.76542  24431049.5414   24431045.0424
        45.0004         39.0004
  22554284.4324     562458.29343    439045.45742  22554287.2174   22554282.3764
        51.0004         45.0004
  21848821.9024    -441167.10243   -340005.81642  21848824.7104   21848820.2094
        52.0004         46.0004
 04  6 23 15  5 40.0000000  0 11G22G21G18G17G 6G16G15G30G10G29G26
  23605215.5644   -2433476.72143  -1890766.10442  23605216.2124   23605210.1314
        49.0004         42.0004
  21046027.6634    -449777.55544   -348823.37342  21046029.2454   21046022.5354
        57.0004         50.0004
  21252710.4904   -1442904.18444  -1084267.51142  21252712.1414   21252706.1394
        57.0004         50.0004
  24055218.4084    2563250.30443   1985872.45842  24055218.4784   24055215.6674
        45.0004         39.0004
  20374789.5754    1151519.36544    896680.78242  20374791.4974   20374786.3024
        58.0004         51.0004
  23811214.9394   -2424776.23043  -1882272.15642  23811217.1854   23811210.0174
        47.0004         41.0004
  24017187.1304   -1983946.40143  -1541676.58342  24017187.5684   24017185.5724
        47.0004         40.0004
  23982653.9544    3574641.56643   2778483.42242  23982655.8244   23982652.0234
        47.0004         40.0004
  24444533.5914    3692716.38543   2870783.45242  24444534.6644   24444530.8974
        46.0004         39.0004
  22555395.6614     568293.99343    443592.74742  22555397.5744   22555392.1994
        52.0004         45.0004
  21845719.7894    -457477.53343   -352715.24042  21845720.5984   21845716.2074
        53.0004         46.0004
 04  6 23 15  6  0.0000000  0 11G22G21G18G17G 6G16G15G30G10G29G26
  23592972.6474   -2497813.15443  -1940898.36942  23592973.9684   23592968.2924
        49.0004         42.0004
  21042071.2894    -470569.43844   -365024.84142  21042072.7774   21042065.8384
        57.0004         50.0004
  21245078.2574   -1483011.95344  -1115520.31742  21245080.0174   21245074.0234
        57.0004         50.0004
  24063806.4044    2608380.00343   2021038.39842  24063806.8294   24063805.4154
        45.0004         38.0004
  20378256.3384    1169737.18044    910876.46142  20378258.3434   20378252.9394
        58.0004         51.0004
  23806174.1394   -2451266.30543  -1902913.78342  23806175.5854   23806171.9864
        47.0004         41.0004
  24007684.4484   -2033879.78843  -1580585.71442  24007685.4814   24007684.2004
        47.0004         40.0004
  23995461.5094    3641947.75443   2830929.73542  23995464.0794   23995461.4034
        47.0004         40.0004
  24458022.1674    3763600.34643   2926017.69342  24458023.7914   24458021.0734
        45.0004         38.0004
  22556552.2934     574378.16443    448333.64942  22556554.8884   22556550.4904
        51.0004         45.0004
  21842667.0334    -473509.76343   -365207.89342  21842669.6224   21842665.5254
        53.0004         46.0004
 04  6 23 15  6 20.0000000  0 11G22G21G18G17G 6G16G15G30G10G29G26
  23580747.8594   -2562052.38943  -1990954.87242  23580749.5754   23580742.2514
        49.0004         42.0004
  21038128.2274    -491289.92844   -381170.68342  21038129.4174   21038122.9004
        57.0004         50.0004
  21237480.2784   -1522939.67844  -1146632.82942  21237481.8064   21237476.1084
        57.0004         50.0004
  24072399.0874    2653533.23943   2056222.66542  24072400.0614   24072396.3944
        46.0004         38.0004
  20381763.7614    1188167.80044    925237.96842  20381765.4734   20381760.1194
        58.0004         51.0004
  23801175.4824   -2477532.29443  -1923380.78742  23801177.3654   23801174.2854
        47.0004         41.0004
  23998186.5364   -2083794.03143  -1619479.93042  23998188.4454   23998185.0094
        47.0004         41.0004
  24008267.0944    3709241.67543   2883366.48742  24008268.9384   24008266.7074
        47.0004         40.0004
  24471513.5144    3834495.70743   2981260.76342  24471514.4194   24471511.9294
        45.0004         39.0004
  22557758.0344     580708.02443    453265.99742  22557759.6124   22557755.0934
        52.0004         45.0004
  21839669.5744    -489265.83443   -377485.36342  21839671.3514   21839667.0194
        52.0004         46.0004
 04  6 23 15  6 40.0000000  0 11G22G21G18G17G 6G16G15G30G10G29G26
  23568543.0274   -2626192.48443  -2040934.14842  23568543.2684   23568537.5104
        49.0004         42.0004
  21034199.2124    -511937.51944   -397259.71642  21034200.4484   21034193.8634
        57.0004         50.0004
  21229916.8004   -1562685.76744  -1177603.80042  21229918.3414   21229912.3434
        57.0004         50.0004
  24080995.3064    2698711.52243   2091426.46842  24080996.4824   24080994.0694
        45.0004         39.0004
  20385311.8594    1206812.66644    939766.41842  20385313.4464   20385308.3564
        58.0004         51.0004
  23796221.1604   -2503572.53943  -1943671.89842  23796222.9554   23796218.6254
        47.0004         41.0004
  23988693.3774   -2133687.86643  -1658358.24342  23988693.3554   23988690.9254
        47.0004         41.0004
  24021070.4604    3776524.10443   2935794.28242  24021071.8894   24021067.9814
        46.0004         40.0004
  24485006.4344    3905403.25543   3036513.34342  24485007.0114   24485004.9384
        45.0004         39.0004
  22559008.5704     587285.07243    458390.95442  22559011.0554   22559006.3794
        51.0004         44.0004
  21836724.7774    -504744.02143   -389546.29342  21836726.7384   21836721.9184
        52.0004         46.0004
 04  6 23 15  7  0.0000000  0 11G22G21G18G17G 6G16G15G30G10G29G26
  23556356.0034   -2690233.18043  -2090835.95742  23556356.8544   23556349.2454
        49.0004         42.0004
  21030283.8454    -532512.48644   -413292.16142  21030285.1044   21030278.9864
        57.0004         50.0004
  21222387.8534   -1602250.13544  -1208433.16942  21222389.4504   21222383.4124
        57.0004         50.0004
  24089597.7794    2743914.60343   2126649.54342  24089598.1424   24089597.1254
        45.0004         38.0004
  20388900.2564    1225671.50344    954461.59742  20388902.1404   20388897.0734
        58.0004         51.0004
  23791308.0944   -2529386.93843  -1963787.00742  23791310.1664   23791305.2404
        48.0004         41.0004
  23979202.8284   -2183561.52643  -1697220.81442  23979203.0384   23979200.9964
        47.0004         41.0004
  24033871.2464    3843793.92043   2988212.26542  24033873.3204   24033872.0964
        47.0004         39.0004
  24498501.8764    3976322.15843   3091774.74742  24498502.9914   24498499.9644
        46.0004         40.0004
  22560307.8744     594109.21743    463708.45942  22560310.2024   22560305.0174
        52.0004         44.0004
  21833832.4654    -519943.99143   -401390.42842  21833834.4284   21833829.3894
        53.0004         46.0004
 04  6 23 15  7 20.0000000  0 11G22G21G18G17G 6G16G15G30G10G29G26
  23544188.4324   -2754173.23243  -2140659.35042  23544189.8204   23544183.2994
        49.0004         42.0004
  21026382.5824    -553014.15644   -429267.49142  21026383.6764   21026377.1874
        57.0004         50.0004
  21214893.8264   -1641631.70944  -1239120.10442  21214895.4844   21214889.5034
        57.0004         50.0004
  24098204.6284    2789143.28443   2161892.59242  24098205.9004   24098202.7224
        46.0004         38.0004
  20392530.0744    1244745.20144    969324.19842  20392531.9214   20392526.6064
        58.0004         51.0004
  23786438.7664   -2554974.38743  -1983725.30442  23786440.1504   23786436.8744
        47.0004         41.0004
  23969714.6624   -2233414.23743  -1736067.05342  23969715.8304   23969713.9984
        46.0004         40.0004
  24046669.8604    3911051.04343   3040620.35542  24046674.8494   24046671.2874
        47.0004         39.0004
  24511999.6864    4047252.48343   3147045.06842  24512001.2704   24511998.5264
        46.0004         39.0004
  22561653.9464     601181.10843    469219.00442  22561655.3194   22561650.3554
        52.0004         44.0004
  21830992.3604    -534864.45843   -413016.78042  21830994.9974   21830990.6164
        53.0004         46.0004
 04  6 23 15  7 40.0000000  0 11G22G21G18G17G 6G16G15G30G10G29G26
  23532039.7254   -2818016.31743  -2190407.17542  23532040.9504   23532035.1214
        49.0004         42.0004
  21022494.3694    -573446.46444   -445188.77142  21022496.0024   21022489.1474
        57.0004         50.0004
  21207433.6704   -1680834.48244  -1269667.71242  21207435.1484   21207429.3934
        57.0004         49.0004
  24106815.0294    2834393.37143   2197152.35742  24106818.1224   24106814.1174
        45.0004         38.0004
  20396199.6154    1264029.69944    984351.06542  20396201.6324   20396196.4334
        58.0004         51.0004
  23781612.3114   -2580338.62043  -2003489.63342  23781614.5694   23781611.7364
        48.0004         41.0004
  23960231.3754   -2283250.06243  -1774900.15942  23960232.1384   23960230.1944
        46.0004         40.0004
  24059465.7974    3978290.49843   3093014.68742  24059468.0894   24059462.8804
        47.0004         39.0004
  24525498.7234    4118189.74443   3202320.80142  24525501.0824   24525496.3784
        44.0004         37.0004
  22563045.8394     608496.64943    474919.41642  22563048.0164   22563042.8594
        51.0004         44.0004
  21828206.0984    -549509.12443   -424428.21242  21828207.7644   21828203.2714
        53.0004         46.0004
 04  6 23 15  8  0.0000000  0 11G22G21G18G17G 6G16G15G30G10G29G26
  23519910.5914   -2881756.37943  -2240074.73842  23519911.1584   23519904.2944
        49.0004         42.0004
  21018620.3644    -593804.07644   -461051.84442  21018621.8674   21018615.3404
        57.0004         50.0004
  21200008.8694   -1719852.53443  -1300071.38042  21200010.3214   21200004.5014
        56.0004         49.0004
  24115431.0774    2879670.89443   2232433.44342  24115432.6124   24115430.0304
        44.0004         38.0004
  20399910.7334    1283530.55644    999546.51742  20399912.3614   20399907.2354
        58.0004         51.0004
  23776829.7654   -2605473.80443  -2023075.51442  23776830.5444   23776826.7384
        47.0004         41.0004
  23950752.6044   -2333063.30443  -1813715.64542  23950755.1794   23950752.2944
        46.0004         40.0004
  24072258.4194    4045517.24243   3145399.12942  24072258.4274   24072257.2554
        46.0004         39.0004
  24539000.3744    4189138.69643   3257605.62842  24538998.4244   24538997.1754
        41.0004         35.0004
  22564485.0804     616061.51343    480814.11242  22564487.1744   22564482.6584
        51.0004         44.0004
  21825472.2594    -563871.96643   -435620.03642  21825474.6844   21825470.2134
        53.0004         46.0004
 04  6 23 15  8 20.0000000  0 11G22G21G18G17G 6G16G15G30G10G29G26
  23507800.0274   -2945395.48843  -2289663.62342  23507799.2254   23507794.5524
        50.0004         42.0004
  21014760.3304    -614089.04444   -476858.31442  21014761.6584   21014755.1704
        57.0004         50.0004
  21192618.4814   -1758688.24543  -1330332.96442  21192620.0174   21192613.9944
        56.0004         49.0004
  24124051.4704    2924972.94343   2267733.66742  24124051.5284   24124050.8614
        44.0004         38.0004
  20403662.4924    1303245.24944   1014908.60342  20403664.2064   20403658.6914
        58.0004         51.0004
  23772090.2154   -2630382.29243  -2042484.72942  23772091.6844   23772085.7434
        48.0004         41.0004
  23941277.5244   -2382856.66143  -1852515.64242  23941277.7384   23941274.9944
        46.0004         40.0004
  24085048.3344    4112727.88043   3197771.00342  24085051.0674   24085047.2484
        46.0004         39.0004
  24552504.2184    4260096.14043   3312897.15242  24552502.1354   24552502.1164
        38.0004         33.0004
  22565971.4714     623873.10843    486901.05342  22565973.4224   22565969.1764
        51.0004         44.0004
  21822792.4114    -577955.00243   -446593.83342  21822794.2484   21822790.3924
        53.0004         46.0004
 04  6 23 15  8 40.0000000  0 10G22G21G18G17G 6G16G15G30G29G26
  23495710.1824   -3008928.84443  -2339170.12242  23495709.8644   23495705.4304
        49.0004         42.0004
  21010914.7464    -634297.17144   -492604.90242  21010916.4884   21010909.5904
        57.0004         50.0004
  21185263.9944   -1797337.23743  -1360449.05742  21185265.4714   21185259.7024
        56.0004         49.0004
  24132678.1624    2970303.93643   2303056.44042  24132679.2264   24132678.2284
        45.0004         38.0004
  20407455.4564    1323178.01344   1030440.60842  20407457.2694   20407451.8434
        58.0004         51.0004
  23767393.3524   -2655059.66143  -2061713.87342  23767393.7424   23767389.7024
        47.0004         41.0004
  23931805.6254   -2432626.04243  -1891296.94242  23931807.7404   23931803.9494
        46.0004         40.0004
  24097835.6534    4179925.64643   3250132.84242  24097837.5314   24097834.2814
        46.0004         39.0004
  22567506.1344     631935.71343    493183.58842  22567508.3454   22567503.5714
        52.0004         45.0004
  21820167.2564    -591753.52643   -457345.95142  21820169.9974   21820164.8354
        53.0004         46.0004
 04  6 23 15  9  0.0000000  0 10G22G21G18G17G 6G16G15G30G29G26
  23483639.1804   -3072364.52943  -2388600.51342  23483637.9074   23483633.9154
        50.0004         42.0004
  21007082.4554    -654436.97644   -508298.25442  21007083.9194   21007077.3214
        57.0004         50.0004
  21177943.1164   -1835807.96043  -1390426.23742  21177944.6484   21177938.7854
        56.0004         50.0004
  24141308.2994    3015655.37743   2338395.18242  24141308.0524   24141306.9474
        44.0004         38.0004
  20411288.3154    1343320.44744   1046136.00042  20411290.1994   20411284.9844
        58.0004         51.0004
  23762741.3394   -2679513.89843  -2080769.13142  23762742.4514   23762738.7984
        48.0004         41.0004
  23922338.4504   -2482379.78843  -1930066.09542  23922338.6514   23922336.4194
        46.0004         40.0004
  24110618.7914    4247101.44143   3302477.55142  24110621.2184   24110616.9244
        46.0004         39.0004
  22569086.4094     640240.87643    499655.14042  22569088.2024   22569083.2594
        51.0004         45.0004
  21817593.8014    -605275.65443   -467882.67742  21817596.2394   21817590.6294
        53.0004         46.0004
 04  6 23 15  9 20.0000000  0 10G22G21G18G17G 6G16G15G30G29G26
  23471586.9664   -3135697.28943  -2437950.70142  23471586.3314   23471582.9624
        50.0004         42.0004
  21003263.9354    -674503.57144   -523934.56242  21003265.4434   21003258.5164
        57.0004         50.0004
  21170657.3674   -1874095.00044  -1420260.28642  21170659.0274   21170653.0074
        57.0004         50.0004
  24149943.2774    3061032.08743   2373753.57342  24149943.5744   24149942.2934
        43.0004         38.0004
  20415162.1984    1363677.41844   1061998.55642  20415164.0894   20415158.9454
        58.0004         51.0004
  23758130.7314   -2703739.93743  -2099646.58642  23758131.6694   23758127.1434
        48.0004         41.0004
  23912874.1804   -2532113.04643  -1968819.25442  23912875.7334   23912873.3634
        46.0004         40.0004
  24123397.9244    4314259.36443   3354808.33642  24123402.2354   24123396.8934
        45.0004         39.0004
  22570714.2754     648793.45243    506319.47142  22570716.4084   22570711.1674
        52.0004         44.0004
  21815073.8924    -618516.12743   -478199.93342  21815076.7484   21815072.0364
        53.0004         46.0004
 04  6 23 15  9 40.0000000  0 10G22G21G18G17G 6G16G15G30G29G26
  23459554.6554   -3198925.64743  -2487219.53642  23459555.2704   23459549.6624
        49.0004         43.0004
  20999459.5784    -694495.89444   -539512.99842  20999460.8744   20999454.0654
        57.0004         50.0004
  21163406.7724   -1912197.47144  -1449950.51842  21163408.7534   21163402.6834
        57.0004         50.0004
  24158584.5994    3106435.01143   2409132.37442  24158585.2434   24158582.4694
        44.0004         38.0004
  20419077.1894    1384249.66644   1078028.86542  20419079.0494   20419073.5824
        58.0004         51.0004
  23753564.3234   -2727736.76143  -2118345.43042  23753564.8284   23753560.9404
        48.0004         41.0004
  23903414.6624   -2581825.07943  -2007555.88842  23903416.0694   23903412.8554
        47.0004         40.0004
  24136174.2974    4381399.31243   3407125.11942  24136177.4444   24136173.7194
        45.0004         39.0004
  22572388.4654     657594.17843    513177.18442  22572390.9004   22572385.8304
        52.0004         45.0004
  21812607.9394    -631473.57943   -488296.65742  21812610.6914   21812605.9464
        53.0004         46.0004
 04  6 23 15 10  0.0000000  0 10G22G21G18G17G 6G16G15G30G29G26
  23447542.7644   -3262052.98143  -2536409.64342  23447542.8974   23447537.7884
        50.0004         43.0004
  20995668.4914    -714417.85444   -555036.60742  20995669.9884   20995662.9284
        57.0004         50.0004
  21156190.6834   -1950118.88144  -1479499.66842  21156192.0634   21156186.2764
        57.0004         50.0004
  24167228.0494    3151860.58643   2444528.85742  24167227.8674   24167227.3884
        44.0004         38.0004
  20423032.0114    1405033.51444   1094224.05842  20423033.8684   20423028.7714
        58.0004         51.0004
  23749039.9314   -2751507.80843  -2136868.30642  23749042.5484   23749038.2324
        48.0004         41.0004
  23893958.0964   -2631519.54943  -2046278.85742  23893960.1624   23893956.0814
        46.0004         40.0004
  24148946.5134    4448516.95343   3459424.50942  24148948.3384   24148946.6594
        45.0004         39.0004
  22574109.8394     666639.45243    520225.43742  22574111.9254   22574107.9704
        51.0004         44.0004
  21810195.9334    -644151.25943   -498175.38342  21810197.8554   21810193.4384
        52.0004         46.0004
 04  6 23 15 10 20.0000000  0 10G22G21G18G17G 6G16G15G30G29G26
  23435549.3094   -3325076.89743  -2585519.16542  23435550.8124   23435543.6784
        50.0004         42.0004
  20991891.2334    -734267.35344   -570503.75042  20991892.7074   20991886.1964
        57.0004         50.0004
  21149009.3594   -1987856.75744  -1508905.80042  21149010.7134   21149004.9814
        57.0004         50.0004
  24175877.5924    3197310.73643   2479944.51142  24175877.6614   24175874.9314
        45.0004         38.0004
  20427027.8294    1426031.04944   1110585.75942  20427029.6504   20427024.1694
        58.0004         51.0004
  23744558.9594   -2775050.73443  -2155213.48242  23744561.9114   23744557.4734
        47.0004         41.0004
  23884505.5634   -2681194.42243  -2084986.53842  23884506.8014   23884503.4514
        46.0004         40.0004
  24161714.9334    4515613.26643   3511707.27242  24161716.1374   24161712.6344
        45.0004         39.0004
  22575878.4844     675931.18943    527465.74242  22575880.3854   22575875.8104
        51.0004         45.0004
  21807838.2474    -656546.78943   -507834.23642  21807838.9834   21807834.7264
        53.0004         46.0004
 04  6 23 15 10 40.0000000  0 10G22G21G18G17G 6G16G15G30G29G26
  23423576.8954   -3387992.52643  -2634544.30642  23423578.3374   23423571.3294
        50.0004         43.0004
  20988128.6864    -754039.88144   -585910.91942  20988130.1864   20988123.7484
        57.0004         50.0004
  21141863.8054   -2025406.95044  -1538165.68742  21141865.4004   21141859.6354
        57.0004         50.0004
  24184531.1794    3242789.71943   2515382.62042  24184530.8894   24184528.1344
        44.0004         38.0004
  20431064.8344    1447246.50344   1127117.26942  20431066.8214   20431061.6554
        57.0004         51.0004
  23740125.0844   -2798361.12543  -2173377.45142  23740125.6624   23740120.7344
        47.0004         41.0004
  23875057.0384   -2730845.46243  -2123675.67242  23875058.2664   23875055.1574
        47.0004         40.0004
  24174479.7294    4582691.88343   3563976.26042  24174481.0254   24174478.3564
        45.0004         39.0004
  22577694.1224     685473.63043    534901.40742  22577695.7394   22577690.9584
        51.0004         44.0004
  21805531.8884    -668655.52643   -517269.61942  21805534.7724   21805530.9884
        52.0004         46.0004
 04  6 23 15 11  0.0000000  0 10G22G21G18G17G 6G16G15G30G29G26
  23411623.8594   -3450806.73543  -2683490.42042  23411625.2634   23411618.1054
        50.0004         43.0004
  20984379.2004    -773742.90444   -601263.92942  20984380.6294   20984374.1354
        57.0004         50.0004
  21134752.8264   -2062776.33544  -1567284.68342  21134754.3464   21134748.4484
        57.0004         50.0004
  24193190.1754    3288290.31643   2550837.55342  24193191.2104   24193188.1424
        45.0004         38.0004
  20435142.1094    1468672.43944   1143812.78642  20435143.9764   20435138.9414
        58.0004         51.0004
  23735731.3164   -2821446.10343  -2191365.75442  23735734.4574   23735728.2544
        47.0004         40.0004
  23865611.9424   -2780479.87443  -2162351.81742  23865612.7134   23865610.1314
        48.0004         40.0004
  24187239.0944    4649744.68143   3616225.13042  24187241.7534   24187238.2024
        45.0004         39.0004
  22579556.2084     695259.39843    542526.66842  22579558.5984   22579553.2864
        51.0004         44.0004
  21803282.6704    -680484.30943   -526486.86042  21803284.0654   21803279.3484
        53.0004         46.0004
 04  6 23 15 11 20.0000000  0 10G22G21G18G17G 6G16G15G30G29G26
  23399691.2214   -3513514.13643  -2732353.32642  23399692.0204   23399685.6434
        50.0004         43.0004
  20980644.0264    -793371.14044   -616558.66642  20980645.8264   20980638.9304
        57.0004         50.0004
  21127677.0104   -2099959.70144  -1596258.73142  21127678.5094   21127672.4864
        57.0004         50.0004
  24201852.6484    3333817.54343   2586313.23742  24201853.5994   24201851.2324
        44.0004         38.0004
  20439260.2224    1490313.79144   1160676.15742  20439262.1474   20439257.0944
        58.0004         51.0004
  23731381.6264   -2844300.19543  -2209174.15042  23731383.5464   23731379.3474
        46.0004         40.0004
  23856170.2434   -2830092.67643  -2201011.15142  23856173.6734   23856169.5134
        47.0004         40.0004
  24199995.5234    4716775.82443   3668457.14542  24199997.9184   24199993.9014
        45.0004         39.0004
  22581465.6154     705293.52843    550345.45542  22581467.4414   22581463.2524
        52.0004         44.0004
  21801085.2044    -692027.70543   -535481.72042  21801087.4374   21801082.9644
        53.0004         46.0004
 04  6 23 15 11 40.0000000  0 10G22G21G18G17G 6G16G15G30G29G26
  23387778.3344   -3576115.62743  -2781133.69142  23387778.5484   23387772.9024
        50.0004         43.0004
  20976923.0324    -812925.95344   -631796.18742  20976924.0534   20976917.8004
        57.0004         50.0004
  21120636.2744   -2136958.03144  -1625088.58942  21120638.0614   21120632.0434
        57.0004         50.0004
  24210521.3414    3379370.18843   2621808.70242  24210523.4514   24210521.2594
        43.0004         38.0004
  20443419.4274    1512169.43144   1177706.51042  20443421.4314   20443415.9734
        58.0004         51.0004
  23727077.1664   -2866924.55143  -2226803.54942  23727078.5584   23727075.5434
        46.0004         40.0004
  23846733.0654   -2879685.14843  -2239654.60242  23846733.7424   23846731.4184
        47.0004         40.0004
  24212745.9584    4783783.25543   3720670.66642  24212746.9234   24212745.3654
        45.0004         39.0004
  22583421.5604     715574.74243    558356.78442  22583424.2594   22583419.5544
        51.0004         44.0004
  21798943.1994    -703286.74443   -544255.00242  21798945.2744   21798940.4194
        53.0004         46.0004
 04  6 23 15 12  0.0000000  0 10G22G21G18G17G 6G16G15G30G29G26
  23375885.6014   -3638611.59143  -2829831.82842  23375886.4904   23375878.6674
        50.0004         43.0004
  20973215.7814    -832408.24444   -646977.20242  20973217.1724   20973210.5074
        57.0004         50.0004
  21113630.8924   -2173772.17344  -1653774.93042  21113632.1404   21113626.5684
        57.0004         50.0004
  24219193.9314    3424947.45043   2657323.39542  24219195.3134   24219191.9074
        43.0004         38.0004
  20447619.1054    1534238.35844   1194903.05742  20447620.8534   20447615.5914
        58.0004         51.0004
  23722813.6254   -2889320.01343  -2244254.54842  23722815.7234   23722811.9664
        46.0004         40.0004
  23837299.5024   -2929258.31843  -2278283.05342  23837301.0604   23837299.0934
        47.0004         40.0004
  24225492.8174    4850765.21043   3772864.33942  24225494.6264   24225490.7004
        45.0004         39.0004
  22585426.1104     726101.90543    566559.75142  22585427.7684   22585422.9054
        52.0004         45.0004
  21796854.4974    -714261.82543   -552807.01442  21796856.3494   21796851.8354
        53.0004         46.0004
 04  6 23 15 12 20.0000000  0 10G22G21G18G17G 6G16G15G30G29G26
  23364013.2524   -3701001.89143  -2878447.63742  23364014.0374   23364008.6344
        51.0004         43.0004
  20969522.1344    -851818.20844   -662101.85342  20969523.4624   20969516.8544
        57.0004         50.0004
  21106660.2814   -2210402.57944  -1682318.10042  21106661.7504   21106655.8274
        57.0004         50.0004
  24227872.9404    3470548.86443   2692856.90742  24227874.0544   24227870.8644
        45.0004         38.0004
  20451859.2414    1556520.01144   1212265.37042  20451860.8864   20451855.6184
        58.0004         51.0004
  23718597.1524   -2911486.78243  -2261527.37942  23718598.0174   23718594.4294
        46.0004         40.0004
  23827871.0074   -2978812.47743  -2316896.66542  23827870.0854   23827867.6114
        47.0004         40.0004
  24238234.0634    4917720.62143   3825037.33642  24238235.7194   24238233.6294
        46.0004         39.0004
  22587476.1694     736874.65143    574954.09942  22587477.4844   22587473.0024
        52.0004         44.0004
  21794819.4924    -724952.97243   -561137.78342  21794822.0974   21794817.8534
        53.0004         46.0004
 04  6 23 15 12 40.0000000  0 10G22G21G18G17G 6G16G15G30G29G26
  23352161.3454   -3763283.09243  -2926978.41942  23352162.3224   23352155.9164
        50.0004         43.0004
  20965842.8204    -871152.85344   -677167.81642  20965844.3844   20965837.9104
        57.0004         50.0004
  21099725.3394   -2246845.90644  -1710715.49442  21099726.8724   21099721.0254
        57.0004         50.0004
  24236555.6804    3516177.58643   2728411.66642  24236556.8094   24236553.3204
        45.0004         39.0004
  20456140.3164    1579017.75444   1229796.05942  20456142.1004   20456136.8484
        58.0004         51.0004
  23714422.8364   -2933421.34543  -2278619.26442  23714424.3804   23714419.5884
        46.0004         40.0004
  23818445.3684   -3028344.63743  -2355493.13242  23818446.8524   23818443.3854
        47.0004         40.0004
  24250969.7434    4984651.73543   3877191.40742  24250971.1264   24250969.2854
        46.0004         39.0004
  22589572.1524     747896.19443    583542.29442  22589574.6324   22589570.2564
        51.0004         44.0004
  21792839.6054    -735356.74643   -569244.62242  21792842.9544   21792837.8534
        52.0004         46.0004
 04  6 23 15 13  0.0000000  0 10G22G21G18G17G 6G16G15G30G29G26
  23340330.0194   -3825456.87043  -2975425.50942  23340331.2614   23340325.4974
        50.0004         43.0004
  20962177.5524    -890414.31144   -692176.74342  20962178.9094   20962172.2104
        57.0004         50.0004
  21092825.7714   -2283103.92144  -1738968.48642  21092827.4474   21092821.3494
        57.0004         50.0004
  24245242.8354    3561831.43143   2763986.01042  24245243.0634   24245241.7654
        43.0004         38.0004
  20460462.0444    1601729.22044   1247493.28642  20460464.0524   20460458.7834
        58.0004         51.0004
  23710292.3144   -2955125.72443  -2295531.77642  23710293.5484   23710290.3004
        46.0004         40.0004
  23809021.6894   -3077856.92243  -2394074.09742  23809022.9254   23809021.5244
        46.0004         40.0004
  24263701.7014    5051555.59843   3929324.24642  24263704.6234   24263699.8074
        46.0004         39.0004
  22591716.7514     759164.10243    592322.47742  22591718.9524   22591714.0124
        51.0004         44.0004
  21790915.9054    -745474.87343   -577128.87742  21790916.6094   21790912.6654
        53.0004         46.0004
 04  6 23 15 13 20.0000000  0 10G22G21G18G17G 6G16G15G30G29G26
  23328518.7744   -3887525.10743  -3023790.33742  23328519.4354   23328513.4084
        50.0004         43.0004
  20958525.6484    -909604.66244   -707130.26742  20958527.2464   20958520.5454
        57.0004         50.0004
  21085960.8324   -2319178.80944  -1767078.78442  21085962.5584   21085956.4124
        57.0004         50.0004
  24253935.4034    3607508.29643   2799578.27942  24253935.8434   24253934.7084
        45.0004         38.0004
  20464824.4064    1624652.08344   1265355.24042  20464826.0754   20464820.7974
        58.0004         51.0004
  23706206.7764   -2976601.97443  -2312266.52742  23706207.7944   23706203.8534
        46.0004         40.0004
  23799603.4394   -3127351.68243  -2432641.42642  23799603.5784   23799603.3134
        45.0004         40.0004
  24276427.5374    5118429.24243   3981433.53342  24276429.6414   24276426.6854
        46.0004         39.0004
  22593907.9194     770676.01943    601292.78742  22593910.0934   22593904.1794
        52.0004         44.0004
  21789042.9384    -755309.29343   -584792.07042  21789045.3664   21789040.4764
        53.0004         46.0004
 04  6 23 15 13 40.0000000  0 10G22G21G18G17G 6G16G15G30G29G26
  23316728.4944   -3949482.75743  -3072069.00442  23316728.9544   23316722.9804
        50.0004         43.0004
  20954888.2524    -928719.13844   -722024.66542  20954889.7054   20954883.1034
        57.0004         50.0004
  21079131.8494   -2355065.87144  -1795042.72242  21079133.6124   21079127.5234
        57.0004         50.0004
  24262632.7854    3653212.63343   2835191.97442  24262632.8994   24262630.8034
        45.0004         38.0004
  20469227.4034    1647790.79944   1283385.39442  20469229.1544   20469224.0514
        58.0004         51.0004
  23702163.6784   -2997845.34743  -2328819.81542  23702165.3454   23702160.5334
        46.0004         40.0004
  23790189.9554   -3176824.19343  -2471191.43042  23790190.0854   23790188.3184
        45.0004         40.0004
  24289148.3534    5185276.27543   4033522.08542  24289151.7324   24289148.1604
        47.0004         40.0004
  22596145.8094     782436.55843    610456.83742  22596147.7414   22596142.7794
        51.0004         44.0004
  21787226.3544    -764855.22243   -592230.45542  21787228.7594   21787224.5394
        53.0004         46.0004
 04  6 23 15 14  0.0000000  0 10G22G21G18G17G 6G16G15G30G29G26
  23304958.8764   -4011332.32443  -3120263.43342  23304959.4894   23304953.7194
        50.0004         43.0004
  20951264.9784    -947760.58244   -736862.15442  20951266.2834   20951259.7154
        57.0004         50.0004
  21072337.8864   -2390767.91444  -1822862.49242  21072339.4544   21072333.5824
        57.0004         50.0004
  24271334.5524    3698941.68343   2870824.92142  24271335.9074   24271334.1184
        45.0004         38.0004
  20473670.9824    1671142.60244   1301581.58942  20473672.8614   20473667.7924
        58.0004         51.0004
  23698163.7694   -3018858.49243  -2345193.71042  23698166.3334   23698161.6604
        46.0004         40.0004
  23780780.0534   -3226277.53243  -2509726.45542  23780779.6944   23780779.6174
        45.0004         40.0004
  24301863.2124    5252093.16143   4085587.15642  24301866.0534   24301861.1714
        46.0004         39.0004
  22598429.9874     794442.74743    619812.29742  22598431.7844   22598427.8894
        51.0004         44.0004
  21785464.3394    -774115.01043   -599445.87942  21785466.8544   21785462.5524
        52.0004         46.0004
 04  6 23 15 14 20.0000000  0 10G22G21G18G17G 6G16G15G30G29G26
  23293210.0804   -4073072.01143  -3168372.25442  23293209.7814   23293205.6384
        50.0004         43.0004
  20947655.4494    -966728.01844   -751641.97242  20947656.9364   20947650.3044
        57.0004         50.0004
  21065579.6344   -2426283.45044  -1850536.93342  21065581.0184   21065575.3374
        57.0004         50.0004
  24280041.7124    3744696.60243   2906478.04742  24280043.5014   24280040.2744
        44.0004         38.0004
  20478155.6264    1694708.52944   1319944.62742  20478157.4274   20478152.1844
        58.0004         51.0004
  23694211.4454   -3039640.01943  -2361387.10942  23694212.7014   23694206.8734
        47.0004         40.0004
  23771373.3004   -3275710.43443  -2548245.57742  23771373.7564   23771370.9214
        45.0004         40.0004
  24314571.8224    5318880.28143   4137629.00942  24314574.4524   24314573.0014
        46.0004         40.0004
  22600761.4684     806695.64143    629359.99442  22600764.2434   22600759.4484
        51.0004         44.0004
  21783758.1424    -783087.13243   -606437.14742  21783759.0504   21783754.1344
        53.0004         46.0004
 04  6 23 15 14 40.0000000  0 10G22G21G18G17G 6G16G15G30G29G26
  23281482.4984   -4134701.24943  -3216395.00842  23281483.6394   23281478.2494
        50.0004         43.0004
  20944060.1794    -985621.07044   -766363.82742  20944061.5814   20944055.0484
        57.0004         50.0004
  21058856.6714   -2461612.22844  -1878065.85042  21058858.3844   21058852.3784
        57.0004         50.0004
  24288753.4954    3790477.80043   2942151.63442  24288752.4724   24288751.4464
        43.0004         38.0004
  20482680.8534    1718488.81944   1338474.70242  20482682.6164   20482677.4724
        58.0004         51.0004
  23690299.9064   -3060189.55443  -2377399.74342  23690302.2874   23690296.8244
        47.0004         40.0004
  23761969.9794   -3325122.60943  -2586748.52942  23761969.9084   23761967.2554
        46.0004         40.0004
  24327274.8614    5385637.03643   4189647.21542  24327278.1594   24327276.0484
        46.0004         40.0004
  22603140.3734     819195.41943    639100.06942  22603142.0834   22603137.6124
        51.0004         44.0004
  21782104.4514    -791771.16343   -613203.91742  21782106.8654   21782102.5884
        53.0004         46.0004
 04  6 23 15 15  0.0000000  0 10G22G21G18G17G 6G16G15G30G29G26
  23269775.7814   -4196222.03943  -3264333.25742  23269776.5034   23269770.9224
        50.0004         43.0004
  20940478.8234   -1004442.09044   -781029.55542  20940479.9714   20940473.5784
        57.0004         50.0004
  21052169.0874   -2496756.26844  -1905450.81042  21052170.7544   21052164.7254
        57.0004         50.0004
  24297469.6994    3836282.68843   2977843.64842  24297472.0714   24297469.5394
        44.0004         38.0004
  20487246.3874    1742480.93244   1357169.83442  20487248.3624   20487243.0334
        58.0004         51.0004
  23686433.6034   -3080509.26043  -2393233.29042  23686434.5834   23686430.2034
        47.0004         40.0004
  23752570.7854   -3374516.57443  -2625237.30842  23752571.4664   23752569.7364
        47.0004         40.0004
  24339973.3104    5452360.23843   4241639.28042  24339975.1384   24339971.4184
        46.0004         40.0004
  22605565.7214     831939.52943    649030.53342  22605568.0024   22605562.8344
        51.0004         44.0004
  21780506.0244    -800169.03643   -619747.71842  21780508.8294   21780504.7414
        53.0004         46.0004
 04  6 23 15 15 20.0000000  0 10G22G21G18G17G 6G16G15G30G29G26
  23258089.9464   -4257630.63543  -3312184.08542  23258090.2564   23258084.1884
        50.0004         43.0004
  20936911.4194   -1023187.72844   -795636.54442  20936912.9064   20936906.6174
        57.0004         50.0004
  21045517.0324   -2531712.05244  -1932689.08142  21045518.7464   21045512.9054
        57.0004         50.0004
  24306191.1774    3882114.77343   3013556.88042  24306193.4854   24306192.0184
        44.0004         38.0004
  20491852.8244    1766687.98044   1376032.44442  20491854.4054   20491849.2524
        58.0004         51.0004
  23682610.3894   -3100595.70443  -2408885.07242  23682613.2794   23682608.4494
        48.0004         40.0004
  23743174.7874   -3423889.05843  -2663709.35142  23743176.3284   23743174.3204
        47.0004         40.0004
  24352663.8164    5519052.36843   4293607.12142  24352665.0984   24352660.6744
        46.0004         40.0004
  22608038.6154     844931.05743    659153.79342  22608039.9784   22608034.2634
        51.0004         44.0004
  21778964.1374    -808277.28843   -626065.83842  21778965.6894   21778962.0224
        53.0004         46.0004
 04  6 23 15 15 40.0000000  0 10G22G21G18G17G 6G16G15G30G29G26
  23246425.3444   -4318930.18043  -3359949.94642  23246425.2744   23246420.5134
        50.0004         43.0004
  20933358.0664   -1041861.30244   -810187.38442  20933359.8054   20933353.0374
        57.0004         50.0004
  21038900.3274   -2566483.03644  -1959783.34842  21038902.0984   21038895.9834
        57.0004         50.0004
  24314917.8674    3927970.62843   3049288.62342  24314918.4574   24314915.9324
        43.0004         38.0004
  20496499.6204    1791106.64644   1395059.95542  20496501.2324   20496496.2734
        58.0004         51.0004
  23678832.8304   -3120452.13343  -2424357.62942  23678832.6274   23678829.0354
        47.0004         40.0004
  23733783.5784   -3473243.41743  -2702167.28042  23733784.0784   23733782.6664
        47.0004         40.0004
  24365348.7614    5585709.30943   4345547.55142  24365350.3974   24365346.7574
        46.0004         40.0004
  22610555.0894     858166.64043    669467.21842  22610558.2844   22610553.3824
        50.0004         44.0004
  21777475.6534    -816098.86043   -632160.57342  21777477.1774   21777472.7624
        53.0004         46.0004
 04  6 23 15 16  0.0000000  0 10G22G21G18G17G 6G16G15G30G29G26
  23234781.6574   -4380117.03743  -3407628.00042  23234782.8874   23234776.0974
        50.0004         43.0004
  20929819.0684   -1060459.39744   -824679.40942  20929820.2814   20929813.8484
        57.0004         50.0004
  21032319.4904   -2601065.86644  -1986731.00142  21032321.1134   21032315.3634
        57.0004         50.0004
  24323648.9984    3973853.37143   3085041.29742  24323649.6374   24323648.3954
        43.0004         37.0004
  20501187.4034    1815739.94944   1414254.71142  20501189.0044   20501184.0044
        58.0004         51.0004
  23675098.6364   -3140075.37243  -2439648.48442  23675099.8974   23675095.2654
        47.0004         40.0004
  23724396.0814   -3522576.64043  -2740608.74442  23724397.2044   23724393.7084
        48.0004         40.0004
  24378026.3144    5652333.38943   4397462.36942  24378029.1804   24378025.4584
        46.0004         40.0004
  22613123.1194     871649.29343    679973.16742  22613124.4804   22613120.0524
        51.0004         44.0004
  21776042.3624    -823630.41643   -638029.32042  21776045.2224   21776039.6034
        53.0004         46.0004
 04  6 23 15 16 20.0000000  0 10G22G21G18G17G 6G16G15G30G29G26
  23223159.4524   -4441191.04743  -3455218.11442  23223159.4464   23223154.6214
        50.0004         43.0004
  20926294.1664   -1078982.70544   -839113.15942  20926295.3854   20926288.9334
        57.0004         50.0004
  21025774.3984   -2635460.74144  -2013532.19242  21025775.8604   21025770.3334
        57.0004         50.0004
  24332384.0704    4019762.67643   3120814.73042  24332385.1024   24332383.3584
        43.0004         37.0004
  20505915.6034    1840587.39944   1433616.34242  20505917.3634   20505912.2044
        58.0004         51.0004
  23671409.0344   -3159465.42343  -2454757.61142  23671410.2844   23671405.8204
        48.0004         41.0004
  23715012.4984   -3571888.98043  -2779033.93042  23715012.6164   23715009.3594
        47.0004         40.0004
  24390698.2714    5718923.36043   4449350.61642  24390702.0754   24390698.4424
        46.0004         39.0004
  22615735.0834     885378.59343    690671.30842  22615736.9464   22615731.8924
        51.0004         44.0004
  21774665.0324    -830871.93643   -643672.05942  21774666.8444   21774661.3294
        53.0004         46.0004
 04  6 23 15 16 40.0000000  0 10G22G21G18G17G 6G16G15G30G29G26
  23211558.3764   -4502152.90843  -3502720.85142  23211559.7914   23211554.6124
        50.0004         43.0004
  20922783.6144   -1097430.97444   -853488.43442  20922784.7624   20922778.0524
        57.0004         50.0004
  21019264.9804   -2669668.49444  -2040187.57642  21019266.5414   21019260.5224
        57.0004         50.0004
  24341124.9414    4065697.73743   3156608.18442  24341125.8804   24341125.9184
        42.0004         36.0004
  20510684.3144    1865648.06044   1453144.10542  20510686.2334   20510681.1804
        57.0004         51.0004
  23667763.2174   -3178623.18043  -2469685.75442  23667765.8304   23667759.8174
        48.0004         41.0004
  23705631.1844   -3621181.28243  -2817443.50642  23705632.1754   23705629.9314
        47.0004         40.0004
  24403363.3164    5785477.68343   4501211.09342  24403364.7964   24403361.7264
        46.0004         39.0004
  22618393.3564     899353.46443    701560.80942  22618396.4074   22618391.6064
        51.0004         44.0004
  21773341.4194    -837824.14943   -649089.36542  21773343.9624   21773338.8464
        53.0004         46.0004
 04  6 23 15 17  0.0000000  0 10G22G21G18G17G 6G16G15G30G29G26
  23199979.3804   -4563003.06343  -3550136.52742  23199980.2454   23199974.5264
        50.0004         43.0004
  20919286.8814   -1115806.16944   -867806.77142  20919288.4294   20919281.6894
        57.0004         50.0004
  21012790.9354   -2703690.00944  -2066697.84342  21012792.4424   21012786.3504
        57.0004         50.0004
  24349872.8354    4111657.60043   3192420.95542  24349872.8774   24349870.9704
        42.0004         37.0004
  20515493.5874    1890920.82744   1472837.14842  20515495.3654   20515490.2924
        58.0004         51.0004
  23664161.6564   -3197549.45243  -2484433.51342  23664162.7404   23664158.4184
        48.0004         41.0004
  23696255.0504   -3670454.54943  -2855838.25242  23696257.2104   23696252.1504
        47.0004         40.0004
  24416020.7634    5851994.47543   4553042.32042  24416023.2034   24416019.2314
        46.0004         39.0004
  22621101.0464     913572.55343    712640.60942  22621102.8734   22621097.3964
        52.0004         44.0004
  21772072.7224    -844487.62143   -654281.68242  21772075.5844   21772070.9534
        53.0004         46.0004
 04  6 23 15 17 20.0000000  0 10G22G21G18G17G 6G16G15G30G29G26
  23188421.1524   -4623740.85743  -3597464.65442  23188421.8024   23188415.8794
        50.0004         44.0004
  20915804.0174   -1134108.29744   -882068.17942  20915805.3914   20915799.1064
        57.0004         50.0004
  21006352.3984   -2737524.57544  -2093062.43442  21006354.0624   21006347.9924
        57.0004         50.0004
  24358623.6334    4157642.63543   3228253.37842  24358625.1254   24358622.8564
        44.0004         37.0004
  20520343.3354    1916405.92044   1492695.64042  20520345.1544   20520340.0074
        58.0004         51.0004
  23660604.2844   -3216243.61343  -2499000.41342  23660606.3554   23660599.6694
        48.0004         41.0004
  23686882.3834   -3719708.49643  -2894217.94842  23686883.2584   23686880.6214
        48.0004         40.0004
  24428671.1444    5918473.40643   4604844.02742  24428672.6724   24428670.0104
        46.0004         39.0004
  22623851.3544     928036.25843    723911.02142  22623853.6184   22623849.5544
        50.0004         44.0004
  21770861.0554    -850861.77943   -659248.55642  21770862.8124   21770857.9054
        53.0004         46.0004
 04  6 23 15 17 40.0000000  0 10G22G21G18G17G 6G16G15G30G29G26
  23176885.4444   -4684362.65343  -3644702.39642  23176884.8924   23176880.3854
        51.0004         44.0004
  20912336.0634   -1152332.99444   -896269.24442  20912337.5694   20912330.8394
        57.0004         50.0004
  20999950.1074   -2771169.26144  -2119279.06842  20999951.7094   20999945.6864
        57.0004         50.0004
  24367378.9764    4203655.76843   3264107.67442  24367380.4684   24367379.7474
        44.0004         38.0004
  20525234.0454    1942106.35644   1512721.92942  20525235.7804   20525230.6744
        58.0004         51.0004
  23657091.8514   -3234702.51143  -2513383.98642  23657093.3304   23657088.2024
        48.0004         41.0004
  23677514.6024   -3768940.08243  -2932580.22142  23677514.2704   23677511.7984
        47.0004         40.0004
  24441314.3154    5984916.72243   4656618.00842  24441315.7884   24441313.7944
        45.0004         39.0004
  22626651.4364     942747.69343    735374.44942  22626654.0174   22626649.3084
        50.0004         44.0004
  21769703.4514    -856943.27443   -663987.38042  21769705.3004   21769701.2744
        53.0004         46.0004
 04  6 23 15 18  0.0000000  0 10G22G21G18G17G 6G16G15G30G29G26
  23165370.9884   -4744871.91743  -3691852.44242  23165371.5464   23165365.5314
        51.0004         44.0004
  20908881.8334   -1170484.74344   -910413.46942  20908883.1254   20908876.6384
        57.0004         50.0004
  20993583.0974   -2804627.73144  -2145350.60242  20993584.9694   20993578.6514
        57.0004         50.0004
  24376139.2924    4249693.36143   3299981.02142  24376140.7484   24376139.1394
        44.0004         37.0004
  20530164.8434    1968018.16644   1532912.93042  20530166.5564   20530161.5654
        58.0004         51.0004
  23653622.8634   -3252929.92143  -2527587.19942  23653624.5964   23653619.2704
        48.0004         41.0004
  23668148.9874   -3818153.33343  -2970928.18242  23668148.8134   23668146.3834
        46.0004         40.0004
  24453950.6434    6051319.80043   4708360.62042  24453952.5424   24453949.2244
        45.0004         38.0004
  22629497.3364     957702.58843    747027.60942  22629499.2944   22629494.8914
        51.0004         44.0004
  21768600.7814    -862735.79343   -668501.03442  21768603.6144   21768598.7694
        53.0004         46.0004
 04  6 23 15 18 20.0000000  0 10G22G21G18G17G 6G16G15G30G29G26
  23153878.1624   -4805266.35443  -3738913.03042  23153879.5504   23153873.7504
        51.0004         44.0004
  20905441.8374   -1188561.65544   -924499.37942  20905443.1654   20905436.8594
        57.0004         50.0004
  20987251.9974   -2837897.91244  -2171275.41642  20987253.6724   20987247.5944
        57.0004         50.0004
  24384904.7374    4295757.33243   3335874.93142  24384906.2664   24384905.3044
        45.0004         37.0004
  20535136.3824    1994143.11844   1553270.01042  20535138.2564   20535133.1024
        58.0004         51.0004
  23650199.9144   -3270923.78043  -2541608.39842  23650202.3204   23650196.4174
        48.0004         41.0004
  23658787.8044   -3867346.11143  -3009260.19442  23658788.6794   23658785.8734
        46.0004         40.0004
  24466579.6844    6117683.75843   4760072.74742  24466583.1494   24466578.2804
        45.0004         38.0004
  22632391.0164     972902.80543    758871.91242  22632392.9544   22632387.8824
        51.0004         44.0004
  21767554.8294    -868237.06543   -672787.73842  21767556.3114   21767551.2464
        53.0004         46.0004
 04  6 23 15 18 40.0000000  0 10G22G21G18G17G 6G16G15G30G29G26
  23142407.9564   -4865544.74143  -3785883.19342  23142408.1264   23142402.6714
        51.0004         44.0004
  20902016.3504   -1206563.12944   -938526.50942  20902017.5214   20902011.3284
        57.0004         50.0004
  20980957.0014   -2870978.77444  -2197052.70842  20980958.4924   20980952.4924
        57.0004         50.0004
  24393676.1664    4341848.58043   3371790.12942  24393678.3864   24393674.4774
        43.0004         37.0004
  20540148.3734    2020482.00944   1573793.79942  20540150.1844   20540145.1714
        58.0004         51.0004
  23646820.3614   -3288683.13143  -2555446.86942  23646821.2964   23646817.6144
        48.0004         41.0004
  23649430.5714   -3916517.50343  -3047575.52942  23649432.4154   23649429.9284
        45.0004         40.0004
  24479200.7204    6184008.69943   4811754.48942  24479203.0884   24479200.9004
        45.0004         38.0004
  22635329.2534     988349.05943    770907.94142  22635331.8514   22635327.8144
        51.0004         44.0004
  21766562.4864    -873445.96343   -676846.61442  21766565.3684   21766560.8254
        53.0004         46.0004
 04  6 23 15 19  0.0000000  0 10G22G21G18G17G 6G16G15G30G29G26
  23130958.3454   -4925710.48143  -3832765.56142  23130959.3234   23130953.2164
        51.0004         44.0004
  20898604.6654   -1224492.45144   -952497.41242  20898605.9904   20898599.3654
        57.0004         50.0004
  20974696.9934   -2903874.09244  -2222685.41942  20974698.8054   20974692.5654
        57.0004         50.0004
  24402451.7894    4387963.34743   3407723.64342  24402451.6824   24402450.1364
        44.0004         37.0004
  20545200.5364    2047030.84644   1594481.18142  20545202.3354   20545197.3714
        58.0004         51.0004
  23643482.9314   -3306211.62043  -2569105.44442  23643483.8504   23643481.1584
        48.0004         41.0004
  23640077.0034   -3965671.47243  -3085877.28442  23640078.1884   23640074.9944
        46.0004         40.0004
  24491814.1094    6250290.01043   4863402.23042  24491816.4744   24491812.0594
        44.0004         38.0004
  22638315.2304    1004037.47143    783132.66242  22638316.9444   22638313.1004
        51.0004         44.0004
  21765625.5504    -878365.99043   -680680.40142  21765628.4364   21765624.3674
        52.0004         46.0004
 04  6 23 15 19 20.0000000  0 10G22G21G18G17G 6G16G15G30G29G26
  23119532.1284   -4985757.99643  -3879555.81942  23119532.3504   23119526.1104
        51.0004         43.0004
  20895207.6644   -1242343.95044   -966407.67642  20895209.0534   20895202.5464
        57.0004         50.0004
  20968473.5764   -2936578.62044  -2248169.46142  20968475.1724   20968469.0774
        57.0004         50.0004
  24411233.2824    4434106.68843   3443679.41242  24411233.6704   24411229.6204
        43.0004         37.0004
  20550293.5534    2073794.68244   1615336.09342  20550295.4124   20550290.4394
        58.0004         51.0004
  23640193.2824   -3323504.11143  -2582580.14242  23640193.2514   23640190.9664
        48.0004         41.0004
  23630727.0494   -4014802.88043  -3124161.45742  23630728.2724   23630725.2554
        46.0004         40.0004
  24504418.8294    6316531.99643   4915019.33042  24504421.6554   24504419.2344
        44.0004         38.0004
  22641346.4184    1019972.75743    795549.75142  22641348.6904   22641344.8934
        51.0004         44.0004
  21764746.6044    -882991.87043   -684284.97542  21764748.3064   21764743.9904
        53.0004         46.0004
 04  6 23 15 19 40.0000000  0  9G22G21G18G 6G16G15G30G29G26
  23108128.6254   -5045680.19443  -3926248.42442  23108128.8234   23108122.9624
        50.0004         43.0004
  20891826.7344   -1260110.97144   -980252.11342  20891827.9114   20891821.6894
        57.0004         50.0004
  20962287.7544   -2969085.37644  -2273499.39442  20962289.2454   20962283.5164
        57.0004         50.0004
  20555428.7074    2100780.18444   1636363.73342  20555430.4364   20555425.7664
        58.0004         51.0004
  23636949.3814   -3340553.72443  -2595865.57842  23636950.8514   23636946.7754
        48.0004         41.0004
  23621383.8304   -4063904.89943  -3162422.73442  23621385.1194   23621381.8364
        47.0004         41.0004
  24517017.8394    6382740.84843   4966610.60142  24517021.0934   24517018.8084
        44.0004         38.0004
  22644428.9394    1036161.71043    808164.50242  22644430.5754   22644425.3464
        51.0004         44.0004
  21763923.1544    -887316.59243   -687654.89542  21763925.6144   21763921.1654
        53.0004         46.0004
 04  6 23 15 20  0.0000000  0  9G22G21G18G 6G16G15G30G29G26
  23096746.0554   -5105497.92243  -3972859.61742  23096746.6114   23096741.0024
        50.0004         43.0004
  20888457.5074   -1277815.22344   -994047.63842  20888458.9754   20888452.4024
        57.0004         50.0004
  20956135.4144   -3001415.76844  -2298691.90142  20956136.8334   20956131.3134
        57.0004         50.0004
  20560602.0124    2127965.96744   1657547.42942  20560603.9504   20560598.5214
        58.0004         51.0004
  23633746.2334   -3357381.57543  -2608978.20242  23633748.9364   23633742.8204
        48.0004         42.0004
  23612040.7924   -4112998.86643  -3200677.74542  23612040.9944   23612039.3504
        47.0004         41.0004
  24529607.1524    6448894.33843   5018158.75742  24529609.4054   24529606.2054
        44.0004         38.0004
  22647551.7154    1052582.71243    820960.08842  22647554.8674   22647550.4784
        51.0004         44.0004
  21763153.7284    -891361.24643   -690806.56342  21763155.7104   21763150.6774
        53.0004         46.0004
 04  6 23 15 20 20.0000000  0  9G22G21G18G 6G16G15G30G29G26
  23085385.4644   -5165195.83743  -4019377.45242  23085386.9334   23085380.0844
        50.0004         43.0004
  20885103.6014   -1295441.40044  -1007782.32642  20885104.9634   20885098.3864
        57.0004         50.0004
  20950019.6914   -3033554.41644  -2323734.99842  20950021.2744   20950015.1674
        57.0004         50.0004
  20565816.3894    2155366.98744   1678898.85242  20565818.2534   20565813.1204
        58.0004         51.0004
  23630589.1214   -3373972.33343  -2621906.09442  23630592.2874   23630587.6794
        48.0004         42.0004
  23602704.6674   -4162069.75443  -3238914.77042  23602704.8384   23602703.2484
        47.0004         41.0004
  24542187.6954    6515006.77143   5069674.88942  24542190.1274   24542186.9214
        44.0004         38.0004
  22650724.2334    1069250.88943    833948.25442  22650726.7214   22650722.1824
        51.0004         44.0004
  21762440.4504    -895110.45543   -693728.02942  21762442.2784   21762438.2444
        53.0004         46.0004
 04  6 23 15 20 40.0000000  0  9G22G21G18G 6G16G15G30G29G26
  23074047.8254   -5224777.64443  -4065804.81942  23074048.7694   23074042.0614
        51.0004         44.0004
  20881763.4344   -1312993.43944  -1021459.24642  20881764.5674   20881758.3634
        57.0004         50.0004
  20943939.7164   -3065505.45544  -2348631.90942  20943941.0204   20943935.2794
        57.0004         50.0004
  20571070.8074    2182978.84644   1700414.56342  20571072.8094   20571067.6634
        58.0004         51.0004
  23627477.4534   -3390330.08443  -2634652.42242  23627477.5724   23627474.0624
        48.0004         41.0004
  23593369.2944   -4211121.77543  -3277137.08542  23593370.4304   23593366.8164
        48.0004         41.0004
  24554760.0734    6581073.38543   5121155.33542  24554762.3884   24554757.5734
        44.0004         38.0004
  22653942.6244    1086161.81043    847125.59142  22653944.6374   22653940.0624
        50.0004         44.0004
  21761781.5154    -898568.22243   -696422.38742  21761784.4614   21761780.1074
        52.0004         46.0004
 04  6 23 15 21  0.0000000  0  9G22G21G18G 6G16G15G30G29G26
  23062732.4194   -5284239.52743  -4112138.72342  23062732.8984   23062728.3814
        51.0004         44.0004
  20878438.1014   -1330468.15044  -1035075.90942  20878439.5184   20878433.0314
        57.0004         50.0004
  20937895.8384   -3097265.71544  -2373380.16242  20937897.7694   20937891.6044
        57.0004         50.0004
  20576365.8354    2210804.69644   1722097.02042  20576367.6564   20576362.5854
        58.0004         51.0004
  23624409.8694   -3406451.63743  -2647214.69442  23624410.0644   23624407.2394
        49.0004         41.0004
  23584038.7464   -4260151.56943  -3315342.10242  23584040.4124   23584037.2494
        47.0004         41.0004
  24567322.8064    6647096.45943   5172601.87042  24567326.0864   24567322.8304
        43.0004         37.0004
  22657208.5834    1103318.35143    860494.30942  22657210.2164   22657205.3564
        51.0004         44.0004
  21761180.5004    -901731.06743   -698886.93642  21761182.8914   21761178.1654
        53.0004         46.0004
 04  6 23 15 21 20.0000000  0  9G22G21G18G 6G16G15G30G29G26
  23051439.4814   -5343586.85343  -4158383.37042  23051439.8494   23051433.7224
        52.0004         44.0004
  20875126.4044   -1347870.83844  -1048636.45142  20875127.6994   20875121.4714
        57.0004         50.0004
  20931887.4064   -3128840.35044  -2397983.77042  20931888.9154   20931882.9894
        57.0004         51.0004
  20581700.4324    2238838.82744   1743941.77542  20581702.3954   20581697.3554
        58.0004         51.0004
  23621385.0584   -3422342.42043  -2659597.13542  23621385.7064   23621383.8804
        48.0004         41.0004
  23574713.0674   -4309164.72043  -3353534.14042  23574714.1294   23574709.8174
        48.0004         41.0004
  24579877.9124    6713069.78443   5224009.59942  24579877.5224   24579879.7134
        44.0004         37.0004
  22660517.9064    1120714.87543    874050.03442  22660519.9064   22660515.4794
        51.0004         44.0004
  21760633.3044    -904604.35343   -701125.86542  21760636.4504   21760631.3214
        53.0004         46.0004
 04  6 23 15 21 40.0000000  0  9G22G21G18G 6G16G15G30G29G26
  23040168.8414   -5402813.96143  -4204534.34642  23040169.1374   23040163.9234
        52.0004         44.0004
  20871829.5914   -1365196.29244  -1062136.81342  20871831.1414   20871824.2394
        57.0004         50.0004
  20925915.3844   -3160223.95444  -2422438.52142  20925917.4014   20925910.8934
        57.0004         51.0004
  20587075.9084    2267086.34944   1765952.81042  20587077.7724   20587072.6264
        58.0004         51.0004
  23618406.0564   -3437996.99043  -2671795.53842  23618407.4434   23618402.8414
        48.0004         41.0004
  23565388.9844   -4358155.97043  -3391709.12242  23565389.8014   23565387.9214
        48.0004         40.0004
  24592424.7914    6778997.87843   5275382.11342  24592425.7864   24592422.7684
        43.0004         37.0004
  22663875.0324    1138356.59143    887796.80842  22663876.8974   22663872.0684
        50.0004         44.0004
  21760142.6374    -907182.56043   -703134.84942  21760144.8234   21760140.1834
        53.0004         46.0004
 04  6 23 15 22  0.0000000  0  9G22G21G18G 6G16G15G30G29G26
  23028920.7404   -5461922.16843  -4250592.65942  23028921.0844   23028915.3204
        52.0004         44.0004
  20868547.0424   -1382446.27844  -1075578.36642  20868548.3994   20868541.9184
        57.0004         50.0004
  20919979.3034   -3191418.45844  -2446745.92542  20919980.9224   20919974.6394
        57.0004         51.0004
  20592491.4794    2295545.44044   1788128.70242  20592493.3184   20592488.3744
        58.0004         51.0004
  23615471.5894   -3453417.13643  -2683811.25342  23615472.3234   23615470.0204
        48.0004         42.0004
  23556070.4954   -4407127.22043  -3429868.51342  23556071.7404   23556068.8794
        47.0004         40.0004
  24604960.7874    6844878.16043   5326717.37942  24604961.9664   24604960.4714
        44.0004         37.0004
  22667278.5984    1156241.48043    901733.07742  22667280.8974   22667275.8534
        51.0004         44.0004
  21759708.5154    -909467.35943   -704915.22642  21759710.2654   21759705.1974
        53.0004         46.0004
 04  6 23 15 22 20.0000000  0  9G22G21G18G 6G16G15G30G29G26
  23017695.4894   -5520911.13943  -4296558.06042  23017696.2134   23017691.0794
        51.0004         44.0004
  20865278.8894   -1399620.59244  -1088960.95342  20865280.0644   20865273.5994
        57.0004         50.0004
  20914079.2584   -3222423.74444  -2470905.88842  20914080.8214   20914074.4544
        57.0004         51.0004
  20597947.3084    2324215.80044   1810469.22142  20597949.0434   20597944.0134
        58.0004         51.0004
  23612582.3564   -3468602.81843  -2695644.26342  23612584.2104   23612579.2814
        48.0004         41.0004
  23546755.4754   -4456078.40143  -3468012.27542  23546757.5344   23546754.0494
        47.0004         40.0004
  24617486.4644    6910709.89543   5378014.79842  24617489.2204   24617488.1104
        44.0004         37.0004
  22670728.0174    1174369.17043    915858.52742  22670730.2414   22670725.9034
        51.0004         44.0004
  21759329.2314    -911458.55043   -706466.79142  21759331.1664   21759326.3314
        53.0004         46.0004
 04  6 23 15 22 40.0000000  0  9G22G21G18G 6G16G15G30G29G26
  23006492.9534   -5579779.52243  -4342429.51042  23006492.5074   23006487.3864
        51.0004         44.0004
  20862025.3584   -1416718.07644  -1102283.67242  20862026.6284   20862020.5224
        57.0004         50.0004
  20908215.2654   -3253238.83944  -2494917.64942  20908216.5544   20908210.6604
        57.0004         51.0004
  20603443.4154    2353098.41644   1832975.13142  20603445.4684   20603440.1794
        58.0004         51.0004
  23609737.0174   -3483552.70743  -2707293.54442  23609738.0714   23609735.6664
        48.0004         41.0004
  23537443.6554   -4505008.44243  -3506139.55342  23537444.2764   23537442.3744
        47.0004         40.0004
  24630005.8134    6976493.30143   5429274.55842  24630006.9104   24630004.3474
        44.0004         37.0004
  22674224.7074    1192740.62843    930173.94042  22674226.2864   22674220.9534
        51.0004         44.0004
  21759006.6554    -913154.95243   -707788.66942  21759009.1004   21759004.0644
        53.0004         46.0004
 04  6 23 15 23  0.0000000  0  9G22G21G18G 6G16G15G30G29G26
  22995313.5094   -5638527.96843  -4388207.48942  22995313.9144   22995309.2364
        51.0004         44.0004
  20858786.1154   -1433740.00744  -1115547.52542  20858787.4284   20858781.0864
        57.0004         50.0004
  20902387.4324   -3283864.74944  -2518781.99342  20902388.7124   20902382.9854
        57.0004         50.0004
  20608979.8674    2382191.94444   1855645.39142  20608981.6464   20608976.6604
        58.0004         51.0004
  23606936.8864   -3498268.17943  -2718760.16642  23606937.5064   23606934.0704
        48.0004         41.0004
  23528136.9324   -4553918.55243  -3544251.29442  23528138.2434   23528135.2704
        47.0004         40.0004
  24642515.5654    7042226.42543   5480495.15042  24642517.6544   24642512.9664
        45.0004         37.0004
  22677765.1614    1211354.36843    944678.13542  22677767.7654   22677762.9584
        50.0004         44.0004
  21758739.5114    -914557.56343   -708881.61842  21758741.8424   21758736.8954
        53.0004         46.0004
 04  6 23 15 23 20.0000000  0  9G22G21G18G 6G16G15G30G29G26
  22984156.8534   -5697155.59643  -4433891.33442  22984158.2674   22984151.0954
        52.0004         44.0004
  20855561.5094   -1450685.68444  -1128751.95742  20855562.9414   20855556.2494
        57.0004         50.0004
  20896595.6184   -3314300.67944  -2542498.29942  20896597.0074   20896591.0544
        57.0004         51.0004
  20614556.3234    2411496.64044   1878480.19542  20614558.3354   20614553.0344
        58.0004         51.0004
  23604181.8694   -3512748.49943  -2730043.56542  23604184.7974   23604179.0034
        47.0004         41.0004
  23518833.3224   -4602808.13043  -3582347.05642  23518833.8214   23518832.0824
        46.0004         40.0004
  24655013.8374    7107909.19443   5531676.51842  24655015.7404   24655012.5624
        44.0004         37.0004
  22681354.4244    1230210.79643    959371.44842  22681355.7694   22681351.6964
        51.0004         44.0004
  21758529.0054    -915665.56943   -709745.00242  21758531.1034   21758526.2614
        53.0004         46.0004
 04  6 23 15 23 40.0000000  0  9G22G21G18G 6G16G15G30G29G26
  22973023.2994   -5755664.62643  -4479482.75842  22973023.9934   22973017.4854
        51.0004         44.0004
  20852350.9004   -1467557.49044  -1141898.82642  20852352.2074   20852345.8284
        57.0004         50.0004
  20890839.4884   -3344549.04744  -2566068.45042  20890840.9164   20890835.1434
        57.0004         50.0004
  20620172.7524    2441009.95344   1901477.56042  20620174.4264   20620169.5024
        58.0004         51.0004
  23601470.5934   -3526996.26143  -2741145.72242  23601471.1344   23601467.7314
        49.0004         41.0004
  23509533.9834   -4651679.76043  -3620428.80642  23509534.1054   23509532.2744
        47.0004         41.0004
  24667502.3154    7173538.27143   5582816.02942  24667505.5434   24667501.8024
        45.0004         37.0004
  22684988.0034    1249307.09743    974251.66042  22684990.5784   22684986.2214
        50.0004         44.0004
  21758373.0974    -916481.40543   -710380.72142  21758375.1104   21758370.7564
        53.0004         46.0004
 04  6 23 15 24  0.0000000  0  9G22G21G18G 6G16G15G30G29G26
  22961913.0714   -5814049.20043  -4524977.20942  22961913.9114   22961907.2584
        51.0004         44.0004
  20849155.3914   -1484350.07544  -1154983.96842  20849156.7864   20849150.3694
        57.0004         50.0004
  20885120.0964   -3374604.46044  -2589488.25242  20885121.5854   20885115.8664
        57.0004         50.0004
  20625829.6264    2470737.07044   1924641.53042  20625831.6034   20625826.2274
        58.0004         51.0004
  23598804.3304   -3541005.94743  -2752062.38742  23598806.5214   23598801.3694
        48.0004         41.0004
  23500238.5644   -4700527.95943  -3658492.30342  23500238.9034   23500237.2514
        48.0004         41.0004
  24679982.0704    7239118.31243   5633917.34142  24679984.8674   24679980.4964
        45.0004         37.0004
  22688670.3804    1268648.44343    989322.82642  22688671.3744   22688666.5354
        51.0004         44.0004
  21758275.4464    -916999.53643   -710784.46542  21758277.7974   21758272.2114
        53.0004         46.0004
 04  6 23 15 24 20.0000000  0  9G22G21G18G 6G16G15G30G29G26
  22950825.6254   -5872313.65743  -4570378.07342  22950826.5874   22950820.8904
        52.0004         44.0004
  20845974.2094   -1501067.87844  -1168010.83642  20845975.7064   20845969.0964
        57.0004         50.0004
  20879436.5544   -3404471.52244  -2612761.28642  20879438.0694   20879432.0134
        57.0004         50.0004
  20631526.1764    2500673.26444   1947968.41242  20631528.0454   20631522.9314
        58.0004         51.0004
  23596183.0834   -3554781.98243  -2762796.98542  23596182.9614   23596179.5554
        47.0004         41.0004
  23490945.7524   -4749357.32343  -3696541.13642  23490947.3164   23490945.3854
        48.0004         41.0004
  24692450.6924    7304643.95743   5684976.26442  24692451.4394   24692451.4754
        44.0004         38.0004
  22692394.5744    1288230.11143   1004581.25842  22692396.4174   22692392.7734
        50.0004         44.0004
  21758231.7584    -917224.35443   -710959.64442  21758234.2574   21758229.6224
        53.0004         46.0004
 04  6 23 15 24 40.0000000  0  9G22G21G18G 6G16G15G30G29G26
  22939761.8804   -5930454.67743  -4615682.74742  22939763.0084   22939756.5284
        52.0004         44.0004
  20842807.6774   -1517707.97744  -1180977.15842  20842809.2264   20842802.6324
        57.0004         50.0004
  20873789.4234   -3434147.25244  -2635885.22942  20873791.1404   20873784.9754
        57.0004         51.0004
  20637263.1024    2530821.16244   1971460.26242  20637265.1074   20637259.9584
        58.0004         51.0004
  23593606.4864   -3568321.61943  -2773347.36842  23593608.0504   23593603.1954
        48.0004         41.0004
  23481657.4954   -4798165.11643  -3734573.14442  23481660.1394   23481658.0844
        47.0004         42.0004
  24704909.8974    7370117.30343   5735994.44042  24704913.1714   24704910.4924
        45.0004         38.0004
  22696167.7604    1308054.52043   1020028.82842  22696168.9594   22696165.2144
        50.0004         44.0004
  21758246.4514    -917152.98943   -710904.04242  21758248.0814   21758243.2634
        54.0004         46.0004
 04  6 23 15 25  0.0000000  0  8G22G21G18G 6G16G15G29G26
  22928721.0444   -5988475.62143  -4660893.85542  22928721.8094   22928715.8904
        52.0004         44.0004
  20839655.1154   -1534274.08744  -1193885.82542  20839656.6004   20839649.8494
        57.0004         50.0004
  20868178.1444   -3463635.20744  -2658862.85442  20868179.6524   20868173.6044
        57.0004         51.0004
  20643039.7634    2561176.96944   1995114.11742  20643041.5014   20643036.4604
        58.0004         51.0004
  23591074.2374   -3581628.39443  -2783716.30842  23591073.8314   23591071.7394
        48.0004         41.0004
  23472373.9674   -4846954.81143  -3772591.07542  23472375.3184   23472373.3874
        48.0004         42.0004
  22699986.0454    1328117.86843   1035662.58842  22699988.2514   22699983.3894
        51.0004         44.0004
  21758313.2044    -916788.87843   -710620.31942  21758316.5914   21758312.5344
        53.0004         46.0004
 04  6 23 15 25 20.0000000  0  8G22G21G18G 6G16G15G29G26
  22917703.2664   -6046373.24443  -4706008.86742  22917703.4874   22917698.3314
        52.0004         44.0004
  20836517.4394   -1550762.97944  -1206734.32342  20836519.0864   20836512.4834
        57.0004         50.0004
  20862603.0074   -3492932.45344  -2681691.87742  20862604.5684   20862598.7394
        57.0004         51.0004
  20648856.1814    2591743.31244   2018932.02542  20648858.1174   20648852.8184
        58.0004         51.0004
  23588586.7874   -3594699.28443  -2793901.44242  23588587.5394   23588584.9164
        47.0004         41.0004
  23463094.0364   -4895723.59043  -3810592.69942  23463096.0744   23463093.4984
        49.0004         42.0004
  22703850.3834    1348422.83143   1051484.63842  22703851.4974   22703846.9724
        51.0004         44.0004
  21758441.0614    -916129.00243   -710106.14242  21758442.8214   21758437.8774
        53.0004         46.0004
 04  6 23 15 25 40.0000000  0  8G22G21G18G 6G16G15G29G26
  22906709.7194   -6104145.00143  -4751025.79742  22906710.3434   22906704.7074
        52.0004         44.0004
  20833394.8894   -1567172.35744  -1219520.85542  20833396.3664   20833389.8104
        57.0004         50.0004
  20857064.6964   -3522036.85344  -2704370.62742  20857066.2844   20857060.1854
        57.0004         51.0004
  20654713.3414    2622522.26544   2042915.60542  20654715.2194   20654710.0914
        57.0004         51.0004
  23586144.8144   -3607532.25943  -2803901.17042  23586146.4154   23586140.0404
        48.0004         41.0004
  23453818.2424   -4944469.24243  -3848576.28742  23453819.9764   23453816.5514
        49.0004         42.0004
  22707760.0884    1368971.34043   1067496.43942  22707762.6814   22707757.3964
        51.0004         44.0004
  21758622.4454    -915171.03243   -709359.67142  21758625.3654   21758620.4774
        53.0004         46.0004
 04  6 23 15 26  0.0000000  0  8G22G21G18G 6G16G15G29G26
  22895738.5624   -6161797.06243  -4795949.44542  22895739.1204   22895733.5544
        51.0004         44.0004
  20830286.3774   -1583508.68144  -1232250.46442  20830287.8464   20830281.2884
        57.0004         50.0004
  20851561.8294   -3550954.57344  -2726903.91242  20851563.4624   20851557.6554
        57.0004         51.0004
  20660609.5424    2653507.17044   2067059.66542  20660611.4154   20660606.2274
        57.0004         51.0004
  23583746.4904   -3620133.69843  -2813720.50342  23583748.0404   23583742.3644
        48.0004         41.0004
  23444544.6524   -4993198.21743  -3886546.88742  23444547.3354   23444541.4924
        49.0004         42.0004
  22711714.7374    1389756.57743   1083692.72842  22711716.9884   22711712.4784
        51.0004         44.0004
  21758859.8534    -913921.35343   -708385.90642  21758862.6624   21758858.0994
        53.0004         46.0004
 04  6 23 15 26 20.0000000  0  8G22G21G18G 6G16G15G29G26
  22884791.6844   -6219322.34343  -4840774.31842  22884792.9854   22884786.8514
        51.0004         44.0004
  20827192.7604   -1599765.22344  -1244917.90442  20827194.0284   20827187.5274
        57.0004         50.0004
  20846095.6914   -3579679.27144  -2749286.79242  20846097.5004   20846091.2834
        57.0004         51.0004
  20666546.0404    2684704.39844   2091369.17642  20666547.9834   20666542.9554
        57.0004         51.0004
  23581395.3314   -3632496.83243  -2823354.15042  23581397.3834   23581389.8834
        48.0004         41.0004
  23435276.6984   -5041903.88843  -3924499.33642  23435278.6514   23435274.4914
        48.0004         42.0004
  22715717.0034    1410785.03343   1100078.51342  22715719.0254   22715714.3224
        51.0004         44.0004
  21759154.9854    -912373.20143   -707179.56442  21759157.0514   21759152.6384
        53.0004         46.0004
 04  6 23 15 26 40.0000000  0  8G22G21G18G 6G16G15G29G26
  22873868.5164   -6276724.85943  -4885503.52542  22873869.6804   22873863.3314
        52.0004         44.0004
  20824113.5364   -1615946.31944  -1257526.55642  20824115.0754   20824108.6194
        57.0004         50.0004
  20840665.4754   -3608215.21144  -2771522.58542  20840666.9824   20840661.2294
        57.0004         51.0004
  20672522.4324    2716109.31544   2115840.52042  20672524.0784   20672519.5084
        58.0004         51.0004
  23579086.0134   -3644626.31643  -2832805.71442  23579087.7134   23579082.9584
        48.0004         41.0004
  23426012.0794   -5090590.79743  -3962437.16242  23426012.9114   23426010.7274
        48.0004         41.0004
  22719763.3504    1432051.93043   1116650.12142  22719765.8294   22719760.8444
        50.0004         44.0004
  21759504.7304    -910530.97343   -705744.06942  21759507.6014   21759503.4734
        53.0004         46.0004
 04  6 23 15 27  0.0000000  0  8G22G21G18G 6G16G15G29G26
  22862969.3234   -6334000.63243  -4930133.97242  22862969.8904   22862963.7584
        52.0004         44.0004
  20821049.5494   -1632048.21944  -1270073.49842  20821050.6964   20821044.1864
        57.0004         50.0004
  20835271.8044   -3636558.54344  -2793608.29542  20835273.5224   20835267.4524
        57.0004         51.0004
  20678538.7414    2747725.45044   2140476.44742  20678540.3564   20678535.6034
        58.0004         51.0004
  23576822.3154   -3656518.27243  -2842072.20742  23576823.9524   23576821.1654
        48.0004         40.0004
  23416751.3514   -5139255.03443  -4000357.32142  23416753.1594   23416748.8294
        47.0004         41.0004
  22723856.4784    1453560.80143   1133410.25642  22723859.1434   22723854.4574
        51.0004         44.0004
  21759912.9464    -908390.77743   -704076.38942  21759915.6424   21759910.5984
        53.0004         46.0004
 04  6 23 15 27 20.0000000  0  8G22G21G18G 6G16G15G29G26
  22852093.5594   -6391152.47543  -4974667.85442  22852093.4634   22852088.2184
        52.0004         44.0004
  20818000.0344   -1648073.86544  -1282561.02142  20818001.5244   20817994.7694
        57.0004         50.0004
  20829914.0634   -3664712.62244  -2815546.53242  20829915.9124   20829909.8174
        57.0004         51.0004
  20684594.8344    2779549.51644   2165274.39942  20684596.7244   20684591.6614
        57.0004         51.0004
  23574604.0734   -3668175.87143  -2851156.06242  23574604.6864   23574602.2544
        47.0004         40.0004
  23407494.1824   -5187899.82443  -4038262.31842  23407494.0064   23407493.3244
        48.0004         41.0004
  22727995.3694    1475308.12443   1150356.21242  22727997.0694   22727992.6344
        51.0004         44.0004
  21760376.1284    -905955.73043   -702178.95542  21760378.3654   21760374.4294
        53.0004         46.0004
 04  6 23 15 27 40.0000000  0  8G22G21G18G 6G16G15G29G26
  22841241.7754   -6448178.99443  -5019104.09042  22841241.7944   22841237.0234
        52.0004         45.0004
  20814965.1434   -1664022.17844  -1294988.28742  20814966.5264   20814959.9144
        57.0004         50.0004
  20824593.1194   -3692676.21444  -2837336.34542  20824594.3954   20824588.5674
        57.0004         51.0004
  20690690.3014    2811582.24544   2190234.94342  20690692.1454   20690687.3724
        58.0004         51.0004
  23572431.2884   -3679598.05143  -2860056.50442  23572433.5764   23572427.1924
        48.0004         41.0004
  23398241.4594   -5236524.15943  -4076151.37442  23398242.3404   23398238.4174
        48.0004         41.0004
  22732178.6884    1497294.73143   1167488.62142  22732180.7314   22732176.2674
        50.0004         44.0004
  21760897.2124    -903224.81743   -700050.97942  21760898.6094   21760893.8834
        54.0004         46.0004
 04  6 23 15 28  0.0000000  0  8G22G21G18G 6G16G15G29G26
  22830414.0044   -6505081.00643  -5063443.30442  22830414.6384   22830408.8254
        52.0004         45.0004
  20811944.9274   -1679894.27744  -1307356.16042  20811946.3344   20811939.8484
        57.0004         50.0004
  20819307.7574   -3720450.28444  -2858978.47542  20819309.4154   20819303.4944
        57.0004         51.0004
  20696825.4504    2843822.22044   2215356.98642  20696827.0704   20696822.3934
        57.0004         51.0004
  23570301.5534   -3690786.05643  -2868774.45542  23570304.5194   23570300.7034
        47.0004         41.0004
  23388992.6454   -5285129.15243  -4114025.37442  23388993.2964   23388990.6694
        48.0004         41.0004
  22736408.3064    1519518.98543   1184806.20542  22736410.6224   22736405.8174
        51.0004         44.0004
  21761472.2514    -900198.98143   -697693.18942  21761474.2844   21761469.9884
        53.0004         46.0004
 04  6 23 15 28 20.0000000  0  8G22G21G18G 6G16G15G29G26
  22819610.3584   -6561854.86043  -5107682.65542  22819611.5864   22819604.7474
        52.0004         45.0004
  20808939.5784   -1695686.95744  -1319662.15342  20808941.0534   20808934.2614
        57.0004         50.0004
  20814059.1864   -3748031.77244  -2880470.53842  20814060.6474   20814054.8804
        57.0004         51.0004
  20703000.5394    2876272.58644   2240642.95842  20703002.1694   20702997.5314
        57.0004         51.0004
  23568218.2204   -3701736.69743  -2877307.44342  23568219.6594   23568214.5214
        47.0004         41.0004
  23379747.4204   -5333711.49343  -4151881.72042  23379748.1324   23379746.3244
        49.0004         41.0004
  22740683.6834    1541983.97243   1202311.37642  22740685.2104   22740680.4764
        50.0004         44.0004
  21762105.5914    -896874.95743   -695103.04742  21762107.0334   21762102.2254
        54.0004         46.0004
 04  6 23 15 28 40.0000000  0  8G22G21G18G 6G16G15G29G26
  22808830.5144   -6618502.68343  -5151823.79242  22808831.0694   22808824.6604
        52.0004         45.0004
  20805949.0624   -1711402.26544  -1331907.85642  20805950.3154   20805943.8974
        57.0004         50.0004
  20808846.8084   -3775422.99544  -2901814.34642  20808848.3604   20808842.4854
        57.0004         51.0004
  20709215.3934    2908930.58344   2266090.72242  20709217.1014   20709212.1994
        57.0004         51.0004
  23566179.3254   -3712452.17243  -2885657.19542  23566179.8854   23566176.1464
        47.0004         40.0004
  23370505.8824   -5382273.51143  -4189722.23042  23370507.6344   23370504.7374
        49.0004         42.0004
  22745003.1044    1564686.94643   1220001.99342  22745005.6874   22745001.5984
        51.0004         44.0004
  21762793.3394    -893255.05543   -692282.34742  21762795.9084   21762791.3564
        53.0004         46.0004
 04  6 23 15 29  0.0000000  0  8G22G21G18G 6G16G15G29G26
  22798074.5184   -6675024.87143  -5195867.03942  22798074.5224   22798068.6184
        52.0004         45.0004
  20802973.0274   -1727041.02544  -1344093.91242  20802974.4524   20802967.7604
        57.0004         50.0004
  20803670.6434   -3802624.74244  -2923010.51042  20803672.1334   20803666.0714
        57.0004         51.0004
  20715469.1174    2941795.39944   2291699.64842  20715471.0834   20715466.1014
        57.0004         51.0004
  23564184.2454   -3722933.30843  -2893824.33842  23564185.3504   23564182.6694
        48.0004         40.0004
  23361268.5284   -5430816.16143  -4227547.65142  23361269.9104   23361266.2514
        49.0004         42.0004
  22749368.0124    1587626.87743   1237877.25242  22749369.9924   22749365.9924
        50.0004         44.0004
  21763538.0384    -889340.10143   -689231.73242  21763540.5744   21763536.1054
        54.0004         46.0004
 04  6 23 15 29 20.0000000  0  8G22G21G18G 6G16G15G29G26
  22787343.1064   -6731418.01943  -5239809.72342  22787343.9454   22787338.3324
        52.0004         45.0004
  20800012.4524   -1742599.55244  -1356217.44642  20800013.6994   20800007.3434
        57.0004         50.0004
  20798530.8624   -3829633.94344  -2944056.64042  20798532.3914   20798526.3734
        57.0004         51.0004
  20721763.0504    2974869.63144   2317471.75442  20721764.7714   20721759.7104
        57.0004         50.0004
  23562234.8964   -3733177.29343  -2901806.69742  23562237.6164   23562232.9554
        48.0004         40.0004
  23352034.9474   -5479336.33643  -4265355.55142  23352036.2214   23352034.1234
        49.0004         42.0004
  22753779.1144    1610806.47443   1255939.25742  22753781.4924   22753777.2794
        50.0004         44.0004
  21764339.9904    -885126.98043   -685948.79142  21764342.8994   21764337.7084
        54.0004         46.0004
 04  6 23 15 29 40.0000000  0  8G22G21G18G 6G16G15G29G26
  22776636.0784   -6787683.20643  -5283652.69042  22776636.4544   22776631.3184
        52.0004         45.0004
  20797066.3934   -1758079.76744  -1368279.95942  20797068.0164   20797061.4964
        57.0004         50.0004
  20793427.6454   -3856451.86644  -2964953.72242  20793429.2124   20793423.1304
        57.0004         51.0004
  20728096.3344    3008151.77944   2343405.87542  20728098.1944   20728093.4044
        57.0004         50.0004
  23560330.4844   -3743185.31743  -2909605.18942  23560331.8634   23560329.6124
        48.0004         40.0004
  23342806.3564   -5527835.36443  -4303146.97142  23342808.0964   23342804.9544
        49.0004         42.0004
  22758235.6624    1634224.20343   1274186.81942  22758238.1214   22758233.4764
        50.0004         44.0004
  21765198.9324    -880616.94243   -682434.46942  21765200.6424   21765196.3454
        54.0004         46.0004
 04  6 23 15 30  0.0000000  0  8G22G21G18G 6G16G15G29G26
  22765953.6034   -6843820.82843  -5327396.27342  22765954.3564   22765949.1274
        52.0004         45.0004
  20794135.4304   -1773482.39844  -1380282.02042  20794136.9314   20794130.5794
        57.0004         50.0004
  20788360.5764   -3883079.21044  -2985702.30042  20788362.1414   20788356.1974
        57.0004         51.0004
  20734469.0924    3041640.88444   2369501.25942  20734470.9954   20734466.2114
        57.0004         50.0004
  23558471.3264   -3752958.28143  -2917220.53042  23558471.9504   23558468.6644
        48.0004         41.0004
  23333580.8904   -5576314.07943  -4340922.56042  23333582.0034   23333580.9124
        49.0004         42.0004
  22762737.7204    1657878.82043   1292618.97142  22762739.9804   22762735.1524
        51.0004         44.0004
  21766113.3974    -875810.66043   -678689.33542  21766114.8104   21766110.3504
        53.0004         46.0004
 04  6 23 15 30 20.0000000  0  8G22G21G18G 6G16G15G29G26
  22755295.0174   -6899831.40243  -5371040.85042  22755295.6534   22755289.5274
        53.0004         45.0004
  20791219.2694   -1788807.85944  -1392223.94342  20791220.6484   20791213.9674
        57.0004         50.0004
  20783329.6564   -3909516.75244  -3006302.98142  20783331.2494   20783325.0474
        57.0004         51.0004
  20740881.1984    3075335.90544   2395757.09742  20740882.9484   20740877.9704
        57.0004         50.0004
  23556656.1114   -3762496.92943  -2924653.26842  23556658.4824   23556653.0604
        47.0004         41.0004
  23324359.8624   -5624773.19443  -4378682.88542  23324361.1014   23324357.1404
        48.0004         42.0004
  22767282.1424    1681769.31743   1311234.92542  22767285.3104   22767280.6174
        50.0004         44.0004
  21767084.2474    -870709.05043   -674714.04442  21767085.3254   21767081.4364
        54.0004         46.0004
 04  6 23 15 30 40.0000000  0  8G22G21G18G 6G16G15G29G26
  22744661.6394   -6955712.38343  -5414584.45042  22744662.0214   22744657.1414
        52.0004         45.0004
  20788317.9684   -1804053.50644  -1404103.67642  20788319.6994   20788312.8044
        57.0004         50.0004
  20778335.2404   -3935762.59544  -3026754.28342  20778336.7044   20778330.8274
        57.0004         51.0004
  20747332.7514    3109238.78344   2422174.89942  20747334.4114   20747329.5954
        57.0004         50.0004
  23554886.4664   -3771799.15943  -2931901.78442  23554887.8154   23554883.5164
        48.0004         41.0004
  23315141.8624   -5673210.54643  -4416426.22442  23315143.9684   23315140.9364
        48.0004         42.0004
  22771875.3084    1705897.50643   1330036.09242  22771876.6264   22771872.4954
        50.0004         44.0004
  21768109.4184    -865309.83543   -670506.87942  21768113.1044   21768108.4314
        53.0004         46.0004
 04  6 23 15 31  0.0000000  0  8G22G21G18G 6G16G15G29G26
  22734052.3064   -7011464.08243  -5458027.31942  22734053.3754   22734046.8434
        52.0004         45.0004
  20785431.9574   -1819220.39844  -1415922.03942  20785433.2184   20785426.9294
        57.0004         50.0004
  20773377.1504   -3961817.12944  -3047056.51542  20773378.7984   20773373.1534
        57.0004         51.0004
  20753823.5254    3143348.63344   2448753.98342  20753825.3254   20753820.4784
        58.0004         50.0004
  23553161.1874   -3780865.59443  -2938966.56442  23553163.0464   23553158.7484
        48.0004         41.0004
  23305929.1184   -5721626.62543  -4454153.00442  23305930.5794   23305929.0674
        48.0004         42.0004
  22776510.5264    1730262.50843   1349021.79042  22776513.9164   22776508.9254
        50.0004         44.0004
  21769195.5954    -859613.62043   -666068.27042  21769197.0144   21769192.1044
        54.0004         46.0004
 04  6 23 15 31 20.0000000  0  8G22G21G18G 6G16G15G29G26
  22723467.3574   -7067088.07543  -5501370.67042  22723468.7444   22723461.5104
        52.0004         45.0004
  20782560.5004   -1834310.07544  -1427680.23942  20782561.9394   20782555.1384
        57.0004         50.0004
  20768455.2684   -3987682.26444  -3067211.15942  20768456.7334   20768450.8004
        57.0004         51.0004
  20760353.4444    3177663.41944   2475492.75342  20760355.0464   20760350.4644
        57.0004         50.0004
  23551480.0294   -3789698.24343  -2945849.17642  23551481.3944   23551477.5404
        48.0004         41.0004
  23296719.9814   -5770023.25643  -4491864.63842  23296719.6194   23296718.6904
        48.0004         42.0004
  22781193.0284    1754862.09143   1368190.27642  22781195.5714   22781190.2224
        51.0004         44.0004
  21770334.7514    -853622.20543   -661399.65042  21770337.4694   21770332.5394
        53.0004         46.0004
 04  6 23 15 31 40.0000000  0  8G22G21G18G 6G16G15G29G26
  22712907.1144   -7122582.04643  -5544612.71042  22712907.1484   22712901.5654
        52.0004         45.0004
  20779703.9534   -1849320.77244  -1439376.89642  20779705.4084   20779698.8814
        57.0004         50.0004
  20763569.6654   -4013356.22744  -3087216.84042  20763571.4764   20763565.2784
        57.0004         51.0004
  20766922.4684    3212184.55644   2502392.31642  20766924.4084   20766919.5034
        57.0004         50.0004
  23549843.4974   -3798295.22743  -2952548.13942  23549846.5694   23549839.5974
        48.0004         41.0004
  23287513.9174   -5818398.61743  -4529559.70042  23287515.4394   23287512.6564
        48.0004         42.0004
  22785918.1104    1779697.62243   1387542.62842  22785919.9074   22785915.9664
        49.0004         44.0004
  21771532.4484    -847333.77443   -656499.57942  21771534.1774   21771529.1164
        54.0004         46.0004
 04  6 23 15 32  0.0000000  0  8G22G21G18G 6G16G15G29G26
  22702372.1414   -7177945.08043  -5587752.71942  22702372.2044   22702366.7714
        52.0004         45.0004
  20776862.8914   -1864251.34144  -1451011.11242  20776864.2914   20776857.8294
        57.0004         50.0004
  20758720.6854   -4038837.96744  -3107072.73742  20758722.2374   20758716.4044
        57.0004         51.0004
  20773531.0154    3246912.72044   2529453.19242  20773533.0264   20773528.2574
        57.0004         50.0004
  23548253.9114   -3806655.85943  -2959062.96042  23548256.2234   23548251.2984
        48.0004         41.0004
  23278312.7304   -5866752.06543  -4567237.68242  23278313.7744   23278311.2804
        48.0004         42.0004
  22790691.3074    1804769.71943   1407079.29042  22790691.8744   22790687.0654
        49.0004         44.0004
  21772785.6234    -840747.55943   -651367.46842  21772787.1884   21772783.2094
        53.0004         46.0004
 04  6 23 15 32 20.0000000  0  8G22G21G18G 6G16G15G29G26
  22691861.1854   -7233179.18143  -5630792.25542  22691861.3864   22691855.5034
        53.0004         45.0004
  20774036.3254   -1879104.21144  -1462584.78242  20774037.8814   20774031.2424
        57.0004         50.0004
  20753907.7404   -4064129.89344  -3126780.73142  20753909.4164   20753903.2314
        57.0004         51.0004
  20780178.6694    3281845.23044   2556673.30542  20780180.7774   20780175.6144
        57.0004         50.0004
  23546706.9744   -3814782.59543  -2965395.50242  23546708.8814   23546704.8574
        48.0004         41.0004
  23269115.5934   -5915085.65343  -4604900.20142  23269117.1934   23269113.3364
        49.0004         42.0004
  22795505.9634    1830075.80043   1426798.29342  22795508.1714   22795502.8894
        51.0004         44.0004
  21774094.7364    -833865.95243   -646005.19142  21774096.7464   21774091.9584
        53.0004         46.0004
 04  6 23 15 32 40.0000000  0  8G22G21G18G 6G16G15G29G26
  22681375.2474   -7288282.54043  -5673729.91742  22681376.1324   22681370.1444
        53.0004         45.0004
  20771225.1604   -1893877.58344  -1474096.50942  20771226.6504   20771220.0024
        57.0004         50.0004
  20749131.2264   -4089230.69844  -3146339.79942  20749132.8364   20749126.7754
        57.0004         51.0004
  20786865.3224    3316983.33544   2584053.61942  20786867.1944   20786862.3504
        57.0004         50.0004
  23545204.2304   -3822674.07343  -2971544.71942  23545204.9874   23545202.9444
        48.0004         42.0004
  23259922.2984   -5963398.05943  -4642546.22742  23259922.7514   23259919.8724
        49.0004         42.0004
  22800365.6194    1855616.71143   1446700.28342  22800368.0514   22800363.2344
        50.0004         44.0004
  21775460.3384    -826687.54543   -640411.63342  21775463.2124   21775457.9904
        53.0004         46.0004
 04  6 23 15 33  0.0000000  0  8G22G21G18G 6G16G15G29G26
  22670914.8744   -7343253.02743  -5716564.04442  22670915.8234   22670909.3074
        53.0004         45.0004
  20768429.3474   -1908569.75644  -1485544.96442  20768430.7764   20768424.3054
        57.0004         50.0004
  20744391.4794   -4114138.73744  -3165748.65742  20744392.9054   20744387.2094
        57.0004         51.0004
  20793591.3144    3352328.48544   2611595.27142  20793593.0014   20793588.3114
        57.0004         50.0004
  23543749.0574   -3830328.53143  -2977509.26142  23543749.2654   23543746.2894
        49.0004         41.0004
  23250732.7344   -6011687.52943  -4680174.37142  23250732.0454   23250729.6404
        49.0004         42.0004
  22805270.2174    1881394.00143   1466786.47142  22805272.9534   22805268.4264
        50.0004         44.0004
  21776884.2244    -819210.40843   -634585.30042  21776886.0574   21776881.7604
        54.0004         46.0004
 04  6 23 15 33 20.0000000  0  8G22G21G18G 6G16G15G29G26
  22660479.8084   -7398091.00143  -5759294.91342  22660480.5784   22660474.1534
        53.0004         46.0004
  20765649.1194   -1923181.35844  -1496930.63242  20765650.2544   20765643.7574
        57.0004         50.0004
  20739688.2174   -4138854.62944  -3185007.79242  20739689.7644   20739683.8164
        57.0004         51.0004
  20800356.4174    3387879.68444   2639297.48042  20800358.2084   20800353.5834
        57.0004         50.0004
  23542336.7534   -3837746.71143  -2983289.68142  23542337.0534   23542334.7974
        49.0004         41.0004
  23241548.4014   -6059954.59843  -4717785.06042  23241549.2054   23241545.8504
        49.0004         42.0004
  22810220.5424    1907406.54643   1487055.96542  22810222.6954   22810219.1534
        49.0004         43.0004
  21778362.2084    -811435.53043   -628526.97142  21778365.6124   21778360.4084
        53.0004         46.0004
 04  6 23 15 33 40.0000000  0  8G22G21G18G 6G16G15G29G26
  22650068.6874   -7452800.36343  -5801925.56342  22650069.1954   22650062.9504
        53.0004         46.0004
  20762882.9764   -1937716.42044  -1508256.65942  20762884.5974   20762877.7444
        57.0004         50.0004
  20735020.6054   -4163382.52844  -3204120.43842  20735021.9614   20735016.2404
        57.0004         51.0004
  20807159.7584    3423632.43844   2667156.74542  20807161.9724   20807156.8774
        57.0004         50.0004
  23540969.0314   -3844932.96443  -2988889.38342  23540971.4824   23540965.6104
        48.0004         41.0004
  23232366.1134   -6108203.53943  -4755381.62042  23232367.2324   23232363.3624
        49.0004         42.0004
  22815214.7924    1933649.87743   1507505.30042  22815216.8254   22815212.3774
        50.0004         44.0004
  21779899.4164    -803367.01643   -622239.82342  21779901.2164   21779895.7834
        54.0004         46.0004
 04  6 23 15 34  0.0000000  0  8G22G21G18G 6G16G15G29G26
  22639683.1704   -7507376.46243  -5844452.37242  22639683.7994   22639678.7804
        53.0004         45.0004
  20760132.7414   -1952170.17244  -1519519.32842  20760134.1024   20760127.3194
        57.0004         50.0004
  20730389.7004   -4187718.04244  -3223083.17742  20730391.3804   20730385.2154
        57.0004         51.0004
  20814002.6704    3459590.93844   2695176.32942  20814004.6774   20813999.7884
        57.0004         50.0004
  23539647.8364   -3851882.92643  -2994304.97542  23539647.2284   23539646.0574
        49.0004         41.0004
  23223188.8454   -6156429.96943  -4792960.63142  23223189.9044   23223186.8094
        48.0004         42.0004
  22820253.2864    1960127.99043   1528137.57942  22820255.5414   22820251.6444
        50.0004         43.0004
  21781490.1834    -795000.49243   -615720.47142  21781492.9134   21781487.5674
        53.0004         46.0004
 04  6 23 15 34 20.0000000  0  8G22G21G18G 6G16G15G29G26
  22629322.8354   -7561819.91243  -5886875.82042  22629323.5084   22629317.1704
        53.0004         45.0004
  20757397.4694   -1966543.62944  -1530719.43242  20757398.8054   20757391.9864
        57.0004         50.0004
  20725795.1594   -4211862.43644  -3241896.98642  20725796.6274   20725790.7204
        57.0004         51.0004
  20820884.1754    3495753.98244   2723355.30042  20820886.2994   20820881.2564
        57.0004         50.0004
  23538368.9394   -3858597.71343  -2999537.30242  23538371.5254   23538366.9524
        49.0004         41.0004
  23214016.7354   -6204634.75843  -4830522.78642  23214015.9134   23214015.5174
        48.0004         42.0004
  22825337.2864    1986839.61143   1548951.82142  22825338.6674   22825334.3224
        50.0004         44.0004
  21783140.1754    -786337.02143   -608969.72642  21783141.5454   21783136.7444
        54.0004         46.0004
 04  6 23 15 34 40.0000000  0  8G22G21G18G 6G16G15G29G26
  22618987.7324   -7616129.44543  -5929194.92442  22618988.0194   22618983.4794
        52.0004         45.0004
  20754677.6504   -1980835.72144  -1541856.13142  20754679.0364   20754672.5354
        57.0004         50.0004
  20721237.1124   -4235814.59644  -3260561.00642  20721238.7854   20721232.6814
        57.0004         51.0004
  20827805.0334    3532122.20444   2751694.14842  20827806.8424   20827801.8894
        57.0004         50.0004
  23537136.0794   -3865076.28543  -3004585.56942  23537138.9084   23537133.4024
        48.0004         41.0004
  23204847.0994   -6252816.83043  -4868067.23042  23204848.1964   23204844.9134
        48.0004         42.0004
  22830463.4514    2013785.31543   1569948.46242  22830465.9454   22830462.3374
        50.0004         44.0004
  21784844.3974    -777375.65743   -601986.85242  21784846.9784   21784841.9744
        53.0004         46.0004
 04  6 23 15 35  0.0000000  0  8G22G21G18G 6G16G15G29G26
  22608677.9454   -7670309.22543  -5971412.90642  22608678.6684   22608672.7084
        52.0004         45.0004
  20751972.5574   -1995051.08444  -1552933.04442  20751973.9524   20751967.2374
        57.0004         50.0004
  20716715.0294   -4259578.82944  -3279078.59042  20716716.7814   20716710.5164
        57.0004         51.0004
  20834763.6854    3568690.88544   2780189.19942  20834765.5414   20834760.9384
        57.0004         50.0004
  23535947.6304   -3871323.36043  -3009453.46242  23535948.8194   23535946.7254
        48.0004         41.0004
  23195681.6014   -6300980.62843  -4905597.42742  23195682.2364   23195680.1734
        48.0004         42.0004
  22835636.4134    2040960.11743   1591123.61642  22835637.0424   22835632.1604
        50.0004         44.0004
  21786605.8884    -768120.88543   -594775.33742  21786607.3794   21786603.1134
        53.0004         46.0004
 04  6 23 15 35 20.0000000  0  8G22G21G18G 6G16G15G29G26
  22598393.3594   -7724354.57643  -6013526.15142  22598394.1034   22598388.2204
        52.0004         45.0004
  20749282.9904   -2009184.90044  -1563946.41942  20749284.4694   20749278.0314
        57.0004         50.0004
  20712229.4354   -4283150.87644  -3297446.42242  20712231.1334   20712225.1234
        57.0004         51.0004
  20841761.4944    3605464.13244   2808843.64842  20841763.3814   20841758.4914
        57.0004         50.0004
  23534803.0544   -3877334.61343  -3014137.58542  23534806.0014   23534801.2384
        48.0004         41.0004
  23186520.7274   -6349121.83643  -4943110.03542  23186521.5834   23186519.3984
        48.0004         42.0004
  22840851.6894    2068368.32843   1612480.64742  22840853.7144   22840848.5534
        51.0004         44.0004
  21788423.2644    -758568.35343   -587331.81242  21788425.7434   21788421.0924
        53.0004         46.0004
 04  6 23 15 35 40.0000000  0  8G22G21G18G 6G16G15G29G26
  22588134.4534   -7778265.23643  -6055534.43742  22588135.6274   22588129.6964
        53.0004         45.0004
  20746608.9224   -2023237.27644  -1574896.32942  20746610.3784   20746603.8594
        57.0004         50.0004
  20707780.4224   -4306530.85944  -3315664.58842  20707782.0904   20707775.9974
        57.0004         51.0004
  20848797.9854    3642441.42744   2837657.10042  20848799.9584   20848794.8464
        57.0004         50.0004
  23533704.1324   -3883110.26143  -3018638.11142  23533706.9524   23533702.7884
        48.0004         41.0004
  23177363.6344   -6397240.42943  -4980605.02042  23177364.0684   23177361.4914
        48.0004         42.0004
  22846110.3844    2096009.26843   1634019.02742  22846113.5114   22846109.3294
        51.0004         44.0004
  21790298.0934    -748718.28443   -579656.44842  21790300.5054   21790295.3694
        53.0004         46.0004
 04  6 23 15 36  0.0000000  0  8G22G21G18G 6G16G15G29G26
  22577901.2624   -7832042.77543  -6097438.99842  22577901.7264   22577895.2364
        53.0004         46.0004
  20743949.8364   -2037209.87244  -1585784.07742  20743951.5004   20743945.1854
        57.0004         50.0004
  20703367.6104   -4329720.65144  -3333734.55542  20703369.0684   20703362.9594
        57.0004         51.0004
  20855872.8634    3679620.78444   2866627.99842  20855874.8784   20855870.1364
        57.0004         50.0004
  23532650.5004   -3888652.29443  -3022956.61642  23532651.5424   23532647.6564
        48.0004         41.0004
  23168211.1174   -6445338.13943  -5018083.73642  23168212.2724   23168208.6464
        49.0004         42.0004
  22851414.1194    2123880.67643   1655736.97942  22851417.7184   22851412.6154
        51.0004         44.0004
  21792228.0324    -738572.58043   -571750.70742  21792230.6484   21792226.1594
        53.0004         46.0004
 04  6 23 15 36 20.0000000  0  8G22G21G18G 6G16G15G29G26
  22567693.0604   -7885685.92543  -6139238.83442  22567694.0264   22567687.5854
        53.0004         46.0004
  20741306.7834   -2051101.48744  -1596608.71842  20741308.1114   20741301.5794
        57.0004         50.0004
  20698991.1404   -4352719.30244  -3351655.58042  20698992.8274   20698986.7804
        57.0004         51.0004
  20862986.6994    3717002.82844   2895756.84142  20862988.4344   20862983.9034
        57.0004         50.0004
  23531640.8214   -3893959.78143  -3027092.35842  23531643.0714   23531637.0654
        48.0004         41.0004
  23159063.2874   -6493414.15843  -5055545.55742  23159063.5424   23159060.6974
        49.0004         42.0004
  22856763.7284    2151983.26743   1677635.09442  22856764.5644   22856759.9804
        51.0004         44.0004
  21794216.7104    -728130.38743   -563613.94142  21794218.3194   21794213.4134
        54.0004         46.0004
 04  6 23 15 36 40.0000000  0  8G22G21G18G 6G16G15G29G26
  22557511.0164   -7939194.22643  -6180933.59742  22557511.9704   22557505.4994
        53.0004         46.0004
  20738678.6884   -2064911.78844  -1607370.00042  20738680.2704   20738673.3644
        57.0004         50.0004
  20694650.9194   -4375526.72344  -3369427.59642  20694652.5854   20694646.5634
        57.0004         51.0004
  20870138.9184    3754587.38744   2925043.48142  20870140.6594   20870136.1234
        57.0004         50.0004
  23530674.5934   -3899032.68343  -3031045.30642  23530676.7584   23530670.8154
        48.0004         41.0004
  23149917.8544   -6541468.07743  -5092990.15742  23149919.0934   23149916.0674
        49.0004         42.0004
  22862153.7844    2180316.82243   1699713.16342  22862155.7854   22862151.5754
        50.0004         44.0004
  21796258.9244    -717391.58743   -555246.06042  21796261.2764   21796256.9074
        53.0004         46.0004
 04  6 23 15 37  0.0000000  0  8G22G21G18G 6G16G15G29G26
  22547353.9834   -7992568.64543  -6222524.03442  22547355.0904   22547349.0464
        53.0004         46.0004
  20736065.7994   -2078641.86544  -1618068.77242  20736067.3914   20736060.8524
        57.0004         50.0004
  20690346.8694   -4398144.24244  -3387051.63842  20690348.6914   20690342.6634
        57.0004         51.0004
  20877329.0894    3792372.91344   2954486.72242  20877331.1464   20877326.1004
        57.0004         50.0004
  23529753.3204   -3903872.42143  -3034816.54242  23529755.8104   23529751.7594
        49.0004         41.0004
  23140778.5504   -6589501.32343  -5130418.63542  23140778.6034   23140775.6374
        49.0004         42.0004
  22867589.4314    2208879.36143   1721969.67542  22867591.7444   22867587.4274
        50.0004         44.0004
  21798358.9784    -706357.65443   -546648.19142  21798361.3284   21798355.9624
        53.0004         46.0004
 04  6 23 15 37 20.0000000  0  8G22G21G18G 6G16G15G29G26
  22537223.9154   -8045802.69643  -6264005.09242  22537224.2904   22537219.2524
        53.0004         46.0004
  20733469.4624   -2092285.59544  -1628700.25842  20733471.1264   20733464.4554
        57.0004         50.0004
  20686080.3314   -4420565.60244  -3404522.82842  20686081.8534   20686075.9564
        57.0004         51.0004
  20884558.8654    3830365.27544   2984091.13542  20884560.7974   20884555.7794
        57.0004         50.0004
  23528878.7734   -3908472.97243  -3038401.41442  23528879.9754   23528875.9834
        48.0004         41.0004
  23131642.4674   -6637507.57143  -5167826.09542  23131645.5534   23131639.2884
        49.0004         42.0004
  22873069.0764    2237677.01743   1744409.39042  22873072.0644   22873068.3864
        50.0004         44.0004
  21800515.3304    -695022.33443   -537815.48642  21800518.1814   21800513.8614
        53.0004         46.0004
 04  6 23 15 37 40.0000000  0  8G22G21G18G 6G16G15G29G26
  22527118.3994   -8098906.42543  -6305384.59642  22527118.7814   22527112.9104
        53.0004         46.0004
  20730887.8944   -2105853.05044  -1639272.30642  20730889.1614   20730882.5884
        58.0004         50.0004
  20681849.0394   -4442801.24644  -3421849.30042  20681850.5434   20681844.6464
        57.0004         51.0004
  20891825.9874    3868554.00844   3013848.56042  20891827.7584   20891823.0324
        57.0004         50.0004
  23528046.5794   -3912844.54743  -3041807.87242  23528048.0294   23528043.6734
        48.0004         41.0004
  23122510.3764   -6685496.95843  -5205220.38642  23122511.9494   23122506.7554
        48.0004         42.0004
  22878592.5764    2266699.14243   1767024.01642  22878593.7354   22878589.7824
        50.0004         43.0004
  21802728.6114    -683396.05843   -528756.06442  21802730.9324   21802725.6544
        53.0004         46.0004
 04  6 23 15 38  0.0000000  0  8G22G21G18G 6G16G15G29G26
  22517039.6344   -8151871.95943  -6346656.41542  22517039.9974   22517034.6634
        53.0004         46.0004
  20728321.8334   -2119336.71244  -1649779.06442  20728323.5464   20728317.0294
        57.0004         50.0004
  20677654.3024   -4464843.83844  -3439025.34442  20677655.7914   20677649.7784
        57.0004         51.0004
  20899131.7734    3906946.12144   3043764.46042  20899133.7554   20899128.8694
        57.0004         50.0004
  23527259.8674   -3916979.98443  -3045030.32342  23527262.6874   23527258.2564
        49.0004         41.0004
  23113382.7344   -6733462.03943  -5242595.75842  23113384.0404   23113381.0084
        48.0004         42.0004
  22884159.3514    2295952.61543   1789818.91142  22884161.1324   22884156.1994
        50.0004         43.0004
  21804997.3864    -671471.52443   -519464.23042  21805000.1814   21804995.1044
        53.0004         46.0004
 04  6 23 15 38 20.0000000  0  8G22G21G18G 6G16G15G29G26
  22506985.7444   -8204704.95343  -6387824.96642  22506985.8354   22506980.8754
        53.0004         46.0004
  20725771.0424   -2132742.13944  -1660224.86042  20725772.4814   20725765.8864
        58.0004         50.0004
  20673495.4284   -4486699.07144  -3456055.39542  20673497.1454   20673491.1244
        57.0004         51.0004
  20906475.0784    3945535.43144   3073834.02742  20906477.0864   20906472.3564
        57.0004         50.0004
  23526517.1024   -3920885.27243  -3048073.44742  23526518.6454   23526512.4834
        49.0004         41.0004
  23104259.1174   -6781408.70943  -5279956.78742  23104259.0004   23104258.7424
        48.0004         42.0004
  22889770.1584    2325431.32743   1812789.32242  22889770.7424   22889766.3264
        50.0004         43.0004
  21807322.5914    -659254.73943   -509944.67542  21807324.8154   21807319.4204
        53.0004         46.0004
 04  6 23 15 38 40.0000000  0  8G22G21G18G 6G16G15G29G26
  22496958.3414   -8257398.95143  -6428885.20542  22496959.1364   22496952.3474
        53.0004         46.0004
  20723236.0364   -2146063.40144  -1670605.06942  20723237.5084   20723230.9504
        57.0004         50.0004
  20669373.3134   -4508361.03344  -3472934.84442  20669374.8284   20669369.1204
        57.0004         51.0004
  20913857.0764    3984327.81544   3104061.83142  20913859.0154   20913854.2674
        57.0004         50.0004
  23525818.3604   -3924554.45343  -3050932.56142  23525818.8574   23525816.4314
        49.0004         41.0004
  23095140.0414   -6829330.77043  -5317298.63342  23095140.8354   23095138.2584
        49.0004         42.0004
  22895420.8084    2355140.82043   1835939.55942  22895424.3164   22895419.9744
        50.0004         43.0004
  21809703.9434    -646739.66043   -500192.67142  21809706.4544   21809700.9764
        53.0004         46.0004
 04  6 23 15 39  0.0000000  0  8G22G21G18G 6G16G15G29G26
  22486957.1074   -8309956.21943  -6469838.90742  22486957.9774   22486951.7544
        53.0004         46.0004
  20720716.5564   -2159302.58144  -1680921.32042  20720718.1194   20720712.0324
        57.0004         50.0004
  20665287.5284   -4529832.06444  -3489665.51842  20665289.3834   20665283.3274
        57.0004         51.0004
  20921277.1964    4023320.45244   3134445.67542  20921279.0194   20921274.1944
        57.0004         50.0004
  23525164.4134   -3927990.09343  -3053609.71742  23525167.4394   23525162.0154
        49.0004         41.0004
  23086025.5084   -6877230.57443  -5354623.13042  23086026.1234   23086023.0814
        49.0004         43.0004
  22901118.8094    2385078.26043   1859267.40842  22901121.3614   22901117.5064
        50.0004         43.0004
  21812142.1044    -633928.79543   -490210.19742  21812144.1554   21812139.2444
        54.0004         46.0004
 04  6 23 15 39 20.0000000  0  8G22G21G18G 6G16G15G29G26
  22476981.8544   -8362377.29843  -6510686.47942  22476981.9924   22476976.1964
        53.0004         46.0004
  20718212.7904   -2172460.41544  -1691174.18342  20718214.4774   20718207.7834
        57.0004         50.0004
  20661238.1294   -4551113.14544  -3506248.18042  20661239.7644   20661233.2884
        57.0004         51.0004
  20928735.2124    4062512.21044   3164984.67742  20928737.2154   20928732.2634
        57.0004         50.0004
  23524556.1814   -3931193.14543  -3056105.62842  23524558.3944   23524552.5434
        49.0004         42.0004
  23076913.7044   -6925108.89843  -5391930.89242  23076915.3574   23076913.1784
        49.0004         43.0004
  22906858.5334    2415242.52743   1882772.01042  22906860.7064   22906856.1394
        49.0004         43.0004
  21814635.2044    -620823.13643   -479998.00642  21814638.0054   21814633.0784
        53.0004         46.0004
 04  6 23 15 39 40.0000000  0  8G22G21G18G 6G16G15G29G26
  22467032.1734   -8414661.86943  -6551427.68142  22467032.9684   22467027.2674
        53.0004         46.0004
  20715724.4104   -2185536.67644  -1701363.48242  20715725.7064   20715719.2844
        57.0004         50.0004
  20657224.4294   -4572204.40044  -3522682.92542  20657226.1614   20657220.0124
        57.0004         51.0004
  20936230.9784    4101902.68544   3195678.52942  20936232.9864   20936228.0984
        57.0004         50.0004
  23523990.2224   -3934163.87343  -3058420.51242  23523992.0534   23523987.7154
        49.0004         42.0004
  23067806.8934   -6972965.70443  -5429221.87842  23067807.7074   23067805.1304
        49.0004         43.0004
  22912642.7024    2445633.00343   1906452.87842  22912644.8064   22912640.5714
        50.0004         43.0004
  21817185.8984    -607422.93043   -469556.29742  21817188.0414   21817182.7594
        53.0004         46.0004
 04  6 23 15 40  0.0000000  0  8G22G21G18G 6G16G15G29G26
  22457108.9974   -8466808.47943  -6592061.37642  22457109.9854   22457103.5094
        53.0004         46.0004
  20713251.8914   -2198530.16044  -1711488.27942  20713253.3764   20713246.8804
        57.0004         50.0004
  20653247.1664   -4593104.82144  -3538968.96742  20653248.8054   20653242.8154
        57.0004         51.0004
  20943764.7394    4141492.82444   3226527.95842  20943766.4284   20943761.6694
        57.0004         50.0004
  23523469.0854   -3936901.20443  -3060553.51242  23523471.1384   23523465.0794
        49.0004         41.0004
  23058704.3814   -7020799.74543  -5466495.14142  23058706.6194   23058702.7574
        50.0004         43.0004
  22918469.6064    2476250.40843   1930310.57042  22918471.2714   22918466.9364
        50.0004         43.0004
  21819791.5104    -593727.10543   -458884.23842  21819794.0654   21819789.3534
        53.0004         46.0004
 04  6 23 15 40 20.0000000  0  8G22G21G18G 6G16G15G29G26
  22447211.9364   -8518817.34843  -6632587.74342  22447213.0774   22447206.3664
        53.0004         46.0004
  20710794.9624   -2211441.30244  -1721548.91442  20710796.2224   20710789.8994
        57.0004         50.0004
  20649306.3864   -4613814.76744  -3555106.58642  20649307.9964   20649301.9854
        57.0004         51.0004
  20951336.2484    4181281.75644   3257532.29442  20951337.9634   20951333.6464
        57.0004         50.0004
  23522992.1714   -3939405.77343  -3062505.15242  23522993.5974   23522989.9784
        49.0004         42.0004
  23049605.4774   -7068611.67743  -5503751.17242  23049608.3614   23049604.8644
        50.0004         43.0004
  22924336.8144    2507093.94443   1954344.47042  22924340.7764   22924336.2614
        50.0004         43.0004
  21822454.7684    -579736.36243   -447982.37342  21822456.4184   21822451.4514
        53.0004         46.0004
 04  6 23 15 40 40.0000000  0  8G22G21G18G 6G16G15G29G26
  22437341.5154   -8570686.59543  -6673005.31042  22437341.5904   22437336.5124
        53.0004         46.0004
  20708354.1044   -2224267.97444  -1731543.72942  20708355.5504   20708349.0774
        57.0004         50.0004
  20645401.8714   -4634332.84944  -3571094.70142  20645403.5644   20645397.3664
        57.0004         51.0004
  20958945.8744    4221270.57844   3288692.38642  20958947.8504   20958943.1284
        57.0004         50.0004
  23522560.3404   -3941676.24543  -3064274.38442  23522560.9244   23522558.1744
        48.0004         42.0004
  23040512.6724   -7116399.68843  -5540988.57642  23040514.4804   23040509.7934
        49.0004         42.0004
  22930250.6814    2538164.77143   1978555.47942  22930252.7774   22930249.1124
        49.0004         43.0004
  21825173.6714    -565449.21143   -436849.54442  21825175.3114   21825170.5444
        54.0004         46.0004
 04  6 23 15 41  0.0000000  0  8G22G21G18G 6G16G15G29G26
  22427497.0984   -8622419.20943  -6713316.41142  22427497.9534   22427492.1204
        53.0004         46.0004
  20705928.9894   -2237013.50444  -1741475.31742  20705930.1544   20705923.8434
        57.0004         50.0004
  20641533.3034   -4654662.22844  -3586935.77542  20641534.8664   20641528.8834
        57.0004         51.0004
  20966593.0394    4261455.90744   3320005.60042  20966594.7984   20966589.9634
        57.0004         50.0004
  23522171.8794   -3943715.87443  -3065863.73142  23522175.1184   23522168.8134
        48.0004         42.0004
  23031422.6294   -7164166.88543  -5578209.74242  23031425.3754   23031420.1174
        49.0004         42.0004
  22936206.0744    2569459.22743   2002940.74942  22936206.9824   22936202.4574
        49.0004         43.0004
  21827946.9374    -550869.02243   -425488.37642  21827949.5874   21827945.0894
        53.0004         46.0004
 04  6 23 15 41 20.0000000  0  8G22G21G18G 6G16G15G29G26
  22417679.4074   -8674012.12543  -6753518.65942  22417680.3044   22417673.9094
        53.0004         46.0004
  20703519.3344   -2249675.07844  -1751341.48542  20703520.8724   20703514.5174
        57.0004         50.0004
  20637701.0034   -4674800.41644  -3602627.86742  20637702.7764   20637696.7254
        57.0004         51.0004
  20974277.8944    4301840.17644   3351473.82842  20974279.5104   20974275.0104
        57.0004         50.0004
  23521828.4434   -3945522.28543  -3067271.35742  23521829.9474   23521826.0164
        48.0004         42.0004
  23022337.4464   -7211910.57143  -5615412.59642  23022338.2374   23022335.8224
        49.0004         42.0004
  22942204.5864    2600979.51243   2027501.99242  22942205.0064   22942201.9904
        50.0004         43.0004
  21830778.4854    -535993.26643   -413896.88842  21830780.1144   21830775.5764
        53.0004         46.0004
 04  6 23 15 41 40.0000000  0  8G22G21G18G 6G16G15G29G26
  22407887.9114   -8725466.77743  -6793613.16742  22407888.6644   22407882.4634
        54.0004         46.0004
  20701125.8414   -2262254.05744  -1761143.29542  20701127.1424   20701120.6344
        57.0004         50.0004
  20633904.9084   -4694749.08144  -3618172.27942  20633906.5634   20633900.5964
        57.0004         51.0004
  20982000.2014    4342421.25544   3383095.41542  20982002.0384   20981997.4014
        57.0004         50.0004
  23521528.7454   -3947097.32743  -3068498.68642  23521529.5684   23521526.5224
        48.0004         42.0004
  23013256.0154   -7259632.36043  -5652598.39142  23013256.0504   23013255.0144
        49.0004         42.0004
  22948244.0414    2632723.68043   2052237.66142  22948247.9054   22948241.8394
        50.0004         43.0004
  21833665.0004    -520823.79843   -402076.54542  21833667.3964   21833662.8514
        53.0004         46.0004
 04  6 23 15 42  0.0000000  0  8G22G21G18G 6G16G15G29G26
  22398123.1734   -8776781.64543  -6833598.75242  22398123.3604   22398117.7184
        54.0004         46.0004
  20698748.1804   -2274748.98844  -1770879.61242  20698749.6024   20698742.8884
        57.0004         50.0004
  20630145.0504   -4714507.04544  -3633568.09442  20630146.5344   20630140.9884
        57.0004         51.0004
  20989760.2064    4383200.07644   3414871.09042  20989762.1114   20989757.2644
        57.0004         50.0004
  23521273.3004   -3948439.71943  -3069544.73442  23521275.1854   23521271.4164
        48.0004         42.0004
  23004179.0564   -7307330.93443  -5689766.07942  23004180.4934   23004177.2914
        49.0004         42.0004
  22954327.3024    2664692.41943   2077148.34942  22954329.9374   22954325.4564
        50.0004         43.0004
  21836607.9444    -505359.53243   -390026.48342  21836610.5354   21836605.1964
        53.0004         46.0004
 04  6 23 15 42 20.0000000  0  8G22G21G18G 6G16G15G29G26
  22388384.3714   -8827959.72743  -6873477.75442  22388385.1164   22388378.7164
        54.0004         46.0004
  20696385.7664   -2287163.19044  -1780553.02442  20696387.0144   20696380.4424
        57.0004         50.0004
  20626420.9444   -4734077.66244  -3648817.92742  20626422.5054   20626416.8294
        57.0004         51.0004
  20997557.1854    4424173.03844   3446798.04342  20997558.8804   20997554.4004
        57.0004         50.0004
  23521062.0334   -3949553.04043  -3070412.28842  23521063.2354   23521060.0304
        49.0004         42.0004
  22995106.4374   -7355009.39143  -5726918.10142  22995107.2114   22995106.6694
        49.0004         43.0004
  22960452.8054    2696882.03843   2102231.14542  22960455.2254   22960450.3884
        48.0004         43.0004
  21839604.7454    -489604.00243   -377749.44642  21839607.5964   21839604.2154
        53.0004         46.0004
 04  6 23 15 42 40.0000000  0  8G22G21G18G 6G16G15G29G26
  22378672.8894   -8878993.18743  -6913244.06042  22378673.2194   22378667.0284
        54.0004         46.0004
  20694040.2404   -2299488.82744  -1790157.42542  20694041.6194   20694035.3204
        57.0004         50.0004
  20622733.8374   -4753453.37544  -3663915.88342  20622735.5434   20622729.5454
        57.0004         51.0004
  21005392.3554    4465347.35544   3478881.89542  21005394.3494   21005389.6454
        57.0004         50.0004
  23520894.7024   -3950429.99443  -3071095.65142  23520896.9084   23520892.3394
        48.0004         41.0004
  22986039.3904   -7402659.99143  -5764048.42542  22986040.5284   22986037.1134
        50.0004         43.0004
  22966623.7154    2729299.78143   2127491.69542  22966626.6894   22966621.3874
        50.0004         43.0004
  21842661.2364    -473549.57743   -365239.53042  21842663.2664   21842658.0974
        53.0004         46.0004
 04  6 23 15 43  0.0000000  0  8G22G21G18G 6G16G15G29G26
  22368987.4934   -8929888.67343  -6952902.84842  22368987.8454   22368981.9434
        53.0004         46.0004
  20691710.3084   -2311732.63144  -1799698.05442  20691711.7794   20691705.2214
        57.0004         50.0004
  20619082.6474   -4772641.30844  -3678867.52142  20619084.1724   20619078.0634
        57.0004         51.0004
  21013264.6184    4506715.64044   3511116.89242  21013266.3654   21013261.6994
        57.0004         50.0004
  23520771.1974   -3951077.56743  -3071600.28542  23520773.8014   23520770.7044
        48.0004         41.0004
  22976975.3304   -7450289.74243  -5801162.48942  22976975.9224   22976973.8404
        51.0004         43.0004
  22972833.0194    2761938.04243   2152924.09842  22972834.3614   22972829.6994
        50.0004         43.0004
  21845772.0354    -457203.66443   -352502.46442  21845773.7584   21845768.6874
        53.0004         46.0004
 04  6 23 15 43 20.0000000  0  8G22G21G18G 6G16G15G29G26
  22359328.7064   -8980644.40243  -6992452.74442  22359329.2654   22359323.7254
        54.0004         46.0004
  20689396.3984   -2323893.07244  -1809173.72842  20689397.6034   20689391.3254
        57.0004         50.0004
  20615467.2704   -4791639.96344  -3693671.66842  20615468.9344   20615462.9054
        57.0004         51.0004
  21021173.8464    4548279.14743   3543504.00742  21021175.5394   21021171.0064
        56.0004         50.0004
  23520692.4044   -3951494.52543  -3071925.21742  23520694.1334   23520688.9274
        49.0004         41.0004
  22967915.6064   -7497897.18943  -5838259.17742  22967916.7364   22967914.1584
        50.0004         43.0004
  22979086.3474    2794797.98143   2178529.21942  22979088.4764   22979082.7464
        49.0004         43.0004
  21848937.5844    -440564.75843   -339537.10942  21848940.4114   21848935.5674
        53.0004         46.0004
 04  6 23 15 43 40.0000000  0  8G22G21G18G 6G16G15G29G26
  22349696.9814   -9031260.92743  -7031894.16842  22349697.4154   22349691.8334
        53.0004         46.0004
  20687097.9814   -2335970.73544  -1818584.89742  20687099.4334   20687092.9004
        57.0004         50.0004
  20611887.6844   -4810450.12044  -3708328.93242  20611889.4374   20611883.4344
        57.0004         51.0004
  21029119.9674    4590036.88244   3576042.47342  21029121.7384   21029117.0704
        57.0004         50.0004
  23520656.6324   -3951681.76143  -3072071.14842  23520658.8064   23520654.2764
        49.0004         41.0004
  22958860.8664   -7545482.88443  -5875338.93242  22958862.0664   22958858.6044
        50.0004         43.0004
  22985381.9704    2827878.36443   2204306.11642  22985383.2824   22985378.9674
        49.0004         43.0004
  21852160.2274    -423633.95243   -326344.29242  21852161.9934   21852157.2204
        53.0004         46.0004
 04  6 23 15 44  0.0000000  0  8G22G21G18G 6G16G15G29G26
  22340092.2324   -9081734.55443  -7071224.25042  22340093.0874   22340087.1634
        53.0004         46.0004
  20684816.1844   -2347961.79444  -1827928.58342  20684817.5784   20684811.0614
        57.0004         50.0004
  20608344.6504   -4829068.58144  -3722836.82542  20608346.5014   20608340.3924
        57.0004         51.0004
  21037103.7004    4631991.75944   3608734.55042  21037106.0154   21037100.9134
        57.0004         50.0004
  23520664.8914   -3951636.09143  -3072035.60042  23520667.3714   23520663.4764
        48.0004         41.0004
  22949809.7254   -7593043.33343  -5912399.00042  22949812.0804   22949807.9744
        50.0004         43.0004
  22991719.1154    2861182.25443   2230257.17042  22991721.2944   22991716.9284
        49.0004         43.0004
  21855437.2424    -406408.01343   -312921.48142  21855439.8484   21855435.2644
        53.0004         46.0004
 04  6 23 15 44 20.0000000  0  8G22G21G18G 6G16G15G29G26
  22330514.0374   -9132067.74543  -7110444.89442  22330515.1544   22330508.6494
        53.0004         46.0004
  20682550.2274   -2359868.98444  -1837206.91842  20682551.7374   20682545.2124
        57.0004         50.0004
  20604837.7444   -4847498.27244  -3737197.62242  20604839.5894   20604833.5184
        57.0004         51.0004
  21045124.5344    4674140.67544   3641577.82742  21045126.2334   21045121.8064
        57.0004         50.0004
  23520716.8554   -3951360.56643  -3071820.93042  23520719.8444   23520715.5974
        49.0004         41.0004
  22940763.6244   -7640581.24243  -5949441.49942  22940766.2634   22940761.1864
        50.0004         42.0004
  22998099.5134    2894706.29343   2256379.77842  22998101.0514   22998095.1804
        50.0004         43.0004
  21858772.0784    -388889.75743   -299270.92442  21858774.2714   21858768.8844
        53.0004         46.0004
 04  6 23 15 44 40.0000000  0  8G22G21G18G 6G16G15G29G26
  22320963.3274   -9182258.07843  -7149554.22342  22320963.9664   22320957.5124
        54.0004         46.0004
  20680301.0404   -2371689.83644  -1846417.97442  20680302.3134   20680295.8744
        57.0004         50.0004
  20601367.0414   -4865736.82644  -3751409.48142  20601368.7594   20601362.6964
        57.0004         51.0004
  21053182.3414    4716485.39544   3674573.68042  21053184.4374   21053179.8924
        57.0004         50.0004
  23520813.9224   -3950853.16743  -3071425.58842  23520816.9614   23520811.2764
        48.0004         41.0004
  22931722.9514   -7688094.28643  -5986464.63642  22931723.8334   22931719.5814
        49.0004         42.0004
  23004519.2524    2928452.29643   2282675.32742  23004521.7144   23004517.5074
        49.0004         43.0004
  21862160.4854    -371077.52443   -285391.26742  21862163.3574   21862158.3994
        53.0004         46.0004
 04  6 23 15 45  0.0000000  0  8G22G21G18G 6G16G15G29G26
  22311439.0114   -9232307.77643  -7188553.96942  22311439.3914   22311434.2474
        53.0004         46.0004
  20678067.2874   -2383426.65844  -1855563.55142  20678068.9614   20678062.5854
        57.0004         50.0004
  20597932.2164   -4883786.83344  -3765474.42342  20597933.8414   20597927.7304
        57.0004         51.0004
  21061277.2234    4759023.24244   3707720.01842  21061279.0684   21061274.4544
        57.0004         50.0004
  23520954.1774   -3950116.55043  -3070851.63842  23520955.2974   23520952.9974
        48.0004         41.0004
  22922685.4384   -7735584.84243  -6023470.24542  22922685.7214   22922684.1054
        50.0004         42.0004
  23010984.2444    2962417.26543   2309141.50642  23010985.6284   23010981.2014
        51.0004         43.0004
  21865605.4984    -352973.72343   -271284.43742  21865608.4344   21865603.6084
        53.0004         46.0004
 04  6 23 15 45 20.0000000  0  8G22G21G18G 6G16G15G29G26
  22301941.4604   -9282217.65843  -7227444.76942  22301942.1144   22301935.8004
        54.0004         46.0004
  20675849.5934   -2395080.78744  -1864644.69642  20675851.1754   20675844.6754
        57.0004         50.0004
  20594533.1034   -4901649.64144  -3779393.49642  20594534.7804   20594528.4824
        57.0004         51.0004
  21069408.4404    4801752.64343   3741015.61942  21069409.9764   21069405.5464
        56.0004         50.0004
  23521138.4524   -3949152.10643  -3070100.14742  23521140.3394   23521134.6024
        48.0004         41.0004
  22913652.5604   -7783053.98643  -6060459.17042  22913653.7494   22913648.7794
        50.0004         42.0004
  23017487.5494    2996599.69443   2335777.15242  23017490.3184   23017487.8504
        50.0004         43.0004
  21869107.0204    -334579.95443   -256951.64242  21869108.4304   21869103.2144
        53.0004         46.0004
 04  6 23 15 45 40.0000000  0  8G22G21G18G 6G16G15G29G26
  22292471.4564   -9331982.84343  -7266222.81342  22292471.8124   22292465.2834
        54.0004         46.0004
  20673648.6374   -2406647.07444  -1873657.39442  20673650.1604   20673643.3954
        57.0004         50.0004
  20591170.6064   -4919320.73044  -3793163.17742  20591172.1314   20591165.8524
        57.0004         51.0004
  21077576.5734    4844677.79443   3774463.75042  21077578.7104   21077574.0924
        56.0004         49.0004
  23521364.6054   -3947955.33843  -3069167.64442  23521366.8564   23521363.3184
        48.0004         41.0004
  22904624.1324   -7830497.03643  -6097427.76042  22904626.3774   22904621.8004
        50.0004         42.0004
  23024036.0544    3031003.66343   2362585.40542  23024036.8494   23024032.2634
        50.0004         43.0004
  21872662.6514    -315891.74043   -242389.40942  21872664.9384   21872660.3274
        53.0004         46.0004
 04  6 23 15 46  0.0000000  0  8G22G21G18G 6G16G15G29G26
  22283028.5514   -9381606.02743  -7304890.20242  22283029.4084   22283023.1604
        54.0004         46.0004
  20671463.8944   -2418128.20344  -1882603.73142  20671465.4534   20671458.9314
        57.0004         50.0004
  20587843.6614   -4936803.00044  -3806785.72642  20587845.1924   20587839.1394
        57.0004         51.0004
  21085782.0974    4887795.44143   3808061.88242  21085783.8064   21085779.1754
        56.0004         49.0004
  23521637.9024   -3946529.42543  -3068056.57742  23521639.0694   23521633.7484
        49.0004         41.0004
  22895600.8584   -7877916.65743  -6134378.10142  22895601.5084   22895597.2954
        50.0004         43.0004
  23030623.7324    3065625.75443   2389563.62342  23030626.5384   23030621.4644
        50.0004         43.0004
  21876274.0524    -296912.08343   -227600.08642  21876276.7784   21876271.2374
        52.0004         46.0004
 04  6 23 15 46 20.0000000  0  8G22G21G18G 6G16G15G29G26
  22273612.5224   -9431086.27543  -7343446.22642  22273613.5884   22273607.0624
        54.0004         46.0004
  20669295.7444   -2429523.33344  -1891483.05642  20669297.1574   20669290.5094
        57.0004         50.0004
  20584552.9324   -4954095.85544  -3820260.68042  20584554.6394   20584548.5724
        57.0004         51.0004
  21094023.5254    4931106.02243   3841810.35042  21094025.5234   21094020.8664
        56.0004         49.0004
  23521953.0934   -3944873.81843  -3066766.52742  23521952.9174   23521950.2384
        48.0004         41.0004
  22886581.4454   -7925312.02143  -6171309.53842  22886583.0094   22886578.4884
        50.0004         43.0004
  23037252.1514    3100466.33343   2416712.09642  23037255.8734   23037251.9224
        50.0004         43.0004
  21879940.5014    -277640.61043   -212583.36842  21879943.4394   21879939.5824
        53.0004         46.0004
 04  6 23 15 46 40.0000000  0  8G22G21G18G 6G16G15G29G26
  22264224.0994   -9480425.20143  -7381892.12142  22264224.4984   22264218.5804
        54.0004         46.0004
  20667143.2264   -2440834.37944  -1900296.86242  20667144.4294   20667137.9034
        57.0004         50.0004
  20581297.8294   -4971201.43744  -3833589.70542  20581299.8314   20581293.3304
        57.0004         51.0004
  21102301.5294    4974607.14443   3875707.29642  21102303.3254   21102298.9164
        56.0004         49.0004
  23522311.4004   -3942990.83543  -3065299.31142  23522312.2984   23522309.3214
        48.0004         41.0004
  22877566.4884   -7972685.07443  -6208223.58842  22877568.8344   22877564.5784
        50.0004         43.0004
  23043924.7754    3135522.87943   2444028.86842  23043927.3404   23043920.5594
        50.0004         43.0004
  21883664.6914    -258079.55543   -197341.00542  21883665.8964   21883661.0904
        53.0004         46.0004
 04  6 23 15 47  0.0000000  0  8G22G21G18G 6G16G15G29G26
  22254861.9844   -9529621.33643  -7420226.75042  22254862.7754   22254855.9804
        54.0004         46.0004
  20665007.0754   -2452059.79744  -1909043.94442  20665008.4184   20665001.7624
        57.0004         50.0004
  20578078.6644   -4988118.78944  -3846772.05942  20578079.9984   20578074.3244
        57.0004         51.0004
  21110615.9044    5018299.63843   3909753.36142  21110617.7254   21110613.1944
        56.0004         49.0004
  23522712.7944   -3940879.46543  -3063654.12142  23522712.6434   23522709.4274
        49.0004         41.0004
  22868556.1264   -8020034.64843  -6245119.34342  22868556.9664   22868552.7354
        50.0004         43.0004
  23050635.9964    3170796.06443   2471514.43142  23050637.8224   23050633.8744
        49.0004         43.0004
  21887440.9384    -238227.94443   -181872.24242  21887443.4034   21887438.6554
        52.0004         46.0004
 04  6 23 15 47 20.0000000  0  8G22G21G18G 6G16G15G29G26
  22245528.0474   -9578673.05943  -7458448.85442  22245528.6534   22245521.8504
        54.0004         46.0004
  20662887.3834   -2463198.00244  -1917723.06842  20662888.8854   20662882.1434
        57.0004         50.0004
  20574895.4284   -5004846.51544  -3859806.65042  20574897.1464   20574891.2154
        57.0004         51.0004
  21118967.1844    5062184.50043   3943949.32042  21118968.7904   21118964.3424
        56.0004         49.0004
  23523158.1824   -3938538.50643  -3061830.02442  23523158.8904   23523155.8584
        48.0004         41.0004
  22859550.9134   -8067359.20943  -6281995.60042  22859551.4714   22859549.0654
        50.0004         43.0004
  23057391.1464    3206287.04943   2499169.70442  23057392.3594   23057388.9604
        50.0004         43.0004
  21891276.0114    -218084.69643   -166176.22442  21891277.2534   21891272.8654
        53.0004         46.0004
 04  6 23 15 47 40.0000000  0  8G22G21G18G 6G16G15G29G26
  22236221.1234   -9627580.21443  -7496558.30242  22236221.4444   22236215.5104
        54.0004         47.0004
  20660784.5814   -2474249.02544  -1926334.26242  20660785.8394   20660779.3474
        58.0004         50.0004
  20571748.2294   -5021384.78244  -3872693.61242  20571749.9534   20571743.9844
        57.0004         51.0004
  21127354.4584    5106261.34443   3978294.87542  21127356.4234   21127352.2244
        56.0004         49.0004
  23523646.7564   -3935968.30943  -3059827.32042  23523648.3154   23523644.2364
        48.0004         41.0004
  22850549.1674   -8114658.76243  -6318852.36442  22850549.9834   22850548.4034
        49.0004         43.0004
  23064186.1704    3241994.93543   2526994.01842  23064188.2744   23064183.9494
        50.0004         43.0004
  21895161.6134    -197650.10043   -150253.18442  21895165.3204   21895160.4954
        52.0004         46.0004
 04  6 23 15 48  0.0000000  0  8G22G21G18G 6G16G15G29G26
  22226941.1814   -9676346.87243  -7534558.27042  22226941.8734   22226935.8414
        54.0004         46.0004
  20658697.3804   -2485216.85044  -1934880.62342  20658698.7664   20658692.4084
        57.0004         50.0004
  20568636.1254   -5037737.92144  -3885436.31842  20568638.0764   20568632.0324
        57.0004         51.0004
  21135778.1374    5150525.34243   4012786.26842  21135779.5124   21135774.9574
        56.0004         49.0004
  23524178.7874   -3933173.43343  -3057649.54042  23524183.1284   23524176.3744
        48.0004         41.0004
  22841553.0554   -8161937.49443  -6355692.91142  22841553.9684   22841551.5614
        50.0004         43.0004
  23071020.7764    3277915.12243   2554983.72542  23071022.3794   23071019.1964
        49.0004         43.0004
  21899107.9164    -176928.79143   -134106.72942  21899108.9634   21899104.7404
        53.0004         46.0004
 04  6 23 15 48 20.0000000  0  8G22G21G18G 6G16G15G29G26
  22217689.2584   -9724964.16243  -7572441.85542  22217690.0274   22217684.1644
        54.0004         46.0004
  20656627.9604   -2496092.49444  -1943355.15442  20656629.3414   20656622.8894
        57.0004         50.0004
  20565561.2104   -5053897.42544  -3898028.14142  20565563.0324   20565556.9094
        57.0004         51.0004
  21144238.2354    5194984.74243   4047429.92242  21144240.2254   21144235.6174
        56.0004         49.0004
  23524755.4234   -3930145.55943  -3055290.19442  23524757.4514   23524751.9184
        48.0004         41.0004
  22832561.1734   -8209186.66943  -6392510.42942  22832562.3094   22832560.5674
        49.0004         43.0004
  23077897.9244    3314055.59243   2583145.08442  23077901.4194   23077896.0674
        49.0004         43.0004
  21903106.0204    -155912.36243   -117730.30842  21903108.1014   21903103.1704
        53.0004         46.0004
 04  6 23 15 48 40.0000000  0  8G22G21G18G 6G16G15G29G26
  22208464.2424   -9773442.48743  -7610217.15842  22208464.8734   22208458.6054
        54.0004         47.0004
  20654573.8404   -2506886.53444  -1951766.10242  20654575.1234   20654568.7014
        57.0004         50.0004
  20562521.1784   -5069873.94543  -3910477.37642  20562522.8324   20562516.9324
        56.0004         51.0004
  21152733.8164    5239628.76743   4082217.44142  21152735.7174   21152731.1434
        56.0004         49.0004
  23525373.7984   -3926895.45743  -3052757.68642  23525373.9004   23525371.3114
        48.0004         41.0004
  22823574.1494   -8256416.65843  -6429312.98942  22823575.2324   22823572.0184
        50.0004         43.0004
  23084813.9884    3350405.36443   2611469.55842  23084817.2514   23084812.8424
        49.0004         43.0004
  21907158.9604    -134611.62943   -101132.36442  21907161.1854   21907157.0584
        53.0004         46.0004
 04  6 23 15 49  0.0000000  0  8G22G21G18G 6G16G15G29G26
  22199267.2524   -9821773.41243  -7647877.60342  22199268.0124   22199262.4284
        54.0004         47.0004
  20652536.8584   -2517590.64944  -1960106.98142  20652538.3484   20652531.8184
        57.0004         50.0004
  20559517.1664   -5085659.51644  -3922777.82142  20559518.9594   20559512.9434
        57.0004         51.0004
  21161265.6744    5284464.94443   4117154.68742  21161267.6714   21161263.0674
        56.0004         49.0004
  23526036.5024   -3923415.23043  -3050045.85842  23526036.9934   23526033.6654
        49.0004         41.0004
  22814591.6094   -8303619.21843  -6466094.18542  22814592.0514   22814589.7794
        50.0004         43.0004
  23091775.8214    3386972.15343   2639963.11442  23091775.7614   23091771.0504
        50.0004         43.0004
  21911268.7794    -113018.80043    -84306.79742  21911270.8564   21911265.6624
        53.0004         46.0004
 04  6 23 15 49 20.0000000  0  8G22G21G18G 6G16G15G29G26
  22190097.2634   -9869962.55743  -7685427.56342  22190098.2884   22190091.4694
        54.0004         47.0004
  20650515.9824   -2528210.57844  -1968382.25542  20650517.5164   20650511.2324
        57.0004         50.0004
  20556548.6404   -5101260.42143  -3934934.36942  20556550.3284   20556544.3494
        56.0004         51.0004
  21169833.2024    5329486.99143   4152236.76442  21169834.8344   21169830.5874
        56.0004         49.0004
  23526741.0054   -3919711.30243  -3047159.71842  23526742.2354   23526738.9734
        48.0004         41.0004
  22805614.2124   -8350800.32543  -6502858.66342  22805614.0664   22805611.9434
        50.0004         43.0004
  23098773.4824    3423749.28743   2668620.61642  23098775.2774   23098770.8424
        50.0004         43.0004
  21915431.1264     -91140.27943    -67258.63042  21915433.6724   21915429.7634
        53.0004         46.0004
 04  6 23 15 49 40.0000000  0  8G22G21G18G 6G16G15G29G26
  22180955.0984   -9918004.03043  -7722862.45342  22180955.8934   22180949.4774
        54.0004         47.0004
  20648512.3384   -2538740.37844  -1976587.30142  20648513.6354   20648507.1314
        57.0004         50.0004
  20553616.0294   -5116670.70844  -3946942.38342  20553617.6034   20553611.7974
        57.0004         51.0004
  21178436.8604    5374700.19943   4187467.79642  21178438.5134   21178433.9224
        56.0004         49.0004
  23527489.5624   -3915778.02343  -3044094.85042  23527489.3424   23527487.6814
        48.0004         41.0004
  22796640.3114   -8397954.01743  -6539601.78742  22796641.8474   22796638.6284
        50.0004         43.0004
  23105810.4174    3460742.11843   2697446.16742  23105813.0554   23105811.1984
        49.0004         43.0004
  21919650.8874     -68970.42743    -49983.43542  21919652.6824   21919648.5914
        53.0004         46.0004
 04  6 23 15 50  0.0000000  0  8G22G21G18G 6G16G15G29G26
  22171841.0434   -9965899.54743  -7760183.61642  22171841.1894   22171835.8464
        54.0004         47.0004
  20646525.4074   -2549181.87944  -1984723.54442  20646526.9834   20646520.2934
        57.0004         50.0004
  20550719.4094   -5131892.61044  -3958803.60542  20550721.1354   20550715.1044
        57.0004         51.0004
  21187076.7624    5420102.28943   4222846.00942  21187078.4304   21187074.3504
        56.0004         49.0004
  23528280.5384   -3911617.55143  -3040852.98042  23528282.2834   23528279.7354
        48.0004         41.0004
  22787672.7434   -8445082.08243  -6576324.93742  22787672.8674   22787670.0224
        50.0004         43.0004
  23112891.6354    3497948.31143   2726437.95542  23112893.3384   23112889.7414
        49.0004         42.0004
  21923923.3694     -46511.49443    -32482.98242  21923926.1984   21923922.1764
        52.0004         46.0004
 04  6 23 15 50 20.0000000  0  8G22G21G18G 6G16G15G29G26
  22162753.8914  -10013652.03843  -7797393.32842  22162754.1694   22162748.3874
        54.0004         47.0004
  20644554.5734   -2559538.38644  -1992793.55642  20644555.9264   20644549.4654
        57.0004         50.0004
  20547858.0284   -5146929.27844  -3970520.48842  20547859.6844   20547853.6174
        57.0004         51.0004
  21195751.9824    5465689.62443   4258368.56942  21195753.8414   21195749.2894
        56.0004         49.0004
  23529115.2464   -3907233.45743  -3037436.84942  23529116.0094   23529113.1254
        48.0004         41.0004
  22778708.6564   -8492187.70643  -6613030.59842  22778708.8854   22778705.8864
        49.0004         43.0004
  23120013.2904    3535364.04543   2755593.02442  23120014.4774   23120011.3234
        50.0004         43.0004
  21928252.2084     -23767.07543    -14760.08742  21928254.7804   21928249.6294
        53.0004         46.0004
 04  6 23 15 50 40.0000000  0  8G22G21G18G 6G16G15G29G26
  22153694.8974  -10061257.97643  -7834488.84542  22153695.2224   22153689.2124
        54.0004         47.0004
  20642600.4724   -2569805.94244  -2000794.25442  20642601.9294   20642595.8184
        57.0004         50.0004
  20545032.6074   -5161777.59144  -3982090.60542  20545034.5554   20545028.3074
        57.0004         51.0004
  21204462.7254    5511465.10343   4294037.73642  21204464.7804   21204460.1564
        56.0004         49.0004
  23529992.6384   -3902622.75743  -3033844.13142  23529994.8134   23529989.5134
        48.0004         41.0004
  22769749.1154   -8539267.36643  -6649716.01742  22769749.7344   22769747.9424
        49.0004         43.0004
  23127170.9134    3572992.15843   2784913.62542  23127173.6434   23127170.6374
        48.0004         42.0004
  21932633.9224       -734.22943      3187.56842  21932637.3484   21932633.6094
        52.0004         46.0004
 04  6 23 15 51  0.0000000  0  8G22G21G18G 6G16G15G29G26
  22144664.5874  -10108712.86743  -7871466.65642  22144665.2104   22144658.8304
        54.0004         47.0004
  20640664.6464   -2579979.85644  -2008721.98742  20640666.1844   20640659.7284
        57.0004         50.0004
  20542243.5154   -5176433.62644  -3993510.89342  20542245.2514   20542239.1434
        57.0004         51.0004
  21213210.0304    5557432.67643   4329856.58642  21213211.9404   21213207.1834
        56.0004         49.0004
  23530914.2294   -3897781.35843  -3030071.65642  23530914.3304   23530911.5314
        48.0004         41.0004
  22760796.1674   -8586316.66843  -6686377.78542  22760797.5794   22760793.1034
        50.0004         43.0004
  23134374.0574    3610836.36743   2814402.57742  23134375.2364   23134373.1944
        49.0004         42.0004
  21937075.5514      22591.07943     21363.10142  21937076.6674   21937071.6364
        53.0004         46.0004
 04  6 23 15 51 20.0000000  0  8G22G21G18G 6G16G15G29G26
  22135659.8584  -10156033.66943  -7908339.99342  22135660.0584   22135653.9354
        54.0004         47.0004
  20638743.1184   -2590077.32244  -2016590.14842  20638744.4264   20638738.0674
        57.0004         50.0004
  20539487.9324   -5190914.53444  -4004794.71942  20539489.7744   20539483.6904
        57.0004         51.0004
  21221990.4864    5603574.59743   4365811.29142  21221992.2254   21221988.2084
        56.0004         49.0004
  23531876.6014   -3892726.75643  -3026133.05242  23531878.5004   23531873.2974
        48.0004         41.0004
  22751845.3484   -8633352.67543  -6723029.18842  22751845.9474   22751843.4534
        50.0004         43.0004
  23141614.4114    3648878.98543   2844046.15642  23141617.6404   23141610.9484
        49.0004         42.0004
  21941563.9814      46191.35343     39752.91542  21941566.5314   21941562.4804
        53.0004         46.0004
 04  6 23 15 51 40.0000000  0  8G22G21G18G 6G16G15G29G26
  22126684.3004  -10203199.82243  -7945092.81442  22126685.0724   22126679.0474
        54.0004         47.0004
  20636840.0644   -2600078.01044  -2024382.89842  20636841.4714   20636835.1954
        57.0004         50.0004
  20536769.4884   -5205200.05844  -4015926.29242  20536771.0774   20536764.9874
        57.0004         51.0004
  21230808.0324    5649910.80543   4401917.38842  21230809.9174   21230805.2424
        56.0004         49.0004
  23532882.3194   -3887438.90343  -3022012.69042  23532883.4494   23532880.4784
        48.0004         41.0004
  22742900.8104   -8680355.08343  -6759654.42042  22742902.0874   22742899.4954
        50.0004         44.0004
  23148892.5104    3687139.80343   2873859.74042  23148895.7284   23148890.2044
        48.0004         42.0004
  21946112.4284      70086.53443     58372.50742  21946115.4484   21946110.1164
        53.0004         46.0004
 04  6 23 15 52  0.0000000  0  8G22G21G18G 6G16G15G29G26
  22117736.4304  -10250220.34543  -7981732.15942  22117737.5404   22117730.9454
        54.0004         47.0004
  20634953.6614   -2609990.68644  -2032107.06742  20634955.3754   20634948.7194
        57.0004         50.0004
  20534086.3344   -5219299.81644  -4026913.11642  20534088.1084   20534081.8524
        57.0004         51.0004
  21239660.5744    5696431.76643   4438167.44942  21239662.5794   21239658.1584
        56.0004         49.0004
  23533930.4924   -3881927.40543  -3017718.04642  23533932.7714   23533928.8544
        48.0004         41.0004
  22733960.9764   -8727332.95043  -6796260.52942  22733961.6734   22733960.3864
        50.0004         44.0004
  23156214.7614    3725609.14643   2903835.80842  23156217.2464   23156212.6174
        49.0004         43.0004
  21950713.3834      94267.21243     77214.57242  21950715.8114   21950711.2484
        53.0004         46.0004
 04  6 23 15 52 20.0000000  0  8G22G21G18G 6G16G15G29G26
  22108816.0354  -10297096.96543  -8018259.37942  22108816.6034   22108811.0104
        54.0004         47.0004
  20633083.9904   -2619817.06844  -2039763.99642  20633085.2074   20633078.8944
        57.0004         50.0004
  20531438.1904   -5233215.77943  -4037756.72342  20531439.7084   20531433.8594
        56.0004         51.0004
  21248548.2744    5743134.94043   4474559.49542  21248549.9014   21248545.4144
        56.0004         49.0004
  23535022.2304   -3876194.48943  -3013250.88142  23535023.4184   23535020.4284
        48.0004         41.0004
  22725026.2604   -8774288.12843  -6832848.95542  22725027.2294   22725023.7794
        50.0004         44.0004
  23163572.6914    3764284.39843   2933972.34242  23163575.0054   23163573.5374
        49.0004         43.0004
  21955368.8744     118730.96443     96277.22942  21955371.0424   21955366.7994
        52.0004         46.0004
 04  6 23 15 52 40.0000000  0  8G22G21G18G 6G16G15G29G26
  22099924.4364  -10343822.39143  -8054668.77942  22099925.2934   22099919.0454
        54.0004         47.0004
  20631231.7314   -2629550.08844  -2047348.17442  20631233.2874   20631226.8214
        57.0004         50.0004
  20528826.5434   -5246940.80344  -4048451.54842  20528827.9094   20528821.9594
        57.0004         51.0004
  21257471.5574    5790027.17043   4511098.85742  21257473.3784   21257468.8524
        56.0004         49.0004
  23536156.4904   -3870233.25543  -3008605.79642  23536158.1344   23536153.7344
        48.0004         41.0004
  22716096.6594   -8821213.36343  -6869414.05242  22716097.3864   22716094.4614
        50.0004         43.0004
  23170976.6074    3803172.08043   2964274.39642  23170978.5604   23170972.0604
        50.0004         43.0004
  21960078.8054     143484.53943    115565.69742  21960081.6424   21960077.1904
        52.0004         46.0004
 04  6 23 15 53  0.0000000  0  8G22G21G18G 6G16G15G29G26
  22091059.8474  -10390406.03743  -8090967.69842  22091060.8234   22091054.3914
        54.0004         47.0004
  20629395.6934   -2639199.05644  -2054866.86042  20629397.1474   20629390.8204
        57.0004         50.0004
  20526249.0694   -5260485.03344  -4059005.49542  20526250.7444   20526244.7174
        57.0004         51.0004
  21266428.8384    5837098.23043   4547777.57542  21266430.5294   21266426.0954
        56.0004         49.0004
  23537332.4424   -3864053.91043  -3003790.76442  23537333.3404   23537329.1394
        48.0004         41.0004
  22707171.3024   -8868118.28143  -6905963.31542  22707172.2714   22707168.4874
        50.0004         43.0004
  23178411.9364    3842262.14843   2994734.17442  23178413.5244   23178410.5354
        48.0004         42.0004
  21964842.3094     168517.76743    135072.08142  21964845.1054   21964840.6584
        52.0004         46.0004
 04  6 23 15 53 20.0000000  0  8G22G21G18G 6G16G15G29G26
  22082224.3904  -10436837.80843  -8127148.27542  22082225.0304   22082218.6874
        54.0004         47.0004
  20627577.2184   -2648753.96744  -2062312.25342  20627578.8654   20627572.3134
        57.0004         50.0004
  20523707.9594   -5273838.55444  -4069410.83742  20523709.6284   20523703.6904
        57.0004         51.0004
  21275421.8424    5884357.71843   4584603.11142  21275423.8434   21275419.4824
        56.0004         49.0004
  23538551.6554   -3857646.75143  -2998798.21342  23538551.8364   23538550.5664
        47.0004         41.0004
  22698251.4024   -8914992.72143  -6942488.83542  22698251.5614   22698248.6324
        51.0004         43.0004
  23185892.6274    3881563.93343   3025358.89642  23185894.1264   23185890.2514
        50.0004         43.0004
  21969662.5664     193840.36843    154803.94542  21969663.9794   21969658.9724
        53.0004         46.0004
 04  6 23 15 53 40.0000000  0  8G22G21G18G 6G16G15G29G26
  22073416.3214  -10483123.67643  -8163215.16142  22073417.1484   22073410.7954
        55.0004         47.0004
  20625776.0354   -2658220.56544  -2069688.83142  20625777.5024   20625771.1314
        57.0004         50.0004
  20521202.1074   -5287007.57644  -4079672.41742  20521203.7114   20521197.7314
        57.0004         51.0004
  21284449.7984    5931799.04043   4621570.34242  21284451.5584   21284447.3034
        56.0004         49.0004
  23539813.3234   -3851018.08443  -2993633.05542  23539815.0544   23539810.9734
        48.0004         41.0004
  22689335.4234   -8961842.68043  -6978995.27042  22689335.4084   22689332.4224
        50.0004         43.0004
  23193410.0724    3921070.78043   3056143.42742  23193411.7314   23193408.1784
        49.0004         43.0004
  21974534.2164     219445.90643    174756.29042  21974536.3874   21974531.7544
        53.0004         46.0004
 04  6 23 15 54  0.0000000  0  8G22G21G18G 6G16G15G29G26
  22064636.5564  -10529261.98643  -8199167.07442  22064637.3554   22064631.1844
        55.0004         47.0004
  20623991.6634   -2667597.38044  -2076995.45142  20623992.9274   20623986.8994
        57.0004         50.0004
  20518731.3314   -5299990.83244  -4089789.24342  20518733.0734   20518727.0194
        57.0004         51.0004
  21293512.3714    5979423.07043   4658679.93942  21293513.9754   21293509.8014
        55.0004         49.0004
  23541116.7334   -3844167.02643  -2988294.61142  23541117.7744   23541113.9964
        48.0004         41.0004
  22680425.2834   -9008666.73743  -7015481.53242  22680426.4424   22680424.7854
        50.0004         44.0004
  23200968.3594    3960783.45843   3087088.31742  23200970.4994   23200965.1194
        49.0004         42.0004
  21979459.4124     245335.26643    194929.78542  21979463.0634   21979458.6124
        52.0004         45.0004
 04  6 23 15 54 20.0000000  0  8G22G21G18G 6G16G15G29G26
  22055884.8484  -10575253.94343  -8235004.94542  22055885.3704   22055878.8524
        55.0004         47.0004
  20622224.0894   -2676885.61444  -2084233.04342  20622225.5834   20622219.3554
        57.0004         50.0004
  20516295.8294   -5312789.81444  -4099762.47842  20516297.2964   20516291.4104
        57.0004         51.0004
  21302609.4684    6027228.07243   4695930.55342  21302611.2964   21302606.7134
        56.0004         49.0004
  23542462.2424   -3837095.21243  -2982784.14942  23542464.0444   23542459.2994
        47.0004         41.0004
  22671519.9204   -9055466.11443  -7051948.54942  22671521.4324   22671517.7034
        50.0004         44.0004
  23208563.3734    4000700.06543   3118192.14242  23208565.2574   23208559.3454
        50.0004         42.0004
  21984441.8024     271506.65743    215323.05842  21984443.3684   21984438.7374
        52.0004         45.0004
 04  6 23 15 54 40.0000000  0  8G22G21G18G 6G16G15G29G26
  22047161.2054  -10621095.95343  -8270725.97542  22047162.0754   22047155.4364
        55.0004         47.0004
  20620474.3544   -2686081.73444  -2091398.86042  20620475.6174   20620469.6434
        57.0004         50.0004
  20513895.8324   -5325401.62444  -4109589.86642  20513897.2664   20513891.6464
        57.0004         51.0004
  21311741.4804    6075216.81543   4733324.34142  21311743.3184   21311739.0994
        56.0004         49.0004
  23543851.2254   -3829799.78243  -2977099.43142  23543852.8324   23543848.4294
        48.0004         41.0004
  22662619.3364   -9102237.40043  -7088393.69442  22662619.5114   22662617.3664
        50.0004         44.0004
  23216197.0834    4040823.40743   3149457.02742  23216199.6824   23216197.6004
        48.0004         42.0004
  21989475.3784     297963.05543    235938.40342  21989478.3814   21989473.9094
        52.0004         45.0004
 04  6 23 15 55  0.0000000  0  8G22G21G18G 6G16G15G29G26
  22038465.9614  -10666790.13243  -8306331.81642  22038467.0634   22038460.0064
        55.0004         47.0004
  20618741.5704   -2695187.62944  -2098494.37242  20618742.9184   20618736.6884
        57.0004         50.0004
  20511531.1914   -5337828.56043  -4119273.19442  20511532.6134   20511526.7904
        56.0004         51.0004
  21320907.8734    6123386.72243   4770859.29842  21320909.9744   21320905.4994
        56.0004         49.0004
  23545281.7844   -3822283.19143  -2971242.38642  23545284.8974   23545279.1924
        47.0004         41.0004
  22653724.5604   -9148982.67643  -7124818.56942  22653724.7334   22653723.0594
        50.0004         44.0004
  23223872.6144    4081150.58643   3180880.77742  23223874.2044   23223870.4134
        49.0004         43.0004
  21994563.6194     324701.81243    256773.75942  21994566.2904   21994561.4574
        52.0004         45.0004
 04  6 23 15 55 20.0000000  0  8G22G21G18G 6G16G15G29G26
  22029798.3924  -10712337.78543  -8341823.47742  22029799.0594   22029793.1114
        55.0004         47.0004
  20617025.5924   -2704204.95544  -2105520.86442  20617026.9224   20617020.8104
        57.0004         50.0004
  20509201.0694   -5350072.31144  -4128813.78342  20509202.7144   20509196.9024
        57.0004         51.0004
  21330108.5804    6171735.68143   4808533.77742  21330110.3064   21330105.8914
        56.0004         49.0004
  23546754.6154   -3814547.39243  -2965214.53142  23546754.5644   23546751.9814
        49.0004         41.0004
  22644833.7234   -9195703.26243  -7161224.18742  22644834.3244   22644831.9734
        51.0004         44.0004
  23231584.4704    4121679.60043   3212461.77942  23231587.6034   23231582.7264
        49.0004         42.0004
  21999705.1334     351721.06443    277827.71842  21999707.6444   21999703.0774
        52.0004         45.0004
 04  6 23 15 55 40.0000000  0  8G22G21G18G 6G16G15G29G26
  22021159.6474  -10757734.49943  -8377197.51542  22021160.2094   22021153.4884
        55.0004         47.0004
  20615327.6124   -2713128.92944  -2112474.61942  20615328.9654   20615322.2614
        57.0004         51.0004
  20506907.0484   -5362128.75244  -4138208.41542  20506908.6554   20506902.5124
        57.0004         51.0004
  21339343.7784    6220267.56243   4846350.78942  21339345.5644   21339341.2484
        56.0004         49.0004
  23548267.8664   -3806588.46043  -2959012.79042  23548271.0554   23548265.9734
        49.0004         41.0004
  22635948.6944   -9242394.87843  -7197607.24942  22635949.5454   22635946.1504
        50.0004         44.0004
  23239336.8544    4162414.12343   3244202.93642  23239339.6424   23239335.1734
        49.0004         42.0004
  22004902.3704     379024.66743    299103.22242  22004903.3904   22004899.1274
        53.0004         45.0004
 04  6 23 15 56  0.0000000  0  8G22G21G18G 6G16G15G29G26
  22012549.1744  -10802982.36043  -8412455.56742  22012550.1594   22012543.7514
        55.0004         47.0004
  20613646.5764   -2721961.59844  -2119357.22642  20613648.1704   20613641.4574
        57.0004         51.0004
  20504647.9594   -5374000.21744  -4147458.90942  20504649.5824   20504643.5864
        57.0004         51.0004
  21348613.1844    6268979.72043   4884308.28142  21348615.2264   21348610.8884
        56.0004         49.0004
  23549824.0474   -3798409.03343  -2952639.25042  23549826.1334   23549823.2494
        49.0004         41.0004
  22627067.3174   -9289059.68943  -7233969.41642  22627069.1374   22627065.6194
        50.0004         44.0004
  23247125.5164    4203351.30943   3276102.02342  23247126.9644   23247123.7744
        47.0004         42.0004
  22010149.5884     406609.82743    320598.11542  22010153.1194   22010148.3834
        52.0004         45.0004
 04  6 23 15 56 20.0000000  0  8G22G21G18G 6G16G15G29G26
  22003966.6064  -10848084.25743  -8447599.88342  22003967.3554   22003961.0114
        55.0004         47.0004
  20611982.6454   -2730705.99644  -2126171.05342  20611984.0924   20611977.7054
        57.0004         50.0004
  20502423.4474   -5385690.19644  -4156567.98342  20502424.9814   20502419.2284
        57.0004         51.0004
  21357916.4624    6317868.44643   4922403.35942  21357918.4444   21357914.4424
        55.0004         49.0004
  23551423.1614   -3790012.42843  -2946096.48742  23551424.7314   23551421.3284
        48.0004         41.0004
  22618192.4524   -9335700.52643  -7270312.90842  22618194.2184   22618190.7364
        50.0004         44.0004
  23254956.3124    4244487.53143   3308156.17742  23254956.6674   23254953.6124
        49.0004         42.0004
  22015453.4204     434473.07743    342309.72042  22015455.2474   22015450.9144
        53.0004         45.0004
 04  6 23 15 56 40.0000000  0  8G22G21G18G 6G16G15G29G26
  21995413.2174  -10893032.33843  -8482624.33542  21995413.7384   21995407.9224
        55.0004         47.0004
  20610336.6674   -2739354.24344  -2132909.95542  20610338.4314   20610331.9894
        57.0004         50.0004
  20500234.8324   -5397191.13943  -4165529.75842  20500236.4844   20500230.6114
        56.0004         51.0004
  21367254.9924    6366940.94643   4960641.64342  21367257.1794   21367252.1984
        55.0004         48.0004
  23553062.9124   -3781391.56943  -2939378.98042  23553063.9094   23553060.7474
        48.0004         41.0004
  22609323.2594   -9382309.59443  -7306631.64442  22609324.6154   22609322.1614
        50.0004         44.0004
  23262819.8264    4285829.72243   3340370.81542  23262823.6574   23262820.8574
        48.0004         42.0004
  22020807.8734     462621.61943    364243.62542  22020811.3884   22020807.0354
        52.0004         45.0004
 04  6 23 15 57  0.0000000  0  8G22G21G18G 6G16G15G29G26
  21986887.6144  -10937834.42443  -8517535.03342  21986888.2664   21986882.2564
        55.0004         47.0004
  20608708.1754   -2747913.81244  -2139579.75842  20608709.6954   20608703.1634
        57.0004         50.0004
  20498080.7244   -5408511.20043  -4174350.58842  20498082.3094   20498076.1494
        56.0004         51.0004
  21376626.4024    6416188.80643   4999016.56542  21376628.3524   21376624.0074
        55.0004         48.0004
  23554744.6824   -3772554.68843  -2932493.14242  23554747.5064   23554742.7964
        48.0004         41.0004
  22600458.3344   -9428894.77243  -7342931.77142  22600459.1594   22600457.0264
        50.0004         44.0004
  23270727.1484    4327369.49143   3372739.44342  23270727.2304   23270723.8314
        48.0004         42.0004
  22026220.1354     491047.17543    386393.38042  22026221.6484   22026215.6664
        52.0004         45.0004
 04  6 23 15 57 20.0000000  0  8G22G21G18G 6G16G15G29G26
  21978390.1584  -10982489.13743  -8552330.89042  21978390.3524   21978384.8444
        55.0004         47.0004
  20607096.2974   -2756383.55144  -2146179.56542  20607097.9184   20607091.4224
        58.0004         51.0004
  20495961.0604   -5419649.47544  -4183029.76442  20495962.6494   20495956.8244
        57.0004         51.0004
  21386031.4274    6465612.87543   5037528.79242  21386033.1094   21386028.9494
        55.0004         48.0004
  23556467.7084   -3763500.93543  -2925438.30742  23556469.4854   23556466.7734
        48.0004         41.0004
  22591598.1384   -9475454.74343  -7379212.25242  22591598.9094   22591596.0674
        50.0004         44.0004
  23278668.7644    4369107.47943   3405262.51342  23278670.5514   23278666.3194
        48.0004         42.0004
  22031680.4354     519750.40143    408759.49842  22031682.1844   22031678.2624
        53.0004         45.0004
 04  6 23 15 57 40.0000000  0  8G22G21G18G 6G16G15G29G26
  21969921.9614  -11026989.12643  -8587006.19142  21969922.4694   21969916.5384
        55.0004         47.0004
  20605503.0584   -2764756.05544  -2152703.60642  20605504.5304   20605498.1164
        57.0004         50.0004
  20493877.4264   -5430598.75343  -4191561.67042  20493879.1124   20493873.1684
        56.0004         51.0004
  21395471.2194    6515219.63643   5076183.37742  21395473.1074   21395468.8844
        55.0004         48.0004
  23558233.0304   -3754223.50843  -2918209.19342  23558234.5694   23558231.6704
        49.0004         41.0004
  22582744.4134   -9521982.25443  -7415467.44442  22582746.3464   22582742.0124
        51.0004         44.0004
  23286649.2914    4411050.21843   3437945.12342  23286651.9354   23286649.5704
        48.0004         42.0004
  22037196.9184     548738.08143    431347.27042  22037198.8654   22037195.2424
        53.0004         45.0004
 04  6 23 15 58  0.0000000  0  8G22G21G18G 6G16G15G29G26
  21961481.8544  -11071342.47143  -8621567.22542  21961482.5804   21961476.2894
        55.0004         47.0004
  20603926.8314   -2773039.34044  -2159158.12542  20603928.2194   20603921.9094
        57.0004         50.0004
  20491828.3534   -5441367.54743  -4199952.94142  20491830.0394   20491824.3094
        56.0004         51.0004
  21404944.4644    6565000.57043   5114973.68342  21404946.2144   21404941.9394
        55.0004         48.0004
  23560039.5574   -3744731.00843  -2910812.47142  23560040.0994   23560036.7294
        48.0004         42.0004
  22573895.1054   -9568485.45643  -7451703.69142  22573896.6354   22573892.3624
        51.0004         44.0004
  23294668.0084    4453188.74543   3470780.30742  23294670.2504   23294666.7274
        48.0004         42.0004
  22042766.2324     578001.57743    454149.95642  22042768.2294   22042762.2584
        53.0004         45.0004
 04  6 23 15 58 20.0000000  0  8G22G21G18G 6G16G15G29G26
  21953070.3484  -11115545.35043  -8656011.01142  21953071.0634   21953064.4734
        55.0004         47.0004
  20602368.2744   -2781229.40344  -2165540.00142  20602369.6514   20602363.3854
        57.0004         50.0004
  20489814.0184   -5451952.52243  -4208200.97842  20489815.8484   20489810.0134
        56.0004         51.0004
  21414451.0344    6614958.65643   5153902.02542  21414453.1664   21414448.9984
        55.0004         48.0004
  23561887.5204   -3735020.35343  -2903245.76842  23561888.2504   23561885.5304
        48.0004         42.0004
  22565051.4144   -9614960.43943  -7487917.94642  22565052.9904   22565049.2974
        51.0004         44.0004
  23302724.7324    4495526.36543   3503770.63542  23302727.9874   23302724.6374
        48.0004         42.0004
  22048387.8474     607544.00343    477170.00842  22048389.4074   22048385.0954
        53.0004         45.0004
 04  6 23 15 58 40.0000000  0  8G22G21G18G 6G16G15G29G26
  21944687.4494  -11159598.27343  -8690337.94942  21944688.0034   21944681.4954
        55.0004         48.0004
  20600827.5484   -2789326.74644  -2171849.62842  20600828.9724   20600822.4494
        57.0004         51.0004
  20487834.6094   -5462354.53943  -4216306.44942  20487836.3164   20487830.5414
        56.0004         51.0004
  21423991.5644    6665092.92843   5192967.65042  21423993.1694   21423989.1064
        55.0004         48.0004
  23563777.0794   -3725092.50443  -2895509.83342  23563778.8394   23563775.8044
        48.0004         41.0004
  22556212.6704   -9661407.77643  -7524110.65942  22556213.6154   22556210.2504
        51.0004         44.0004
  23310821.4554    4538061.75543   3536915.08442  23310823.4464   23310818.7524
        48.0004         42.0004
  22054061.2744     637364.15343    500406.46842  22054063.8064   22054059.2824
        52.0004         45.0004
 04  6 23 15 59  0.0000000  0  8G22G21G18G 6G16G15G29G26
  21936333.0524  -11203500.32343  -8724547.32642  21936333.9694   21936327.0044
        55.0004         48.0004
  20599304.3094   -2797330.67144  -2178086.46142  20599305.7644   20599299.2624
        57.0004         50.0004
  20485890.1444   -5472573.03143  -4224268.91442  20485891.9034   20485885.9394
        56.0004         51.0004
  21433565.2424    6715403.37443   5232170.55842  21433567.3234   21433562.8794
        55.0004         48.0004
  23565707.1254   -3714947.28243  -2887604.51442  23565709.6714   23565705.4324
        48.0004         41.0004
  22547379.3014   -9707826.69643  -7560281.22942  22547380.7824   22547378.2614
        51.0004         44.0004
  23318950.1764    4580794.83643   3570213.50942  23318953.5634   23318951.1714
        48.0004         42.0004
  22059789.8724     667462.37343    523859.58442  22059792.0254   22059787.6244
        53.0004         45.0004
 04  6 23 15 59 20.0000000  0  8G22G21G18G 6G16G15G29G26
  21928007.6224  -11247251.79443  -8758639.37142  21928008.3024   21928001.5794
        55.0004         48.0004
  20597799.1804   -2805241.26044  -2184250.56442  20597800.6364   20597794.0184
        57.0004         50.0004
  20483980.4354   -5482608.55643  -4232088.80642  20483982.1204   20483976.2834
        56.0004         51.0004
  21443172.4494    6765889.31743   5271510.21042  21443174.4524   21443169.9834
        55.0004         48.0004
  23567679.1294   -3704585.12643  -2879530.14642  23567681.7954   23567678.0894
        48.0004         41.0004
  22538551.7074   -9754217.32243  -7596429.76142  22538552.7654   22538550.0034
        51.0004         44.0004
  23327122.2324    4623724.85043   3603665.45342  23327124.4354   23327119.4844
        50.0004         42.0004
  22065569.5434     697837.76543    547528.70842  22065571.9984   22065567.3524
        52.0004         45.0004
 04  6 23 15 59 40.0000000  0  8G22G21G18G 6G16G15G29G26
  21919710.1214  -11290854.53743  -8792615.51542  21919710.6584   21919704.6734
        55.0004         48.0004
  20596311.2964   -2813060.19044  -2190343.24242  20596312.5634   20596306.3394
        57.0004         50.0004
  20482105.2044   -5492463.42443  -4239767.92942  20482106.7504   20482100.8704
        56.0004         51.0004
  21452812.5064    6816548.08743   5310984.54242  21452814.5954   21452810.4764
        55.0004         48.0004
  23569691.9504   -3694008.81043  -2871288.91142  23569692.5154   23569690.5194
        49.0004         41.0004
  22529728.9324   -9800581.55343  -7632557.72442  22529730.8834   22529727.2324
        51.0004         44.0004
  23335326.0844    4666848.90043   3637268.57042  23335329.4964   23335325.8404
        48.0004         43.0004
  22071401.0554     728487.88843    571411.88342  22071404.6674   22071400.2324
        52.0004         45.0004
 04  6 23 16  0  0.0000000  0  9G22G21G18G 6G16G15G29G26G 3
  21911441.0664  -11334308.37943  -8826475.62942  21911441.8634   21911435.4954
        55.0004         48.0004
  20594840.4554   -2820787.42144  -2196364.46742  20594842.0364   20594835.7384
        57.0004         50.0004
  20480264.1964   -5502137.78043  -4247306.39142  20480265.8034   20480259.6414
        56.0004         51.0004
  21462485.1784    6867379.22143   5350593.18342  21462487.2254   21462483.2864
        55.0004         48.0004
  23571745.0044   -3683218.70443  -2862881.07742  23571746.6304   23571743.0874
        49.0004         42.0004
  22520911.1484   -9846919.24943  -7668665.00242  22520911.9774   22520908.6844
        51.0004         44.0004
  23343571.4404    4710166.53143   3671022.54142  23343572.6644   23343568.2814
        50.0004         42.0004
  22077287.9994     759412.13043    595508.66842  22077288.6004   22077284.9554
        53.0004         45.0004
  24592290.8064   -3149213.36753  -2427093.83552  24592293.3454   24592292.4664
        45.0004         37.0004
 04  6 23 16  0 20.0000000  0  9G22G21G18G 6G16G15G29G26G 3
  21903201.4944  -11377607.51743  -8860215.20142  21903202.2884   21903195.7004
        55.0004         48.0004
  20593388.7314   -2828416.88044  -2202309.50842  20593390.4074   20593383.8054
        57.0004         50.0004
  20478458.6264   -5511626.05643  -4254699.85842  20478460.3244   20478454.2454
        56.0004         51.0004
  21472192.0234    6918388.07743   5390340.31842  21472193.9614   21472189.9744
        55.0004         48.0004
  23573840.7544   -3672209.39743  -2854302.44142  23573841.8234   23573837.2684
        49.0004         42.0004
  22512099.1554   -9893224.60243  -7704747.08742  22512100.5074   22512097.7804
        51.0004         44.0004
  23351851.3454    4753682.88643   3704931.36342  23351853.1494   23351851.2354
        49.0004         42.0004
  22083224.0874     790615.87943    619823.26242  22083226.7904   22083222.4234
        52.0004         45.0004
  24579699.5044   -3215385.23443  -2478656.27542  24579701.4584   24579696.7604
        46.0004         37.0004
 04  6 23 16  0 40.0000000  0  9G22G21G18G 6G16G15G29G26G 3
  21894990.1724  -11420757.89843  -8893838.85042  21894990.9434   21894984.8534
        55.0004         47.0004
  20591954.4834   -2835954.71044  -2208183.15142  20591955.9414   20591949.6674
        58.0004         50.0004
  20476687.2034   -5520934.64243  -4261953.30442  20476688.9894   20476683.0134
        56.0004         51.0004
  21481931.1564    6969567.81943   5430220.60242  21481932.9014   21481928.9654
        55.0004         48.0004
  23575975.7254   -3660987.52943  -2845558.16142  23575977.4974   23575972.1014
        48.0004         42.0004
  22503293.0304   -9939503.66643  -7740808.68842  22503294.6164   22503290.3704
        51.0004         44.0004
  23360169.6354    4797391.12743   3738989.69042  23360171.6884   23360166.2294
        49.0004         42.0004
  22089213.6904     822092.33443    644350.34542  22089216.4344   22089212.1814
        52.0004         45.0004
  24567120.0364   -3281491.74443  -2530167.83442  24567122.2434   24567118.0104
        46.0004         37.0004
 04  6 23 16  1  0.0000000  0  9G22G21G18G 6G16G15G29G26G 3
  21886808.0634  -11463755.25743  -8927343.26542  21886808.8474   21886802.3664
        55.0004         48.0004
  20590538.5604   -2843396.41944  -2213981.89142  20590539.7884   20590533.6064
        57.0004         50.0004
  20474950.8274   -5530059.68443  -4269063.73042  20474952.6074   20474946.5104
        56.0004         51.0004
  21491703.6374    7020922.11943   5470236.91042  21491705.4404   21491701.2654
        55.0004         48.0004
  23578152.1794   -3649549.31043  -2836645.31942  23578153.8844   23578149.5614
        49.0004         42.0004
  22494491.7764   -9985752.10243  -7776846.41142  22494492.5604   22494491.2174
        51.0004         44.0004
  23368521.7774    4841294.83743   3773200.35542  23368523.9474   23368520.9834
        48.0004         42.0004
  22095256.9034     853845.21543    669092.81742  22095259.7954   22095254.6874
        52.0004         45.0004
  24554553.2794   -3347528.07943  -2581624.67842  24554553.8024   24554549.5184
        45.0004         37.0004
 04  6 23 16  1 20.0000000  0  9G22G21G18G 6G16G15G29G26G 3
  21878654.3964  -11506602.91243  -8960731.02842  21878655.3044   21878648.4884
        55.0004         48.0004
  20589139.8414   -2850745.21644  -2219708.23842  20589141.3844   20589135.0494
        57.0004         50.0004
  20473248.6964   -5539004.89743  -4276034.02842  20473250.1584   20473244.5414
        56.0004         51.0004
  21501508.5254    7072447.11143   5510386.22242  21501510.5714   21501506.4044
        55.0004         48.0004
  23580369.8654   -3637898.72343  -2827566.96942  23580371.0464   23580367.7194
        48.0004         42.0004
  22485696.7574  -10031973.27343  -7812862.89942  22485697.2474   22485694.0264
        51.0004         44.0004
  23376915.2484    4885389.90343   3807560.10142  23376915.9024   23376913.3524
        50.0004         42.0004
  22101351.7024     885870.42843    694047.50142  22101353.2854   22101349.8264
        53.0004         45.0004
  24542000.0194   -3413497.00043  -2633029.02442  24542000.4344   24542001.3814
        45.0004         38.0004
 04  6 23 16  1 40.0000000  0  9G22G21G18G 6G16G15G29G26G 3
  21870530.3914  -11549294.77143  -8993997.39542  21870531.2844   21870525.0814
        55.0004         48.0004
  20587760.1724   -2857994.94044  -2225357.38242  20587761.8364   20587755.4564
        57.0004         50.0004
  20471581.6784   -5547764.42743  -4282859.63942  20471583.3124   20471577.3024
        56.0004         51.0004
  21511346.8624    7124148.06943   5550672.64642  21511348.8124   21511344.5764
        54.0004         48.0004
  23582628.0874   -3626030.25743  -2818318.86142  23582628.0434   23582626.5254
        49.0004         42.0004
  22476906.6074  -10078160.96243  -7848853.29142  22476908.2644   22476904.8644
        51.0004         44.0004
  23385342.0774    4929681.50043   3842073.02242  23385343.9594   23385340.1524
        49.0004         42.0004
  22107498.8904     918173.63543    719218.79742  22107500.9374   22107496.3924
        52.0004         45.0004
  24529460.6364   -3479391.67543  -2684375.51042  24529462.3554   24529459.9574
        47.0004         38.0004
 04  6 23 16  2  0.0000000  0  9G22G21G18G 6G16G15G29G26G 3
  21862434.4054  -11591840.09243  -9027149.57842  21862435.1864   21862429.1634
        55.0004         48.0004
  20586397.8874   -2865154.85344  -2230936.54442  20586399.3904   20586393.1534
        57.0004         50.0004
  20469948.2424   -5556348.16643  -4289548.26542  20469949.9104   20469944.0894
        56.0004         51.0004
  21521217.0154    7176015.12643   5591088.50342  21521218.5304   21521214.6744
        55.0004         48.0004
  23584926.3394   -3613953.71143  -2808908.61042  23584927.0534   23584924.4304
        49.0004         42.0004
  22468122.8744  -10124324.51643  -7884824.87342  22468123.3814   22468120.1914
        52.0004         44.0004
  23393808.3304    4974159.96843   3876731.54642  23393809.6524   23393804.8944
        49.0004         42.0004
  22113697.1294     950744.72343    744598.84942  22113698.9094   22113694.4384
        52.0004         45.0004
  24516934.3564   -3545220.91743  -2735670.99242  24516934.7094   24516930.3674
        47.0004         37.0004
 04  6 23 16  2 20.0000000  0  9G22G21G18G 6G16G15G29G26G 3
  21854367.4674  -11634231.66643  -9060181.95942  21854368.4514   21854362.1334
        55.0004         48.0004
  20585053.9064   -2872217.59144  -2236439.98742  20585055.3284   20585048.9694
        57.0004         50.0004
  20468349.7304   -5564749.12843  -4296094.46942  20468351.3364   20468345.6004
        56.0004         51.0004
  21531119.8044    7228054.72743   5631638.80542  21531121.7204   21531117.4384
        55.0004         48.0004
  23587265.7824   -3601662.60543  -2799331.16442  23587265.7864   23587262.6384
        49.0004         42.0004
  22459343.8244  -10170456.96043  -7920772.21942  22459345.7034   22459340.6664
        51.0004         44.0004
  23402306.3024    5018831.52943   3911540.50442  23402310.3384   23402305.6614
        49.0004         42.0004
  22119946.4444     983590.28943    770192.75342  22119948.8784   22119944.4784
        52.0004         45.0004
  24504421.1454   -3610977.08343  -2786909.53642  24504422.0334   24504418.7854
        46.0004         37.0004
 04  6 23 16  2 40.0000000  0  9G22G21G18G 6G16G15G29G26G 3
  21846329.4644  -11676472.08043  -9093096.54942  21846330.2304   21846324.2624
        55.0004         48.0004
  20583728.2114   -2879185.73544  -2241869.71842  20583729.4974   20583722.9984
        57.0004         50.0004
  20466785.1694   -5572970.23443  -4302500.52642  20466786.9804   20466780.9924
        56.0004         51.0004
  21541054.7684    7280263.75943   5672321.13142  21541056.9914   21541052.5254
        55.0004         48.0004
  23589643.9894   -3589160.04043  -2789588.93642  23589646.3994   23589643.8334
        49.0004         42.0004
  22450570.4964  -10216560.69343  -7956697.19642  22450571.7454   22450567.9874
        51.0004         44.0004
  23410843.1444    5063692.66943   3946497.21142  23410844.9414   23410843.5404
        47.0004         42.0004
  22126249.1584    1016707.10643    795998.04142  22126250.9574   22126246.4024
        53.0004         45.0004
  24491922.1244   -3676661.99143  -2838092.58442  24491923.4234   24491920.6754
        46.0004         38.0004
 04  6 23 16  3  0.0000000  0  9G22G21G18G 6G16G15G29G26G 3
  21838320.7574  -11718558.20743  -9125890.91442  21838321.4184   21838315.0744
        55.0004         48.0004
  20582420.8584   -2886055.97844  -2247223.16242  20582422.0314   20582415.9734
        57.0004         51.0004
  20465255.5514   -5581008.49643  -4308764.11042  20465257.0674   20465251.2624
        56.0004         51.0004
  21551022.6724    7332644.66943   5713137.38842  21551024.6054   21551020.3894
        55.0004         48.0004
  23592065.2364   -3576443.19043  -2779679.74442  23592065.8684   23592061.5934
        50.0004         42.0004
  22441803.2064  -10262632.43743  -7992597.23942  22441804.3894   22441801.4594
        52.0004         44.0004
  23419419.6044    5108745.95043   3981603.63942  23419419.7564   23419415.8894
        49.0004         42.0004
  22132603.3624    1050097.74643    822016.69142  22132605.4144   22132600.4384
        52.0004         45.0004
  24479437.9934   -3742271.78443  -2889217.10542  24479438.2214   24479436.1224
        46.0004         39.0004
 04  6 23 16  3 20.0000000  0  9G22G21G18G 6G16G15G29G26G 3
  21830340.5684  -11760494.46043  -9158568.49442  21830341.0244   21830335.0784
        55.0004         48.0004
  20581131.1764   -2892832.31844  -2252503.43842  20581132.7014   20581126.3104
        58.0004         51.0004
  20463759.8604   -5588868.61643  -4314888.87742  20463761.5244   20463755.6784
        56.0004         51.0004
  21561022.1424    7385192.56543   5754083.77042  21561023.9724   21561020.1234
        55.0004         48.0004
  23594524.0354   -3563517.10343  -2769607.49442  23594525.9624   23594521.8624
        49.0004         42.0004
  22433041.3634  -10308676.60743  -8028475.80442  22433042.6904   22433038.8604
        51.0004         44.0004
  23428026.4014    5153986.34543   4016855.88142  23428024.6674   23428022.7864
        48.0004         42.0004
  22139007.9254    1083757.10543    848244.73942  22139010.9334   22139005.9364
        52.0004         45.0004
  24466965.3714   -3807810.41043  -2940286.15242  24466969.4114   24466964.7514
        47.0004         38.0004
 04  6 23 16  3 40.0000000  0  9G22G21G18G 6G16G15G29G26G 3
  21822389.4904  -11802276.30343  -9191125.75542  21822390.1364   21822383.9274
        55.0004         48.0004
  20579860.3204   -2899510.53544  -2257707.25142  20579861.8654   20579855.4604
        57.0004         51.0004
  20462298.7164   -5596546.89343  -4320871.95142  20462300.3884   20462294.2854
        56.0004         51.0004
  21571054.3574    7437911.06043   5795163.08142  21571056.1944   21571051.8054
        55.0004         48.0004
  23597024.8574   -3550378.18843  -2759369.42342  23597026.4584   23597021.9154
        49.0004         41.0004
  22424285.4974  -10354688.74843  -8064329.40342  22424286.6044   22424282.6674
        52.0004         44.0004
  23436672.8884    5199417.49043   4052256.72642  23436676.0554   23436669.7064
        48.0004         42.0004
  22145464.7934    1117688.94243    874685.09242  22145467.2794   22145463.1354
        52.0004         45.0004
  24454509.3354   -3873272.89943  -2991295.89742  24454510.4664   24454507.8144
        47.0004         38.0004
 04  6 23 16  4  0.0000000  0  9G22G21G18G 6G16G15G29G26G 3
  21814467.1384  -11843908.63343  -9223566.51742  21814467.8404   21814461.6954
        55.0004         48.0004
  20578607.4124   -2906095.56044  -2262838.44642  20578608.5614   20578602.4914
        57.0004         51.0004
  20460871.3174   -5604048.36743  -4326717.25742  20460872.9704   20460866.9304
        56.0004         51.0004
  21581117.9174    7490794.79943   5836371.15242  21581119.9884   21581115.3264
        55.0004         48.0004
  23599564.3164   -3537031.76143  -2748969.65042  23599565.9434   23599560.3644
        48.0004         41.0004
  22415535.0964  -10400673.62743  -8100161.76242  22415536.6874   22415532.4934
        52.0004         44.0004
  23445351.4054    5245033.67343   4087801.77242  23445355.3424   23445347.8164
        49.0004         41.0004
  22151972.2894    1151887.82643    901333.54442  22151975.7194   22151970.5464
        52.0004         45.0004
  24442064.6834   -3938663.37943  -3042249.46942  24442066.1674   24442062.6434
        45.0004         38.0004
 04  6 23 16  4 20.0000000  0  9G22G21G18G 6G16G15G29G26G 3
  21806574.2154  -11885386.98543  -9255887.29142  21806574.8414   21806568.8274
        55.0004         48.0004
  20577372.9594   -2912582.77444  -2267893.42442  20577374.3294   20577367.8744
        57.0004         51.0004
  20459478.3134   -5611368.96743  -4332421.62342  20459479.8494   20459473.7864
        56.0004         51.0004
  21591213.1744    7543847.34443   5877710.75842  21591214.9774   21591211.3224
        55.0004         48.0004
  23602143.1804   -3523473.97843  -2738405.18342  23602144.8744   23602143.1954
        48.0004         41.0004
  22406790.5324  -10446626.85543  -8135969.46342  22406791.8474   22406788.2514
        52.0004         44.0004
  23454069.8024    5290838.61843   4123493.90342  23454070.4464   23454067.1804
        48.0004         41.0004
  22158532.1564    1186357.38443    928192.90842  22158534.2494   22158530.5704
        52.0004         45.0004
  24429635.3454   -4003976.91543  -3093143.10642  24429638.0134   24429633.4524
        46.0004         38.0004
 04  6 23 16  4 40.0000000  0  9G22G21G18G 6G16G15G29G26G 3
  21798710.1524  -11926712.98043  -9288089.34842  21798711.0814   21798704.4174
        56.0004         48.0004
  20576156.7684   -2918973.20844  -2272872.98742  20576158.1144   20576151.9264
        57.0004         51.0004
  20458119.3074   -5618510.47643  -4337986.43342  20458120.7944   20458114.9834
        56.0004         51.0004
  21601340.5504    7597066.80843   5919180.43742  21601342.3164   21601338.3994
        54.0004         48.0004
  23604763.7284   -3509706.85943  -2727677.59142  23604765.3614   23604761.8944
        48.0004         41.0004
  22398051.6574  -10492549.81743  -8171753.57142  22398053.1844   22398049.0814
        51.0004         44.0004
  23462821.4714    5336830.13643   4159331.40142  23462824.1004   23462819.6604
        49.0004         42.0004
  22165143.0584    1221095.49143    955261.54042  22165144.5714   22165140.8484
        52.0004         45.0004
  24417221.5054   -4069214.34843  -3143977.47042  24417221.8664   24417220.8694
        44.0004         38.0004
 04  6 23 16  5  0.0000000  0  9G22G21G18G 6G16G15G29G26G 3
  21790875.1944  -11967885.83543  -9320172.07842  21790876.0284   21790869.4644
        55.0004         48.0004
  20574959.2684   -2925266.11444  -2277776.55742  20574960.6054   20574954.3984
        57.0004         51.0004
  20456794.4304   -5625472.77043  -4343411.60042  20456796.1554   20456790.1314
        56.0004         51.0004
  21611500.0154    7650453.04343   5960780.06042  21611501.9644   21611497.6184
        55.0004         48.0004
  23607422.8514   -3495730.30043  -2716786.80642  23607425.1804   23607421.2264
        48.0004         41.0004
  22389318.7234  -10538441.71443  -8207513.47642  22389319.6724   22389316.0724
        52.0004         44.0004
  23471606.4554    5383007.93343   4195314.05342  23471609.5944   23471606.6754
        47.0004         41.0004
  22171803.2484    1256102.12343    982539.41242  22171806.3164   22171801.9254
        51.0004         45.0004
  24404820.7794   -4134374.34843  -3194751.49642  24404821.2384   24404822.9654
        45.0004         39.0004
 04  6 23 16  5 20.0000000  0  9G22G21G18G 6G16G15G29G26G 3
  21783069.1164  -12008906.99643  -9352136.59842  21783069.7554   21783063.5114
        56.0004         48.0004
  20573780.0094   -2931463.23944  -2282605.48942  20573781.3244   20573775.2534
        57.0004         51.0004
  20455503.3324   -5632257.49743  -4348698.40242  20455505.1654   20455498.8784
        56.0004         51.0004
  21621690.0764    7704003.95943   6002508.00842  21621692.2874   21621688.2264
        55.0004         48.0004
  23610122.1224   -3481546.36643  -2705734.43042  23610124.3324   23610120.7684
        48.0004         41.0004
  22380591.2944  -10584303.98143  -8243250.29642  22380592.2544   22380589.2504
        52.0004         44.0004
  23480429.6714    5429370.06043   4231440.35642  23480432.2964   23480427.2044
        47.0004         41.0004
  22178517.5844    1291375.36443   1010025.02442  22178517.7904   22178514.8884
        52.0004         45.0004
  24392435.8224   -4199457.78143  -3245465.84842  24392437.8674   24392436.8094
        44.0004         38.0004
 04  6 23 16  5 40.0000000  0  9G22G21G18G 6G16G15G29G26G 3
  21775292.5974  -12049773.02643  -9383980.24042  21775293.2654   21775286.6974
        56.0004         48.0004
  20572619.5244   -2937560.80544  -2287356.84342  20572621.2774   20572614.8554
        57.0004         51.0004
  20454246.5254   -5638861.73943  -4353844.56542  20454248.0984   20454242.0274
        56.0004         51.0004
  21631912.5424    7757722.32543   6044366.43342  21631914.0884   21631910.2194
        55.0004         48.0004
  23612861.6734   -3467152.28143  -2694518.30442  23612861.8444   23612862.1074
        48.0004         41.0004
  22371870.5734  -10630133.16143  -8278961.33142  22371871.3124   22371868.0384
        52.0004         44.0004
  23489290.5534    5475918.95243   4267712.19542  23489291.3594   23489288.3014
        49.0004         42.0004
  22185279.0054    1326917.77243   1037720.36042  22185282.8204   22185278.2284
        52.0004         45.0004
  24380065.7644   -4264460.86643  -3296117.54342  24380069.7394   24380064.9844
        45.0004         38.0004
 04  6 23 16  6  0.0000000  0  9G22G21G18G 6G16G15G29G26G 3
  21767544.6904  -12090487.66443  -9415705.92042  21767544.9244   21767539.2484
        55.0004         48.0004
  20571477.7654   -2943562.29544  -2292033.33542  20571479.0434   20571472.7824
        57.0004         51.0004
  20453023.4444   -5645289.29843  -4358853.05842  20453025.2004   20453019.2734
        56.0004         51.0004
  21642165.8574    7811603.95643   6086352.08742  21642167.6964   21642163.6954
        55.0004         47.0004
  23615639.6154   -3452552.16243  -2683141.62942  23615641.5144   23615638.8244
        47.0004         41.0004
  22363154.7664  -10675932.84043  -8314649.37442  22363156.9774   22363152.7974
        52.0004         44.0004
  23498181.8164    5522650.43643   4304126.29842  23498183.9754   23498178.8934
        48.0004         41.0004
  22192095.0284    1362724.95943   1065622.03942  22192096.6614   22192092.0824
        53.0004         45.0004
  24367711.1024   -4329386.51143  -3346708.97742  24367712.0074   24367712.8664
        42.0004         38.0004
 04  6 23 16  6 20.0000000  0  9G22G21G18G 6G16G15G29G26G 3
  21759826.0854  -12131049.67543  -9447312.66642  21759826.7354   21759820.5784
        55.0004         48.0004
  20570354.1604   -2949466.19444  -2296633.78242  20570355.6944   20570349.3344
        57.0004         51.0004
  20451833.9524   -5651539.72543  -4363723.52342  20451835.4964   20451829.6334
        56.0004         51.0004
  21652450.0394    7865649.26143   6128465.27842  21652452.3464   21652448.0704
        54.0004         47.0004
  23618457.5774   -3437745.47743  -2671603.99542  23618458.1454   23618456.0734
        48.0004         41.0004
  22354445.2624  -10721701.81243  -8350313.48642  22354446.9224   22354441.8524
        52.0004         45.0004
  23507109.2804    5569564.70343   4340682.83242  23507111.6624   23507107.2154
        48.0004         41.0004
  22198958.3264    1398797.56543   1093730.53942  22198959.9744   22198956.4544
        52.0004         45.0004
  24355372.1314   -4394232.87143  -3397238.58342  24355373.8134   24355374.6004
        45.0004         38.0004
 04  6 23 16  6 40.0000000  0  9G22G21G18G 6G16G15G29G26G 3
  21752136.5544  -12171458.14143  -9478799.76542  21752136.9754   21752130.8774
        56.0004         48.0004
  20569249.3464   -2955271.85344  -2301157.68142  20569250.7604   20569244.7124
        57.0004         51.0004
  20450678.4504   -5657612.32043  -4368455.41742  20450680.2064   20450674.1644
        56.0004         51.0004
  21662765.8954    7919858.46643   6170706.17542  21662767.8764   21662763.5514
        54.0004         47.0004
  23621314.7814   -3422731.96743  -2659905.19042  23621316.5984   23621314.5444
        47.0004         41.0004
  22345741.7224  -10767439.17443  -8385952.96642  22345742.7364   22345738.3744
        52.0004         45.0004
  23516069.5474    5616661.95543   4377381.93642  23516073.6894   23516070.2414
        47.0004         41.0004
  22205873.4444    1435135.69643   1122045.94242  22205875.8444   22205871.3864
        52.0004         45.0004
  24343048.7214   -4458998.50343  -3447705.26942  24343049.5864   24343046.6634
        44.0004         38.0004
 04  6 23 16  7  0.0000000  0  9G22G21G18G 6G16G15G29G26G 3
  21744476.1204  -12211714.08043  -9510168.01042  21744476.3544   21744469.9584
        56.0004         48.0004
  20568163.1954   -2960980.01944  -2305605.61142  20568164.5234   20568158.3654
        57.0004         51.0004
  20449556.4994   -5663508.22143  -4373049.62542  20449558.2424   20449552.0544
        56.0004         51.0004
  21673112.6544    7974230.01043   6213073.57942  21673114.6244   21673110.5214
        54.0004         47.0004
  23624210.6484   -3407513.25843  -2648046.49142  23624213.9094   23624209.6634
        47.0004         41.0004
  22337043.9104  -10813145.73643  -8421568.44642  22337044.8364   22337042.2404
        52.0004         45.0004
  23525068.0394    5663940.48143   4414222.32442  23525069.8514   23525066.7134
        48.0004         42.0004
  22212838.9784    1471737.68843   1150566.96542  22212840.1984   22212836.1954
        52.0004         45.0004
  24330738.9214   -4523683.67243  -3498109.27042  24330740.9564   24330737.5614
        44.0004         39.0004
 04  6 23 16  7 20.0000000  0  9G22G21G18G 6G16G15G29G26G 3
  21736845.3474  -12251813.45843  -9541414.26042  21736846.3304   21736839.9054
        56.0004         48.0004
  20567096.2074   -2966586.64044  -2309974.41942  20567097.7464   20567091.5114
        57.0004         51.0004
  20448468.6924   -5669223.68643  -4377503.23442  20448470.4424   20448464.5684
        56.0004         51.0004
  21683490.8414    8028767.30343   6255570.12642  21683492.8054   21683488.6914
        54.0004         47.0004
  23627146.5114   -3392085.93343  -2636025.25442  23627147.5084   23627144.1874
        47.0004         41.0004
  22328353.2464  -10858817.37443  -8457156.71542  22328354.2924   22328350.6144
        52.0004         44.0004
  23534100.3184    5711403.54543   4451206.50142  23534102.0214   23534097.7304
        48.0004         41.0004
  22219854.2714    1508606.99543   1179296.24442  22219857.6314   22219852.2314
        52.0004         45.0004
  24318445.5914   -4588283.78343  -3548446.99242  24318447.3024   24318443.7464
        45.0004         38.0004
 04  6 23 16  7 40.0000000  0  9G22G21G18G 6G16G15G29G26G 3
  21729243.3694  -12291761.97143  -9572542.94442  21729244.2854   21729237.7174
        56.0004         48.0004
  20566047.7234   -2972097.09644  -2314268.28742  20566049.1554   20566042.4954
        57.0004         51.0004
  20447414.3744   -5674765.05843  -4381821.18642  20447416.1704   20447410.2554
        56.0004         51.0004
  21693899.1704    8083463.87743   6298190.80442  21693900.9314   21693896.8404
        55.0004         47.0004
  23630120.3904   -3376456.11643  -2623846.21342  23630122.1784   23630118.1464
        47.0004         41.0004
  22319667.4124  -10904459.78143  -8492722.20242  22319669.1624   22319665.1874
        52.0004         45.0004
  23543166.8904    5759044.66843   4488329.39642  23543168.7064   23543164.0514
        49.0004         42.0004
  22226919.4174    1545737.14043   1208228.82642  22226921.9224   22226918.2954
        51.0004         45.0004
  24306167.0494   -4652803.83843  -3598722.34142  24306169.3294   24306168.1504
        45.0004         38.0004
 04  6 23 16  8  0.0000000  0  9G22G21G18G 6G16G15G29G26G 3
  21721670.8984  -12331556.26643  -9603551.46042  21721671.8894   21721665.0484
        56.0004         48.0004
  20565017.8204   -2977508.04644  -2318484.62142  20565019.6484   20565013.2144
        57.0004         51.0004
  20446393.5294   -5680129.25443  -4386001.08042  20446395.3764   20446389.1634
        56.0004         51.0004
  21704338.4864    8138322.41743   6340937.68342  21704340.4244   21704336.2204
        54.0004         47.0004
  23633134.5084   -3360621.29043  -2611507.43642  23633136.0754   23633130.4944
        47.0004         41.0004
  22310988.5364  -10950069.64043  -8528262.33242  22310989.5764   22310985.4114
        52.0004         45.0004
  23552265.2594    5806866.48043   4525593.13042  23552267.4454   23552261.7164
        48.0004         41.0004
  22234035.7374    1583130.80243   1237366.69142  22234037.9254   22234034.6024
        52.0004         45.0004
  24293905.9334   -4717239.79043  -3648932.15342  24293908.3854   24293905.1314
        44.0004         39.0004
 04  6 23 16  8 20.0000000  0  9G22G21G18G 6G16G15G29G26G 3
  21714127.4194  -12371197.13743  -9634440.43242  21714128.1784   21714121.6674
        56.0004         48.0004
  20564007.1704   -2982819.92044  -2322623.75142  20564008.4824   20564002.5714
        58.0004         51.0004
  20445406.2954   -5685317.42343  -4390043.81042  20445407.8044   20445402.1484
        56.0004         51.0004
  21714808.3274    8193341.58243   6383809.72642  21714809.5844   21714806.1354
        54.0004         47.0004
  23636185.5954   -3344582.74043  -2599009.91242  23636186.0234   23636185.0154
        48.0004         40.0004
  22302315.2414  -10995647.47043  -8563777.50042  22302315.7264   22302312.7634
        52.0004         45.0004
  23561399.3754    5854867.42743   4562996.39242  23561403.4824   23561399.2904
        48.0004         41.0004
  22241202.1694    1620786.39543   1266708.69142  22241203.4554   22241199.7774
        53.0004         45.0004
  24281658.3834   -4781592.04543  -3699076.72242  24281658.2194   24281657.8314
        42.0004         39.0004
 04  6 23 16  8 40.0000000  0  9G22G21G18G 6G16G15G29G26G 3
  21706613.2604  -12410683.81143  -9665209.25142  21706613.8814   21706607.6704
        56.0004         48.0004
  20563015.1694   -2988032.04444  -2326685.15342  20563016.8134   20563010.5784
        58.0004         51.0004
  20444452.4834   -5690329.40943  -4393949.25442  20444454.1084   20444448.4164
        56.0004         51.0004
  21725308.5904    8248521.28943   6426806.86442  21725310.4244   21725306.4564
        54.0004         47.0004
  23639276.8184   -3328340.29643  -2586353.50942  23639278.4474   23639273.3604
        47.0004         40.0004
  22293648.4814  -11041192.49643  -8599267.11242  22293648.9154   22293646.2364
        52.0004         45.0004
  23570569.9124    5903047.41243   4600539.24142  23570569.2834   23570566.5524
        48.0004         41.0004
  22248416.7344    1658704.03643   1296254.87142  22248419.1414   22248415.0554
        52.0004         45.0004
  24269430.1584   -4845859.12343  -3749154.93542  24269431.8084   24269430.0524
        45.0004         39.0004
 04  6 23 16  9  0.0000000  0  9G22G21G18G 6G16G15G29G26G 3
  21699128.4864  -12450017.07943  -9695858.53142  21699129.3684   21699122.7554
        56.0004         48.0004
  20562042.1474   -2993144.91244  -2330669.21342  20562044.0044   20562037.4294
        58.0004         51.0004
  20443532.1844   -5695165.89943  -4397717.95142  20443533.8714   20443527.8144
        56.0004         51.0004
  21735839.4434    8303860.25143   6469928.09642  21735841.6974   21735837.0304
        54.0004         47.0004
  23642406.3954   -3311895.34043  -2573539.29842  23642406.9734   23642404.4674
        47.0004         40.0004
  22284987.7754  -11086705.44843  -8634731.73242  22284988.5954   22284985.3324
        52.0004         45.0004
  23579770.1974    5951404.92143   4638220.38142  23579772.0444   23579769.8854
        47.0004         41.0004
  22255682.9824    1696882.14943   1326004.03342  22255683.9304   22255679.5464
        52.0004         45.0004
  24257216.8154   -4910041.32143  -3799167.00942  24257219.0774   24257217.6044
        46.0004         39.0004
 04  6 23 16  9 20.0000000  0  9G22G21G18G 6G16G15G29G26G 3
  21691673.0994  -12489195.07943  -9726386.82542  21691673.6164   21691667.5024
        56.0004         48.0004
  20561088.4804   -2998156.62944  -2334574.45442  20561090.1644   20561083.8804
        57.0004         51.0004
  20442645.2854   -5699825.53643  -4401348.83942  20442647.2204   20442641.4034
        56.0004         51.0004
  21746400.8014    8359359.48643   6513174.21642  21746402.1844   21746398.0834
        54.0004         47.0004
  23645574.4184   -3295246.75243  -2560566.41042  23645575.1614   23645573.0614
        46.0004         40.0004
  22276333.4504  -11132184.41043  -8670169.86942  22276333.9234   22276330.9124
        52.0004         45.0004
  23589008.6124    5999941.25943   4676040.82842  23589012.3774   23589005.7064
        49.0004         41.0004
  22262996.1434    1735322.07943   1355957.20042  22262998.5964   22262995.0954
        51.0004         45.0004
  24245021.6764   -4974135.98343  -3849110.86942  24245022.9384   24245017.7924
        46.0004         40.0004
 04  6 23 16  9 40.0000000  0  9G22G21G18G 6G16G15G29G26G 3
  21684246.7394  -12528221.83043  -9756797.25642  21684247.3004   21684240.9784
        56.0004         48.0004
  20560153.5714   -3003070.99644  -2338403.84042  20560154.9604   20560148.9834
        58.0004         51.0004
  20441791.7144   -5704312.65643  -4404845.30242  20441793.4264   20441787.4044
        56.0004         51.0004
  21756991.3194    8415014.77843   6556541.93742  21756993.5724   21756988.9764
        54.0004         47.0004
  23648780.4614   -3278399.09743  -2547438.40342  23648780.7564   23648778.0854
        47.0004         40.0004
  22267684.2644  -11177633.24843  -8705584.52242  22267685.5794   22267682.7154
        52.0004         45.0004
  23598275.5424    6048651.42743   4713996.79942  23598279.0114   23598274.8534
        47.0004         41.0004
  22270361.7554    1774019.10143   1386110.69442  22270363.2604   22270358.4664
        51.0004         45.0004
  24232840.3094   -5038146.47143  -3898989.14242  24232843.3954   24232838.1524
        47.0004         40.0004
 04  6 23 16 10  0.0000000  0  9G22G21G18G 6G16G15G29G26G 3
  21676849.5394  -12567093.10643  -9787086.52942  21676850.4814   21676844.1924
        56.0004         48.0004
  20559237.8304   -3007883.76144  -2342154.05342  20559239.2324   20559233.0814
        57.0004         51.0004
  20440971.2954   -5708623.64143  -4408204.51142  20440973.0064   20440967.1394
        56.0004         51.0004
  21767612.3294    8470829.23343   6600033.68342  21767614.1264   21767610.2614
        54.0004         47.0004
  23652024.6324   -3261348.69743  -2534152.42742  23652027.2194   23652023.9244
        47.0004         40.0004
  22259042.6074  -11223047.62343  -8740972.33142  22259043.5414   22259040.3234
        52.0004         45.0004
  23607579.4984    6097539.07143   4752090.99842  23607582.6104   23607578.1584
        48.0004         41.0004
  22277774.4404    1812976.50643   1416467.08542  22277776.5074   22277772.3364
        52.0004         45.0004
  24220675.6674   -5102067.94843  -3948798.08042  24220674.4434   24220676.2944
        44.0004         40.0004
 04  6 23 16 10 20.0000000  0  9G22G21G18G 6G16G15G29G26G 3
  21669482.3884  -12605808.49643  -9817254.33142  21669483.0194   21669475.9464
        56.0004         48.0004
  20558341.3354   -3012594.04844  -2345824.41542  20558342.8084   20558336.6694
        58.0004         51.0004
  20440184.6034   -5712758.12643  -4411426.18742  20440186.2184   20440180.4204
        56.0004         51.0004
  21778263.9294    8526802.89343   6643649.47942  21778265.8174   21778261.9154
        54.0004         47.0004
  23655308.5364   -3244095.75243  -2520708.61142  23655309.6354   23655306.3594
        48.0004         40.0004
  22250406.8504  -11268427.02943  -8776332.88242  22250408.0394   22250403.7894
        52.0004         45.0004
  23616916.1714    6146603.65443   4790323.12242  23616918.6094   23616914.2314
        47.0004         41.0004
  22285236.4434    1852194.28443   1447026.35442  22285239.6654   22285234.1814
        51.0004         45.0004
  24208528.3444   -5165899.37543  -3998536.82842  24208528.6844   24208528.2094
        44.0004         40.0004
 04  6 23 16 10 40.0000000  0  9G22G21G18G 6G16G15G29G26G 3
  21662144.1534  -12644370.15643  -9847302.34742  21662144.8584   21662138.5084
        56.0004         48.0004
  20557463.9984   -3017204.13244  -2349416.69742  20557465.4984   20557459.3324
        57.0004         51.0004
  20439430.8594   -5716718.65343  -4414512.31442  20439432.5514   20439426.6274
        56.0004         51.0004
  21788945.3894    8582932.83543   6687387.05842  21788946.8414   21788943.2344
        54.0004         47.0004
  23658630.1564   -3226643.10243  -2507109.17442  23658631.2394   23658625.3554
        47.0004         40.0004
  22241777.3004  -11313773.53843  -8811667.80242  22241779.4154   22241775.2594
        52.0004         45.0004
  23626284.6974    6195842.35343   4828690.88942  23626287.9444   23626282.9634
        46.0004         40.0004
  22292749.6234    1891669.35843   1477786.13442  22292751.1714   22292746.4004
        52.0004         45.0004
  24196398.1244   -5229642.13443  -4048206.49242  24196398.8764   24196397.6434
        46.0004         39.0004
 04  6 23 16 11  0.0000000  0  9G22G21G18G 6G16G15G29G26G 3
  21654835.2984  -12682778.45243  -9877230.86342  21654836.0334   21654829.6774
        56.0004         48.0004
  20556606.0804   -3021714.06944  -2352930.94342  20556607.4494   20556601.1784
        58.0004         51.0004
  20438710.0654   -5720506.01243  -4417463.50142  20438711.9424   20438705.9024
        56.0004         51.0004
  21799656.0464    8639218.04743   6731245.62542  21799657.9974   21799654.2184
        54.0004         47.0004
  23661988.5404   -3208991.67743  -2493354.85142  23661990.6884   23661986.1814
        47.0004         40.0004
  22233155.1284  -11359087.31943  -8846977.22542  22233155.8454   22233152.4574
        52.0004         45.0004
  23635689.5874    6245254.23043   4867193.63242  23635690.6204   23635686.3404
        46.0004         40.0004
  22300308.1484    1931400.90543   1508745.73242  22300312.0544   22300306.8044
        51.0004         45.0004
  24184287.8694   -5293295.83143  -4097806.76242  24184287.3914   24184285.9004
        45.0004         39.0004
 04  6 23 16 11 20.0000000  0  9G22G21G18G 6G16G15G29G26G 3
  21647555.5644  -12721033.89043  -9907040.27642  21647556.2094   21647549.8614
        56.0004         48.0004
  20555766.7104   -3026124.12944  -2356367.36042  20555768.0784   20555761.8774
        58.0004         51.0004
  20438022.2054   -5724121.28844  -4420280.60042  20438024.0204   20438017.8874
        57.0004         51.0004
  21810396.0334    8695657.38043   6775224.29242  21810398.2164   21810394.2234
        54.0004         47.0004
  23665384.8884   -3191142.59843  -2479446.51542  23665387.4364   23665382.3824
        48.0004         40.0004
  22224538.0704  -11404368.80843  -8882261.47742  22224539.2214   22224534.6734
        52.0004         45.0004
  23645125.3904    6294837.77043   4905830.10742  23645125.4884   23645123.1494
        47.0004         40.0004
  22307920.1364    1971387.29343   1539903.95742  22307920.8414   22307917.2274
        52.0004         45.0004
  24172191.5244   -5356860.55443  -4147337.66142  24172191.9834   24172188.3314
        47.0004         39.0004
 04  6 23 16 11 40.0000000  0  9G22G21G18G 6G16G15G29G26G 3
  21640305.5634  -12759132.99643  -9936727.87242  21640306.1184   21640300.0544
        56.0004         48.0004
  20554947.2364   -3030430.84944  -2359723.24942  20554948.6634   20554942.3224
        57.0004         51.0004
  20437367.4974   -5727561.27743  -4422961.11042  20437369.3224   20437363.3274
        56.0004         51.0004
  21821165.9474    8752253.51243   6819325.13842  21821167.7464   21821164.0844
        54.0004         47.0004
  23668820.1474   -3173093.02343  -2465381.94142  23668821.8614   23668817.7074
        48.0004         40.0004
  22215928.0704  -11449614.45543  -8917517.79742  22215929.6974   22215925.9224
        52.0004         45.0004
  23654592.6494    6344595.69543   4944602.46642  23654595.2804   23654592.8524
        46.0004         40.0004
  22315577.0964    2011631.56643   1571263.08342  22315579.9664   22315575.1324
        52.0004         45.0004
  24160110.9954   -5420332.21443  -4196796.09042  24160110.2064   24160109.0844
        45.0004         39.0004
 04  6 23 16 12  0.0000000  0  9G22G21G18G 6G16G15G29G26G 3
  21633084.7814  -12797077.52843  -9966295.02042  21633085.5094   21633078.7534
        56.0004         48.0004
  20554146.9254   -3034635.84544  -2362999.87742  20554148.5684   20554142.2874
        57.0004         51.0004
  20436746.0794   -5730828.24743  -4425506.80342  20436747.8104   20436741.6424
        56.0004         51.0004
  21831965.2224    8809004.07643   6863546.32142  21831967.4124   21831963.7244
        54.0004         47.0004
  23672292.6444   -3154845.44643  -2451163.09142  23672294.9644   23672289.6544
        48.0004         40.0004
  22207324.4164  -11494826.01043  -8952747.55542  22207325.7284   22207321.1194
        52.0004         45.0004
  23664096.9254    6394525.42743   4983508.70742  23664096.0774   23664093.1074
        48.0004         41.0004
  22323283.2874    2052131.02243   1602821.07642  22323285.3564   22323282.1794
        52.0004         44.0004
  24148049.5714   -5483711.97943  -4246182.88742  24148050.7564   24148051.6524
        45.0004         39.0004
 04  6 23 16 12 20.0000000  0  9G22G21G18G 6G16G15G29G26G 3
  21625893.9284  -12834866.02043  -9995740.57842  21625894.6914   21625888.3824
        56.0004         48.0004
  20553366.4724   -3038737.28244  -2366195.80642  20553368.1634   20553361.6494
        57.0004         51.0004
  20436157.3764   -5733920.76643  -4427916.55542  20436159.1514   20436153.0604
        56.0004         51.0004
  21842794.4264    8865909.99243   6907888.55142  21842795.5314   21842792.0884
        54.0004         47.0004
  23675803.5554   -3136398.89143  -2436789.19642  23675806.9104   23675801.5054
        48.0004         41.0004
  22198727.5004  -11540001.70143  -8987949.36742  22198729.9054   22198724.8574
        52.0004         45.0004
  23673627.6874    6444628.02443   5022549.65642  23673630.8014   23673626.8904
        47.0004         40.0004
  22331041.0014    2092886.64143   1634578.68542  22331041.3924   22331037.1264
        52.0004         44.0004
  24136007.9274   -5546997.55043  -4295496.30142  24136009.4654   24136008.5964
        46.0004         40.0004
 04  6 23 16 12 40.0000000  0  9G22G21G18G 6G16G15G29G26G 3
  21618731.9304  -12872502.99343 -10025068.06942  21618732.8434   21618725.7944
        56.0004         48.0004
  20552605.0304   -3042739.47844  -2369314.40642  20552606.5584   20552600.1124
        58.0004         51.0004
  20435601.3814   -5736843.62143  -4430194.10542  20435602.9724   20435597.1044
        56.0004         51.0004
  21853651.6254    8922966.26043   6952347.94442  21853652.9224   21853649.4754
        53.0004         47.0004
  23679349.9604   -3117758.36143  -2422264.14442  23679351.0554   23679349.1144
        48.0004         41.0004
  22190137.6134  -11585145.78943  -9023126.56742  22190138.3364   22190134.7744
        52.0004         45.0004
  23683193.3694    6494898.07843   5061721.07342  23683197.9454   23683193.6764
        47.0004         40.0004
  22338843.4024    2133893.27643   1666531.88042  22338845.2164   22338840.8054
        52.0004         44.0004
  24123982.0104   -5610192.72943  -4344739.28542  24123982.8544   24123982.3214
        46.0004         39.0004
 04  6 23 16 13  0.0000000  0  9G22G21G18G 6G16G15G29G26G 3
  21611599.7754  -12909982.02143 -10054272.48642  21611600.4884   21611593.8514
        56.0004         48.0004
  20551863.5034   -3046635.85944  -2372350.55542  20551865.0394   20551858.6534
        57.0004         51.0004
  20435078.6034   -5739590.80143  -4432334.76542  20435080.3164   20435074.3104
        56.0004         51.0004
  21864538.6514    8980178.33343   6996928.74342  21864540.9664   21864536.6814
        54.0004         47.0004
  23682935.0764   -3098918.21143  -2407583.54042  23682937.2864   23682933.8414
        48.0004         41.0004
  22181553.9824  -11630251.89143  -9058274.15242  22181554.7624   22181551.2874
        52.0004         45.0004
  23692793.7124    6545341.16943   5101027.34942  23692796.2154   23692791.5954
        47.0004         41.0004
  22346694.2904    2175156.36243   1698684.89042  22346697.0794   22346693.5914
        51.0004         44.0004
  24111975.0834   -5673290.40743  -4393906.28442  24111977.2924   24111974.5614
        47.0004         39.0004
 04  6 23 16 13 20.0000000  0  9G22G21G18G 6G16G15G29G26G 3
  21604497.0494  -12947307.54743 -10083357.29142  21604497.9904   21604491.2454
        56.0004         48.0004
  20551141.3064   -3050430.78944  -2375307.64742  20551142.8144   20551136.3854
        57.0004         51.0004
  20434588.1914   -5742167.10443  -4434342.27042  20434589.8484   20434583.9824
        56.0004         51.0004
  21875454.3644    9037541.30843   7041627.12842  21875456.2324   21875452.9834
        54.0004         47.0004
  23686556.8264   -3079883.43143  -2392751.27742  23686559.3154   23686554.7354
        48.0004         41.0004
  22172976.6474  -11675324.21043  -9093395.41442  22172977.9424   22172974.7354
        52.0004         45.0004
  23702424.4454    6595952.17943   5140464.45042  23702427.7014   23702424.1804
        47.0004         41.0004
  22354595.8514    2216670.92543   1731033.88842  22354597.5134   22354593.8744
        52.0004         44.0004
  24099986.8194   -5736294.38343  -4443000.25142  24099988.7094   24099985.4644
        48.0004         40.0004
 04  6 23 16 13 40.0000000  0  9G22G21G18G 6G16G15G29G26G 3
  21597423.3944  -12984479.64243 -10112322.54442  21597424.1644   21597417.7764
        56.0004         48.0004
  20550438.5964   -3054124.02544  -2378185.49942  20550440.1754   20550433.6884
        57.0004         51.0004
  20434130.3584   -5744573.01343  -4436217.00442  20434132.3064   20434126.0734
        56.0004         51.0004
  21886399.0484    9095054.52643   7086442.58042  21886400.9674   21886396.7204
        54.0004         46.0004
  23690216.8864   -3060654.72943  -2377767.92342  23690219.9424   23690214.7484
        48.0004         41.0004
  22164406.5464  -11720362.70443  -9128490.32442  22164406.5954   22164403.0994
        52.0004         45.0004
  23712086.1284    6646730.24343   5180031.76242  23712088.2944   23712086.1154
        46.0004         41.0004
  22362542.4254    2258436.15643   1763578.18542  22362545.4634   22362539.4154
        51.0004         44.0004
  24088015.2204   -5799204.15143  -4492020.83142  24088017.9844   24088014.7734
        47.0004         40.0004
 04  6 23 16 14  0.0000000  0  9G22G21G18G 6G16G15G29G26G 3
  21590379.9564  -13021493.29243 -10141164.32542  21590380.8704   21590373.9534
        56.0004         49.0004
  20549756.2194   -3057710.25444  -2380979.96842  20549757.6334   20549751.2794
        58.0004         51.0004
  20433705.9764   -5746803.83443  -4437955.30542  20433707.9264   20433701.5894
        56.0004         51.0004
  21897372.8324    9152722.16743   7131378.36342  21897375.2464   21897370.8224
        53.0004         46.0004
  23693913.4454   -3041227.77543  -2362630.07442  23693915.3624   23693911.2344
        48.0004         41.0004
  22155842.7074  -11765362.14043  -9163554.79642  22155844.4134   22155840.6784
        52.0004         45.0004
  23721782.1874    6697679.78243   5219732.65642  23721783.0084   23721781.3434
        46.0004         41.0004
  22370539.7164    2300456.22943   1796321.08342  22370541.7014   22370537.0464
        51.0004         44.0004
  24076063.3984   -5862013.79543  -4540963.42642  24076063.7904   24076062.4334
        48.0004         40.0004
 04  6 23 16 14 20.0000000  0  9G22G21G18G 6G16G15G29G26G 3
  21583365.1244  -13058355.98743 -10169888.47842  21583366.0254   21583359.3974
        56.0004         49.0004
  20549092.8084   -3061196.87644  -2383696.82242  20549094.3734   20549087.5504
        58.0004         51.0004
  20433313.2384   -5748867.54544  -4439563.39042  20433314.7344   20433309.0444
        57.0004         51.0004
  21908374.4894    9210536.10443   7176428.14542  21908376.6444   21908372.6434
        53.0004         46.0004
  23697646.3814   -3021610.80843  -2347344.16842  23697648.5274   23697645.3994
        47.0004         41.0004
  22147285.9864  -11810329.98543  -9198594.64742  22147287.4984   22147283.4604
        52.0004         45.0004
  23731509.4544    6748792.27243   5259560.52342  23731510.5624   23731508.3424
        47.0004         41.0004
  22378580.6114    2342722.87343   1829256.10242  22378583.9814   22378581.1924
        51.0004         44.0004
  24064128.8164   -5924730.40043  -4589833.49042  24064129.8034   24064128.3054
        48.0004         40.0004
 04  6 23 16 14 40.0000000  0  9G22G21G18G 6G16G15G29G26G 3
  21576380.4604  -13095061.05943 -10198489.80842  21576381.2284   21576374.5754
        56.0004         49.0004
  20548449.3264   -3064577.20044  -2386330.84242  20548450.9524   20548444.6674
        57.0004         51.0004
  20432953.5564   -5750757.79343  -4441036.30942  20432955.3174   20432949.2684
        56.0004         51.0004
  21919405.3204    9268502.31043   7221596.57542  21919407.0454   21919403.1164
        53.0004         46.0004
  23701417.0184   -3001797.63543  -2331905.37542  23701418.4484   23701415.3784
        47.0004         41.0004
  22138736.1914  -11855259.43943  -9233604.59142  22138737.3394   22138733.7874
        52.0004         45.0004
  23741269.0054    6800073.74543   5299520.07042  23741272.2164   23741267.3094
        48.0004         42.0004
  22386675.6764    2385242.14343   1862387.96042  22386676.5954   22386670.2104
        53.0004         44.0004
  24052214.0324   -5987346.69343  -4638625.39542  24052214.4964   24052212.1544
        48.0004         40.0004
 04  6 23 16 15  0.0000000  0  9G22G21G18G 6G16G15G29G26G 3
  21569425.0884  -13131612.29043 -10226971.26542  21569425.5484   21569419.1874
        56.0004         49.0004
  20547825.8304   -3067854.84944  -2388884.86142  20547827.3684   20547820.9504
        58.0004         51.0004
  20432626.1044   -5752478.61743  -4442377.21042  20432627.8024   20432621.7394
        56.0004         51.0004
  21930463.7884    9326616.25943   7266880.12642  21930465.5674   21930461.4884
        53.0004         46.0004
  23705222.4524   -2981792.80143  -2316317.22942  23705224.6254   23705222.7774
        47.0004         41.0004
  22130193.1804  -11900154.10443  -9268587.42642  22130193.4584   22130190.2494
        52.0004         45.0004
  23751056.0504    6851519.65243   5339607.75842  23751058.0974   23751058.2824
        47.0004         41.0004
  22394809.5774    2428009.38243   1895713.05842  22394813.3494   22394810.1254
        51.0004         44.0004
  24040316.2974   -6049865.70543  -4687341.52642  24040317.1014   24040316.5684
        46.0004         39.0004
 04  6 23 16 15 20.0000000  0  9G22G21G18G 6G16G15G29G26G 3
  21562499.0284  -13168008.97244 -10255332.28742  21562499.6834   21562493.0394
        57.0004         49.0004
  20547221.7354   -3071028.69044  -2391357.98942  20547223.0444   20547217.0144
        58.0004         51.0004
  20432330.9684   -5754029.83343  -4443585.94742  20432332.5384   20432326.6224
        56.0004         51.0004
  21941550.7544    9384878.31043   7312279.09342  21941552.6654   21941548.8284
        53.0004         46.0004
  23709066.7094   -2961596.15743  -2300579.63342  23709069.0534   23709064.0074
        48.0004         41.0004
  22121656.5234  -11945013.13543  -9303542.48742  22121657.6534   22121653.8874
        52.0004         45.0004
  23760879.4894    6903130.01443   5379823.58842  23760881.1654   23760878.2294
        48.0004         41.0004
  22402997.2004    2471024.74643   1929231.49342  22403000.0014   22402995.1674
        52.0004         44.0004
  24028437.7204   -6112286.00443  -4735980.69242  24028438.1624   24028437.6364
        46.0004         39.0004
 04  6 23 16 15 40.0000000  0  9G22G21G18G 6G16G15G29G26G 3
  21555602.5694  -13204248.85343 -10283571.13242  21555603.5134   21555596.9094
        56.0004         49.0004
  20546638.1004   -3074096.43744  -2393748.44942  20546639.4704   20546633.4174
        57.0004         51.0004
  20432068.2394   -5755409.47643  -4444660.99442  20432069.9814   20432064.2284
        56.0004         51.0004
  21952665.9314    9443289.81043   7357794.50342  21952668.1374   21952663.7724
        53.0004         46.0004
  23712946.9804   -2941206.00743  -2284691.24242  23712948.9624   23712944.2264
        47.0004         41.0004
  22113127.2114  -11989834.18743  -9338467.95442  22113128.7404   22113124.8594
        52.0004         45.0004
  23770732.1394    6954906.27343   5420168.68042  23770735.3954   23770729.9604
        48.0004         41.0004
  22411230.8904    2514289.61943   1962944.37042  22411233.4964   22411227.8284
        51.0004         44.0004
  24016577.8314   -6174604.63543  -4784540.62642  24016579.0834   24016578.6054
        47.0004         39.0004
 04  6 23 16 16  0.0000000  0  9G22G21G18G 6G16G15G29G26G 3
  21548735.8964  -13240333.25044 -10311688.81942  21548736.7824   21548729.8904
        57.0004         49.0004
  20546074.0924   -3077059.09344  -2396057.01942  20546075.6704   20546069.5924
        57.0004         51.0004
  20431837.9404   -5756619.25243  -4445603.67542  20431839.6374   20431833.8264
        56.0004         51.0004
  21963809.3594    9501848.85543   7403424.88042  21963811.3674   21963808.1044
        53.0004         46.0004
  23716863.4484   -2920624.37543  -2268653.65042  23716865.2284   23716861.5284
        47.0004         41.0004
  22104605.5014  -12034618.36843  -9373364.70142  22104605.7514   22104602.1394
        53.0004         45.0004
  23780613.8704    7006846.35443   5460641.42042  23780617.6614   23780613.8104
        47.0004         41.0004
  22419510.0344    2557801.92343   1996850.03042  22419512.5094   22419507.9054
        51.0004         44.0004
  24004738.4584   -6236822.23843  -4833021.83342  24004741.5254   24004738.6894
        47.0004         39.0004
 04  6 23 16 16 20.0000000  0  9G22G21G18G 6G16G15G29G26G 3
  21541898.5874  -13276263.76443 -10339686.59842  21541899.3084   21541892.6644
        56.0004         49.0004
  20545530.0654   -3079917.98544  -2398284.73242  20545531.4724   20545525.2564
        57.0004         51.0004
  20431639.6984   -5757661.04243  -4446415.45942  20431641.5204   20431635.4964
        56.0004         51.0004
  21974981.0224    9560553.41443   7449168.64942  21974982.4794   21974978.7464
        53.0004         46.0004
  23720816.4814   -2899853.39743  -2252468.51442  23720817.3754   23720815.4964
        47.0004         41.0004
  22096089.9324  -12079366.92843  -9408233.67942  22096091.2224   22096087.7744
        52.0004         45.0004
  23790531.2064    7058948.04043   5501240.10842  23790532.3604   23790529.2184
        48.0004         41.0004
  22427837.5164    2601559.36543   2030946.70742  22427838.8544   22427836.1914
        52.0004         44.0004
  23992918.2144   -6298939.61543  -4881424.95442  23992920.9134   23992918.0114
        48.0004         40.0004
 04  6 23 16 16 40.0000000  0  9G22G21G18G 6G16G15G29G26G 3
  21535090.7444  -13312039.19043 -10367563.52142  21535091.1344   21535085.0524
        56.0004         49.0004
  20545006.0774   -3082671.73044  -2400430.51742  20545007.5114   20545001.6744
        58.0004         51.0004
  20431473.7254   -5758534.00043  -4447095.68442  20431475.3804   20431469.5574
        56.0004         51.0004
  21986179.7934    9619403.71243   7495025.97742  21986181.8574   21986177.9744
        53.0004         46.0004
  23724805.4304   -2878892.68743  -2236135.53042  23724806.8994   23724803.9554
        48.0004         41.0004
  22087581.4574  -12124078.63143  -9443073.94942  22087582.0314   22087579.3204
        52.0004         45.0004
  23800476.2654    7111211.59743   5541964.91442  23800476.5704   23800474.7434
        48.0004         41.0004
  22436210.6724    2645562.38643   2065234.74942  22436212.3894   22436208.9294
        51.0004         44.0004
  23981118.1544   -6360954.88743  -4929748.52942  23981119.2064   23981117.4134
        47.0004         40.0004
 04  6 23 16 17  0.0000000  0  9G22G21G18G 6G16G15G29G26G 3
  21528312.3404  -13347660.27843 -10395320.18342  21528312.8754   21528305.9744
        56.0004         49.0004
  20544501.8204   -3085321.17044  -2402495.02042  20544503.7194   20544497.1904
        57.0004         51.0004
  20431339.4914   -5759239.12443  -4447645.13042  20431341.2074   20431335.3254
        56.0004         51.0004
  21997406.1074    9678398.57743   7540995.95742  21997408.1304   21997403.9934
        53.0004         46.0004
  23728830.2894   -2857743.45643  -2219655.64442  23728833.0144   23728827.4404
        48.0004         40.0004
  22079080.2454  -12168754.05243  -9477885.94642  22079081.0604   22079077.6184
        52.0004         45.0004
  23810450.2284    7163635.71043   5582814.82442  23810452.8934   23810449.0444
        46.0004         41.0004
  22444631.0494    2689809.52243   2099713.00842  22444632.9184   22444629.1884
        51.0004         44.0004
  23969335.9104   -6422868.03943  -4977992.53442  23969336.3734   23969336.0074
        45.0004         40.0004
 04  6 23 16 17 20.0000000  0  9G22G21G18G 6G16G15G29G26G 3
  21521563.9294  -13383122.99543 -10422953.43942  21521564.7534   21521557.8574
        56.0004         49.0004
  20544018.5544   -3087861.82244  -2404474.75842  20544019.8784   20544013.6144
        57.0004         51.0004
  20431237.9294   -5759772.67043  -4448060.88142  20431239.6094   20431233.8214
        56.0004         51.0004
  22008660.7584    9737541.41943   7587081.24342  22008662.6584   22008658.9554
        53.0004         46.0004
  23732889.6874   -2836402.37243  -2203026.26942  23732892.6574   23732888.1424
        47.0004         40.0004
  22070585.8084  -12213388.87443  -9512666.30142  22070586.6724   22070584.4204
        52.0004         45.0004
  23820458.6644    7216223.64143   5623792.38242  23820460.5394   23820456.3354
        47.0004         41.0004
  22453095.5974    2734304.20043   2134384.14542  22453100.0214   22453095.5284
        51.0004         44.0004
  23957572.9764   -6484674.37943  -5026153.26942  23957576.4124   23957574.1404
        47.0004         40.0004
 04  6 23 16 17 40.0000000  0  9G22G21G18G 6G16G15G29G26G 3
  21514845.0244  -13418430.82344 -10450466.00642  21514845.8824   21514839.0404
        57.0004         49.0004
  20543555.0154   -3090296.76244  -2406372.12042  20543556.6784   20543550.5444
        57.0004         51.0004
  20431168.3204   -5760138.65643  -4448346.06042  20431169.8714   20431164.0904
        56.0004         51.0004
  22019942.3584    9796827.85643   7633278.42742  22019944.3184   22019940.6614
        53.0004         46.0004
  23736988.0034   -2814873.56543  -2186250.61442  23736989.1994   23736986.8424
        47.0004         40.0004
  22062099.8104  -12257986.50743  -9547417.68242  22062100.5594   22062096.9634
        53.0004         45.0004
  23830496.5054    7268971.15943   5664894.30342  23830499.7024   23830494.4204
        48.0004         41.0004
  22461610.3564    2779041.97643   2169244.75142  22461613.0174   22461608.9174
        50.0004         44.0004
  23945832.5864   -6546376.79743  -5074233.03642  23945834.9464   23945832.6084
        47.0004         40.0004
 04  6 23 16 18  0.0000000  0  9G22G21G18G 6G16G15G29G26G 3
  21508155.1324  -13453586.14044 -10477859.73542  21508156.0694   21508149.3104
        57.0004         49.0004
  20543111.4864   -3092628.21844  -2408188.84442  20543113.0284   20543106.8034
        57.0004         51.0004
  20431130.0964   -5760339.61243  -4448502.64942  20431131.8184   20431125.9574
        56.0004         51.0004
  22031250.8884    9856255.10643   7679585.33842  22031252.7414   22031249.5834
        53.0004         46.0004
  23741119.6274   -2793160.03243  -2169331.02342  23741122.3784   23741117.5084
        47.0004         40.0004
  22053619.6654  -12302548.97343  -9582141.66842  22053620.6664   22053616.4654
        53.0004         45.0004
  23840564.0044    7321874.95743   5706117.98242  23840566.3264   23840560.5394
        47.0004         41.0004
  22470171.6584    2824019.70543   2204292.28742  22470171.8594   22470168.4714
        52.0004         44.0004
  23934110.4374   -6607976.84143  -5122233.04542  23934114.2054   23934111.4264
        47.0004         40.0004
 04  6 23 16 18 20.0000000  0  9G22G21G18G 6G16G15G29G26G 3
  21501495.0854  -13488584.97843 -10505131.53542  21501495.8464   21501489.2264
        56.0004         49.0004
  20542688.4034   -3094852.13144  -2409921.77142  20542689.8434   20542683.6674
        58.0004         51.0004
  20431124.0294   -5760372.02243  -4448527.90442  20431125.5884   20431119.8234
        56.0004         51.0004
  22042586.8604    9915826.28243   7726004.38242  22042589.2234   22042585.3014
        53.0004         46.0004
  23745287.1174   -2771258.51143  -2152264.94242  23745289.1234   23745283.8934
        47.0004         40.0004
  22045147.3504  -12347072.16743  -9616835.04942  22045148.4964   22045143.9714
        53.0004         46.0004
  23850661.2264    7374938.48043   5747466.15242  23850665.0434   23850659.4094
        47.0004         41.0004
  22478774.8284    2869240.75043   2239529.43842  22478777.3964   22478773.7474
        51.0004         44.0004
  23922408.4524   -6669469.86143  -5170149.66542  23922411.7534   23922408.3794
        47.0004         40.0004
 04  6 23 16 18 40.0000000  0  9G22G21G18G 6G16G15G29G26G 3
  21494864.9234  -13523426.82144 -10532280.99542  21494865.4374   21494859.0484
        57.0004         49.0004
  20542285.8084   -3096967.58944  -2411570.18542  20542287.6014   20542281.0934
        58.0004         51.0004
  20431149.8824   -5760235.59243  -4448421.59542  20431151.8184   20431145.5774
        56.0004         51.0004
  22053950.6814    9975541.45643   7772535.64542  22053952.0824   22053949.2974
        52.0004         46.0004
  23749490.8244   -2749168.99943  -2135052.36642  23749492.9714   23749489.2054
        47.0004         40.0004
  22036682.2044  -12391555.37443  -9651497.26342  22036683.5624   22036679.6134
        53.0004         46.0004
  23860788.9664    7428161.46643   5788938.60442  23860789.2724   23860786.5774
        46.0004         40.0004
  22487426.3094    2914704.83243   2274955.96742  22487428.7654   22487425.3774
        50.0004         44.0004
  23910727.9984   -6730854.67343  -5217981.97242  23910728.7334   23910726.6024
        47.0004         39.0004
 04  6 23 16 19  0.0000000  0  9G22G21G18G 6G16G15G29G26G 3
  21488264.5754  -13558112.34644 -10559308.65242  21488265.1494   21488258.8144
        57.0004         49.0004
  20541903.7194   -3098975.24944  -2413134.60242  20541905.2644   20541899.0304
        58.0004         51.0004
  20431207.7844   -5759931.44343  -4448184.59542  20431209.5074   20431203.6804
        56.0004         51.0004
  22065341.6934   10035399.27743   7819178.06542  22065343.2934   22065339.6724
        53.0004         46.0004
  23753728.9794   -2726892.83543  -2117694.36142  23753729.9044   23753728.7474
        46.0004         40.0004
  22028224.9334  -12435999.09343  -9686128.71842  22028226.0404   22028221.9884
        52.0004         45.0004
  23870947.2984    7481542.59043   5830534.22242  23870949.1944   23870947.4124
        46.0004         41.0004
  22496125.8604    2960410.59743   2310570.83442  22496126.7704   22496122.5014
        51.0004         44.0004
  23899066.5604   -6792131.46643  -5265730.09142  23899069.2804   23899066.5034
        47.0004         40.0004
 04  6 23 16 19 20.0000000  0  9G22G21G18G 6G16G15G29G26G 3
  21481692.9504  -13592646.15643 -10586218.09542  21481693.7344   21481687.3154
        56.0004         49.0004
  20541541.5664   -3100879.32844  -2414618.30942  20541542.9864   20541536.7174
        58.0004         51.0004
  20431296.7414   -5759464.49343  -4447820.74142  20431298.6644   20431292.5174
        56.0004         51.0004
  22076758.0214   10095394.36943   7865927.44642  22076759.8494   22076756.9664
        53.0004         46.0004
  23758002.2154   -2704435.33343  -2100195.04442  23758003.3714   23758002.7994
        46.0004         40.0004
  22019774.1874  -12480407.72043  -9720732.82342  22019775.2804   22019771.7754
        53.0004         46.0004
  23881132.9754    7535076.37443   5872248.81342  23881133.5964   23881132.5164
        45.0004         40.0004
  22504866.0724    3006352.54543   2346369.70842  22504870.3104   22504865.4334
        50.0004         44.0004
  23887426.1554   -6853303.81543  -5313396.83042  23887426.7884   23887426.2814
        46.0004         40.0004
 04  6 23 16 19 40.0000000  0  9G22G21G18G 6G16G15G29G26G 3
  21475151.2444  -13627022.50544 -10613004.83942  21475152.4524   21475145.1114
        57.0004         49.0004
  20541199.9344   -3102673.71444  -2416016.53842  20541201.6734   20541194.9794
        57.0004         51.0004
  20431417.5214   -5758829.45943  -4447325.91242  20431419.3264   20431413.1774
        56.0004         51.0004
  22088202.0764   10155532.07943   7912787.95742  22088203.4134   22088200.8264
        53.0004         46.0004
  23762311.1254   -2681791.31643  -2082550.40542  23762312.8034   23762310.0744
        46.0004         40.0004
  22011331.4764  -12524775.24743  -9755304.90442  22011332.4104   22011328.6044
        53.0004         46.0004
  23891352.1734    7588767.88243   5914086.32742  23891353.6284   23891350.1404
        47.0004         40.0004
  22513655.0684    3052535.86743   2382356.68242  22513657.4884   22513653.3434
        51.0004         44.0004
  23875805.5174   -6914365.08843  -5360976.99842  23875806.6564   23875806.2714
        47.0004         40.0004
 04  6 23 16 20  0.0000000  0  9G22G21G18G 6G16G15G29G26G 3
  21468639.2774  -13661243.30344 -10639670.37742  21468640.0304   21468633.5714
        57.0004         49.0004
  20540878.9824   -3104360.28144  -2417330.75142  20540880.6004   20540874.3024
        57.0004         51.0004
  20431569.8764   -5758028.31343  -4446701.64542  20431571.7464   20431565.7714
        56.0004         51.0004
  22099672.2044   10215809.66343   7959757.46042  22099673.7534   22099670.6064
        53.0004         46.0004
  23766657.0354   -2658963.43543  -2064762.50142  23766657.1284   23766654.6404
        46.0004         40.0004
  22002895.7634  -12569103.41143  -9789846.31442  22002897.5864   22002893.0804
        53.0004         46.0004
  23901597.1904    7642614.56443   5956044.72142  23901601.4934   23901597.0894
        47.0004         40.0004
  22522489.2944    3098957.72743   2418529.55042  22522491.3594   22522486.8234
        51.0004         44.0004
  23864208.6434   -6975316.70443  -5408471.73742  23864209.0994   23864207.2464
        47.0004         40.0004
 04  6 23 16 20 20.0000000  0  9G22G21G18G 6G16G15G29G26G 3
  21462156.8644  -13695308.28944 -10666214.50442  21462157.7334   21462151.1384
        57.0004         49.0004
  20540578.5984   -3105938.54444  -2418560.57742  20540580.3304   20540574.1364
        58.0004         51.0004
  20431753.9024   -5757061.44043  -4445948.23842  20431755.7114   20431749.7084
        56.0004         51.0004
  22111169.1104   10276226.57543   8006835.52642  22111171.4744   22111167.8334
        53.0004         46.0004
  23771034.4954   -2635951.94843  -2046831.51542  23771034.9404   23771033.1534
        46.0004         40.0004
  21994468.3094  -12613391.79443  -9824356.72742  21994469.3164   21994466.2194
        53.0004         46.0004
  23911874.0784    7696615.74543   5998123.52842  23911877.6314   23911872.4894
        47.0004         40.0004
  22531368.1524    3145617.68743   2454887.91742  22531370.5934   22531366.0574
        51.0004         44.0004
  23852630.2344   -7036157.70543  -5455880.28942  23852631.7764   23852628.8894
        47.0004         40.0004
 04  6 23 16 20 40.0000000  0  9G22G21G18G 6G16G15G29G26G 3
  21455703.6864  -13729218.60044 -10692638.09842  21455704.5924   21455698.1064
        57.0004         49.0004
  20540298.8774   -3107409.29544  -2419706.61942  20540300.4054   20540294.3014
        57.0004         51.0004
  20431969.2674   -5755930.27043  -4445066.81042  20431970.9114   20431964.8834
        56.0004         51.0004
  22122692.4084   10336781.23543   8054020.93442  22122694.7604   22122690.7874
        53.0004         46.0004
  23775449.0954   -2612758.86943  -2028759.03842  23775450.9134   23775447.5094
        46.0004         39.0004
  21986047.5394  -12657641.35243  -9858836.88142  21986048.6654   21986045.5874
        53.0004         46.0004
  23922179.1604    7750769.52843   6040321.26242  23922180.8774   23922179.7374
        46.0004         40.0004
  22540291.6024    3192513.75043   2491430.28642  22540294.5034   22540289.3874
        51.0004         43.0004
  23841073.2374   -7096888.55143  -5503202.97642  23841075.9734   23841072.8744
        47.0004         40.0004
 04  6 23 16 21  0.0000000  0  9G22G21G18G 6G16G15G29G26G 3
  21449280.4614  -13762974.60044 -10718941.45042  21449281.2294   21449274.6344
        57.0004         49.0004
  20540039.3144   -3108772.62044  -2420768.95742  20540040.9414   20540034.6594
        57.0004         51.0004
  20432215.6674   -5754635.48543  -4444057.88742  20432217.1144   20432211.5744
        56.0004         51.0004
  22134241.8014   10397472.71643   8101312.94842  22134243.9964   22134240.0124
        53.0004         46.0004
  23779896.8094   -2589385.09543  -2010545.76042  23779898.7724   23779895.4094
        47.0004         40.0004
  21977634.5944  -12701852.06843  -9893286.77142  21977636.0084   21977631.9964
        53.0004         46.0004
  23932514.9724    7805075.02243   6082637.17042  23932517.0574   23932512.8194
        47.0004         41.0004
  22549263.4314    3239644.89843   2528155.83542  22549265.6144   22549258.9444
        51.0004         43.0004
  23829538.1674   -7157508.72443  -5550439.45142  23829539.6294   23829537.4604
        47.0004         41.0004
 04  6 23 16 21 20.0000000  0  9G22G21G18G 6G16G15G29G26G 3
  21442887.0414  -13796572.06344 -10745121.26842  21442887.7304   21442880.8774
        57.0004         49.0004
  20539801.4074   -3110023.96544  -2421744.04142  20539802.8704   20539796.4934
        57.0004         51.0004
  20432493.8514   -5753172.96143  -4442918.25842  20432495.5294   20432489.5844
        56.0004         51.0004
  22145817.7894   10458304.46043   8148714.25742  22145819.3664   22145815.8114
        52.0004         46.0004
  23784380.1854   -2565826.86743  -1992188.73242  23784380.3684   23784379.2664
        47.0004         40.0004
  21969230.0864  -12746019.39043  -9927702.84842  21969231.6624   21969227.6374
        53.0004         46.0004
  23942877.5634    7859535.81043   6125074.15842  23942879.5724   23942876.3454
        48.0004         41.0004
  22558272.2814    3287014.72843   2565067.35342  22558276.6754   22558273.0904
        49.0004         43.0004
  23818023.5314   -7218013.18843  -5597585.74842  23818024.5804   23818022.7714
        46.0004         40.0004
 04  6 23 16 21 40.0000000  0  9G22G21G18G 6G16G15G29G26G 3
  21436522.3524  -13830017.67243 -10771182.75842  21436523.2694   21436516.5494
        56.0004         49.0004
  20539583.2314   -3111169.95144  -2422637.01842  20539584.6044   20539578.3954
        58.0004         51.0004
  20432802.7764   -5751549.94243  -4441653.56642  20432804.4234   20432798.5074
        56.0004         51.0004
  22157419.2354   10519269.05543   8196219.09342  22157420.8134   22157417.3534
        53.0004         45.0004
  23788896.9374   -2542091.71043  -1973693.84842  23788897.2954   23788895.1744
        47.0004         40.0004
  21960832.3874  -12790149.94043  -9962090.26742  21960833.4274   21960829.8124
        53.0004         46.0004
  23953269.9154    7914144.21243   6167626.09742  23953272.3684   23953268.4034
        48.0004         41.0004
  22567333.8424    3334615.50043   2602158.84242  22567335.8424   22567331.8074
        51.0004         44.0004
  23806531.0814   -7278408.23743  -5644646.78042  23806533.2464   23806531.8444
        48.0004         41.0004
 04  6 23 16 22  0.0000000  0  9G22G21G18G 6G16G15G29G26G 3
  21430188.1904  -13863304.57144 -10797120.58342  21430188.9134   21430182.4654
        57.0004         49.0004
  20539386.6214   -3112203.54144  -2423442.41642  20539388.1494   20539381.8604
        57.0004         51.0004
  20433143.2934   -5749759.83543  -4440258.67842  20433145.1884   20433139.0844
        56.0004         51.0004
  22169046.7354   10580372.90743   8243832.43542  22169048.9594   22169044.8434
        53.0004         46.0004
  23793448.4864   -2518173.33743  -1955056.19542  23793450.8794   23793447.9044
        48.0004         40.0004
  21952442.7624  -12834236.55343  -9996443.44942  21952443.7554   21952439.5314
        53.0004         46.0004
  23963688.5454    7968906.47343   6210298.02242  23963688.9634   23963687.9474
        45.0004         40.0004
  22576438.2574    3382453.58543   2639435.23042  22576440.0134   22576434.8844
        52.0004         44.0004
  23795061.7554   -7338685.96443  -5691616.41842  23795063.4924   23795060.5064
        48.0004         41.0004
 04  6 23 16 22 20.0000000  0  9G22G21G18G 6G16G15G29G26G 3
  21423882.7784  -13896439.33944 -10822939.86342  21423883.2124   21423876.8744
        57.0004         49.0004
  20539209.8704   -3113130.75344  -2424164.92542  20539211.5544   20539205.3564
        57.0004         51.0004
  20433514.5884   -5747809.58143  -4438739.00042  20433516.1974   20433510.2254
        56.0004         51.0004
  22180699.6174   10641608.85843   8291548.71842  22180701.0184   22180697.4144
        52.0004         45.0004
  23798032.9064   -2494078.85943  -1936281.29742  23798036.2414   23798031.4344
        47.0004         40.0004
  21944060.4984  -12878285.55543 -10030767.32342  21944061.6224   21944057.8074
        53.0004         46.0004
  23974140.6204    8023815.31243   6253084.05642  23974141.6854   23974137.2914
        48.0004         41.0004
  22585581.7554    3430521.48243   2676890.72442  22585584.7894   22585581.6354
        49.0004         44.0004
  23783610.8234   -7398852.16843  -5738499.16342  23783611.8674   23783610.3174
        47.0004         41.0004
 04  6 23 16 22 40.0000000  0  9G22G21G18G 6G16G15G29G26G 3
  21417607.6604  -13929415.78744 -10848635.77942  21417608.4994   21417601.7634
        57.0004         49.0004
  20539055.1674   -3113945.20844  -2424799.57042  20539056.8234   20539050.5794
        57.0004         51.0004
  20433917.2514   -5745693.28343  -4437089.93542  20433919.0674   20433913.0734
        56.0004         51.0004
  22192378.7194   10702982.28543   8339372.12642  22192380.3314   22192376.7524
        53.0004         45.0004
  23802653.0684   -2469802.87143  -1917364.97942  23802654.7164   23802651.4904
        48.0004         40.0004
  21935686.2924  -12922290.65543 -10065056.99742  21935687.8524   21935683.8774
        53.0004         46.0004
  23984615.9274    8078876.20643   6295988.61442  23984618.3914   23984615.4284
        47.0004         40.0004
  22594776.9964    3478824.64343   2714529.53542  22594777.1424   22594773.3254
        51.0004         44.0004
  23772183.6904   -7458900.05843  -5785289.68442  23772186.8064   23772183.5754
        47.0004         40.0004
 04  6 23 16 23  0.0000000  0  9G22G21G18G 6G16G15G29G26G 3
  21411361.6594  -13962238.11544 -10874211.59742  21411362.6714   21411355.4924
        57.0004         49.0004
  20538920.7654   -3114650.98544  -2425349.52942  20538922.4444   20538916.2944
        57.0004         51.0004
  20434350.9134   -5743415.39043  -4435314.95742  20434352.4844   20434346.4984
        56.0004         51.0004
  22204082.6114   10764488.32043   8387298.86342  22204084.5474   22204080.3814
        52.0004         45.0004
  23807306.5074   -2445350.19843  -1898310.98042  23807307.1474   23807301.6624
        48.0004         40.0004
  21927320.2304  -12966255.57543 -10099315.35542  21927321.8184   21927317.5814
        53.0004         46.0004
  23995122.4954    8134084.17143   6339007.78742  23995125.0584   23995120.8994
        48.0004         41.0004
  22604010.8424    3527358.27143   2752347.89942  22604012.7604   22604009.7924
        51.0004         44.0004
  23760779.8404   -7518833.02543  -5831990.69342  23760780.2814   23760778.1974
        48.0004         41.0004
